Saint Francis River (Missouri), Saco (07036100)

StateMissouriLatestLow (252 cfs)
RiverSaint Francis RiverRatingObservedEstimated
Updated2026-05-05 8:00 (32 minutes ago)Flood - The river is flooding. Obstacles can be treacherous or deadly. The river should be avoided at this stage for casual trips and definitely for the inexperienced. Trips should be attempted only with protective gear and equipment.Flood(none)4271
Discharge252 cfs (median: 1130 cfs)High - The river is high and potentially dangerous, especially for the young and / or inexperienced. Normal stream obstacles are sometimes difficult to navigate. Extended distances can be attempted, but canoe travel may not be advisable.High(none)1665
Height3.29 feetGood - Conditions are ideal for a canoe or kayak. Boats typically will drag on fewer than one-quarter of riffles, if at all, and portages are unnecessary or rare. Normal float lengths can be attempted without a problem.Good(none)671
TrendSteady (falling over 24 hours)Low - River is low but can still be floated. Some riffles are okay but most come with significant dragging and might need a portage. Float lengths should be reduced to accommodate low flow, dragging, and portages.Low(none)186
USGSExternal icon USGS Site (External icon Duck Duck Go Maps)Poor - River is too low to float comfortably. Most or all riffles will drag or must be portaged and some obstacles (such as slick shelf rock) cause undue problems. Avoid the river at this stage for casual paddling trips.Poor(none)53

Trending Data

Plot Image

Trips for Saint Francis River (Missouri), Saco (07036100)

DateStartEndDistanceConditionDischargeHeightFishingDetails

A total of 0 rows are displayed.

Condition Descriptions

Fishing Conditions

Fish Species

Notes

Classic Trip List

The classic River Trips application is still available for use. It is updated with the new system using a data retrofit. It is no longer maintained. The original River Trips application is no longer updated (as of 1 Dec 2016) but can be checked for errors or for the condition of the data before it was converted to the new system.

Gauge Data Table

ObservationHeightDischargeMaximum
Discharge
Minimum
Discharge
Mean
Discharge
P05P10P20P25P50
(Median)
P75P80P90P95
2026-05-05 08:00 3.29 252 11000 (2017) 113 (2012) 2220 130 164 237 427 1130 3160 3830 7070 9160
2026-05-05 07:30 3.29 252 11000 (2017) 113 (2012) 2220 130 164 237 427 1130 3160 3830 7070 9160
2026-05-05 07:00 3.29 252 11000 (2017) 113 (2012) 2220 130 164 237 427 1130 3160 3830 7070 9160
2026-05-05 06:30 3.29 252 11000 (2017) 113 (2012) 2220 130 164 237 427 1130 3160 3830 7070 9160
2026-05-05 06:00 3.30 255 11000 (2017) 113 (2012) 2220 130 164 237 427 1130 3160 3830 7070 9160
2026-05-05 05:30 3.30 255 11000 (2017) 113 (2012) 2220 130 164 237 427 1130 3160 3830 7070 9160
2026-05-05 05:00 3.30 255 11000 (2017) 113 (2012) 2220 130 164 237 427 1130 3160 3830 7070 9160
2026-05-05 04:30 3.30 255 11000 (2017) 113 (2012) 2220 130 164 237 427 1130 3160 3830 7070 9160
2026-05-05 04:00 3.31 258 11000 (2017) 113 (2012) 2220 130 164 237 427 1130 3160 3830 7070 9160
2026-05-05 03:30 3.31 258 11000 (2017) 113 (2012) 2220 130 164 237 427 1130 3160 3830 7070 9160
2026-05-05 03:00 3.31 258 11000 (2017) 113 (2012) 2220 130 164 237 427 1130 3160 3830 7070 9160
2026-05-05 02:30 3.31 258 11000 (2017) 113 (2012) 2220 130 164 237 427 1130 3160 3830 7070 9160
2026-05-05 02:00 3.31 258 11000 (2017) 113 (2012) 2220 130 164 237 427 1130 3160 3830 7070 9160
2026-05-05 01:30 3.31 258 11000 (2017) 113 (2012) 2220 130 164 237 427 1130 3160 3830 7070 9160
2026-05-05 01:00 3.31 258 11000 (2017) 113 (2012) 2220 130 164 237 427 1130 3160 3830 7070 9160
2026-05-05 00:30 3.32 261 11000 (2017) 113 (2012) 2220 130 164 237 427 1130 3160 3830 7070 9160
2026-05-05 00:00 3.32 261 11000 (2017) 113 (2012) 2220 130 164 237 427 1130 3160 3830 7070 9160
2026-05-04 23:30 3.32 261 11000 (2017) 113 (2012) 2220 130 164 237 427 1130 3160 3830 7070 9160
2026-05-04 23:00 3.32 261 11000 (2017) 113 (2012) 2220 130 164 237 427 1130 3160 3830 7070 9160
2026-05-04 22:30 3.33 264 20800 (2013) 122 (2012) 3430 136 163 255 455 1060 4900 7980 12000 15100
2026-05-04 22:00 3.33 264 20800 (2013) 122 (2012) 3430 136 163 255 455 1060 4900 7980 12000 15100
2026-05-04 21:30 3.33 264 20800 (2013) 122 (2012) 3430 136 163 255 455 1060 4900 7980 12000 15100
2026-05-04 21:00 3.33 264 20800 (2013) 122 (2012) 3430 136 163 255 455 1060 4900 7980 12000 15100
2026-05-04 20:30 3.34 267 20800 (2013) 122 (2012) 3430 136 163 255 455 1060 4900 7980 12000 15100
2026-05-04 20:00 3.34 267 20800 (2013) 122 (2012) 3430 136 163 255 455 1060 4900 7980 12000 15100
2026-05-04 19:30 3.34 267 20800 (2013) 122 (2012) 3430 136 163 255 455 1060 4900 7980 12000 15100
2026-05-04 19:00 3.35 270 20800 (2013) 122 (2012) 3430 136 163 255 455 1060 4900 7980 12000 15100
2026-05-04 18:30 3.35 270 20800 (2013) 122 (2012) 3430 136 163 255 455 1060 4900 7980 12000 15100
2026-05-04 18:00 3.35 270 20800 (2013) 122 (2012) 3430 136 163 255 455 1060 4900 7980 12000 15100
2026-05-04 17:30 3.35 270 20800 (2013) 122 (2012) 3430 136 163 255 455 1060 4900 7980 12000 15100
2026-05-04 17:00 3.32 261 20800 (2013) 122 (2012) 3430 136 163 255 455 1060 4900 7980 12000 15100
2026-05-04 16:30 3.36 273 20800 (2013) 122 (2012) 3430 136 163 255 455 1060 4900 7980 12000 15100
2026-05-04 16:00 3.37 276 20800 (2013) 122 (2012) 3430 136 163 255 455 1060 4900 7980 12000 15100
2026-05-04 15:30 3.35 270 20800 (2013) 122 (2012) 3430 136 163 255 455 1060 4900 7980 12000 15100
2026-05-04 15:00 3.36 273 20800 (2013) 122 (2012) 3430 136 163 255 455 1060 4900 7980 12000 15100
2026-05-04 14:30 3.36 273 20800 (2013) 122 (2012) 3430 136 163 255 455 1060 4900 7980 12000 15100
2026-05-04 14:00 3.38 279 20800 (2013) 122 (2012) 3430 136 163 255 455 1060 4900 7980 12000 15100
2026-05-04 13:30 3.38 279 20800 (2013) 122 (2012) 3430 136 163 255 455 1060 4900 7980 12000 15100
2026-05-04 13:00 3.40 286 20800 (2013) 122 (2012) 3430 136 163 255 455 1060 4900 7980 12000 15100
2026-05-04 12:30 3.39 283 20800 (2013) 122 (2012) 3430 136 163 255 455 1060 4900 7980 12000 15100
2026-05-04 12:00 3.36 273 20800 (2013) 122 (2012) 3430 136 163 255 455 1060 4900 7980 12000 15100
2026-05-04 11:30 3.37 276 20800 (2013) 122 (2012) 3430 136 163 255 455 1060 4900 7980 12000 15100
2026-05-04 11:00 3.36 273 20800 (2013) 122 (2012) 3430 136 163 255 455 1060 4900 7980 12000 15100
2026-05-04 10:30 3.40 286 20800 (2013) 122 (2012) 3430 136 163 255 455 1060 4900 7980 12000 15100
2026-05-04 10:00 3.40 286 20800 (2013) 122 (2012) 3430 136 163 255 455 1060 4900 7980 12000 15100
2026-05-04 09:30 3.41 289 20800 (2013) 122 (2012) 3430 136 163 255 455 1060 4900 7980 12000 15100
2026-05-04 09:00 3.41 289 20800 (2013) 122 (2012) 3430 136 163 255 455 1060 4900 7980 12000 15100
2026-05-04 08:30 3.42 292 20800 (2013) 122 (2012) 3430 136 163 255 455 1060 4900 7980 12000 15100
2026-05-04 08:00 3.42 292 20800 (2013) 122 (2012) 3430 136 163 255 455 1060 4900 7980 12000 15100
2026-05-04 07:30 3.42 292 20800 (2013) 122 (2012) 3430 136 163 255 455 1060 4900 7980 12000 15100
2026-05-04 07:00 3.43 295 20800 (2013) 122 (2012) 3430 136 163 255 455 1060 4900 7980 12000 15100
2026-05-04 06:30 3.43 295 20800 (2013) 122 (2012) 3430 136 163 255 455 1060 4900 7980 12000 15100
2026-05-04 06:00 3.43 295 20800 (2013) 122 (2012) 3430 136 163 255 455 1060 4900 7980 12000 15100
2026-05-04 05:30 3.44 298 20800 (2013) 122 (2012) 3430 136 163 255 455 1060 4900 7980 12000 15100
2026-05-04 05:00 3.44 298 20800 (2013) 122 (2012) 3430 136 163 255 455 1060 4900 7980 12000 15100
2026-05-04 04:30 3.44 298 20800 (2013) 122 (2012) 3430 136 163 255 455 1060 4900 7980 12000 15100
2026-05-04 04:00 3.44 298 20800 (2013) 122 (2012) 3430 136 163 255 455 1060 4900 7980 12000 15100
2026-05-04 03:30 3.45 302 20800 (2013) 122 (2012) 3430 136 163 255 455 1060 4900 7980 12000 15100
2026-05-04 03:00 3.45 302 20800 (2013) 122 (2012) 3430 136 163 255 455 1060 4900 7980 12000 15100
2026-05-04 02:30 3.45 302 20800 (2013) 122 (2012) 3430 136 163 255 455 1060 4900 7980 12000 15100
2026-05-04 02:00 3.46 305 20800 (2013) 122 (2012) 3430 136 163 255 455 1060 4900 7980 12000 15100
2026-05-04 01:30 3.46 305 20800 (2013) 122 (2012) 3430 136 163 255 455 1060 4900 7980 12000 15100
2026-05-04 01:00 3.46 305 20800 (2013) 122 (2012) 3430 136 163 255 455 1060 4900 7980 12000 15100
2026-05-04 00:30 3.47 308 20800 (2013) 122 (2012) 3430 136 163 255 455 1060 4900 7980 12000 15100
2026-05-04 00:00 3.47 308 20800 (2013) 122 (2012) 3430 136 163 255 455 1060 4900 7980 12000 15100
2026-05-03 23:30 3.47 308 20800 (2013) 122 (2012) 3430 136 163 255 455 1060 4900 7980 12000 15100
2026-05-03 23:00 3.48 312 20800 (2013) 122 (2012) 3430 136 163 255 455 1060 4900 7980 12000 15100
2026-05-03 22:30 3.48 312 11200 (2011) 131 (2012) 2610 146 165 280 402 1180 3570 4320 8640 10600
2026-05-03 22:00 3.48 312 11200 (2011) 131 (2012) 2610 146 165 280 402 1180 3570 4320 8640 10600
2026-05-03 21:30 3.48 312 11200 (2011) 131 (2012) 2610 146 165 280 402 1180 3570 4320 8640 10600
2026-05-03 21:00 3.49 315 11200 (2011) 131 (2012) 2610 146 165 280 402 1180 3570 4320 8640 10600
2026-05-03 20:30 3.49 315 11200 (2011) 131 (2012) 2610 146 165 280 402 1180 3570 4320 8640 10600
2026-05-03 20:00 3.49 315 11200 (2011) 131 (2012) 2610 146 165 280 402 1180 3570 4320 8640 10600
2026-05-03 19:30 3.49 315 11200 (2011) 131 (2012) 2610 146 165 280 402 1180 3570 4320 8640 10600
2026-05-03 19:00 3.50 318 11200 (2011) 131 (2012) 2610 146 165 280 402 1180 3570 4320 8640 10600
2026-05-03 18:30 3.50 318 11200 (2011) 131 (2012) 2610 146 165 280 402 1180 3570 4320 8640 10600
2026-05-03 18:00 3.50 318 11200 (2011) 131 (2012) 2610 146 165 280 402 1180 3570 4320 8640 10600
2026-05-03 17:30 3.51 322 11200 (2011) 131 (2012) 2610 146 165 280 402 1180 3570 4320 8640 10600
2026-05-03 17:00 3.51 322 11200 (2011) 131 (2012) 2610 146 165 280 402 1180 3570 4320 8640 10600
2026-05-03 16:30 3.52 325 11200 (2011) 131 (2012) 2610 146 165 280 402 1180 3570 4320 8640 10600
2026-05-03 16:00 3.52 325 11200 (2011) 131 (2012) 2610 146 165 280 402 1180 3570 4320 8640 10600
2026-05-03 15:30 3.52 325 11200 (2011) 131 (2012) 2610 146 165 280 402 1180 3570 4320 8640 10600
2026-05-03 15:00 3.53 328 11200 (2011) 131 (2012) 2610 146 165 280 402 1180 3570 4320 8640 10600
2026-05-03 14:30 3.53 328 11200 (2011) 131 (2012) 2610 146 165 280 402 1180 3570 4320 8640 10600
2026-05-03 14:00 3.52 325 11200 (2011) 131 (2012) 2610 146 165 280 402 1180 3570 4320 8640 10600
2026-05-03 13:30 3.54 332 11200 (2011) 131 (2012) 2610 146 165 280 402 1180 3570 4320 8640 10600
2026-05-03 13:00 3.53 328 11200 (2011) 131 (2012) 2610 146 165 280 402 1180 3570 4320 8640 10600
2026-05-03 12:30 3.51 322 11200 (2011) 131 (2012) 2610 146 165 280 402 1180 3570 4320 8640 10600
2026-05-03 12:00 3.53 328 11200 (2011) 131 (2012) 2610 146 165 280 402 1180 3570 4320 8640 10600
2026-05-03 11:30 3.50 318 11200 (2011) 131 (2012) 2610 146 165 280 402 1180 3570 4320 8640 10600
2026-05-03 11:00 3.55 335 11200 (2011) 131 (2012) 2610 146 165 280 402 1180 3570 4320 8640 10600
2026-05-03 10:30 3.55 335 11200 (2011) 131 (2012) 2610 146 165 280 402 1180 3570 4320 8640 10600
2026-05-03 10:00 3.56 339 11200 (2011) 131 (2012) 2610 146 165 280 402 1180 3570 4320 8640 10600
2026-05-03 09:30 3.56 339 11200 (2011) 131 (2012) 2610 146 165 280 402 1180 3570 4320 8640 10600
2026-05-03 09:00 3.56 339 11200 (2011) 131 (2012) 2610 146 165 280 402 1180 3570 4320 8640 10600
2026-05-03 08:30 3.56 339 11200 (2011) 131 (2012) 2610 146 165 280 402 1180 3570 4320 8640 10600
2026-05-03 08:00 3.57 342 11200 (2011) 131 (2012) 2610 146 165 280 402 1180 3570 4320 8640 10600
2026-05-03 07:30 3.57 342 11200 (2011) 131 (2012) 2610 146 165 280 402 1180 3570 4320 8640 10600
2026-05-03 07:00 3.57 342 11200 (2011) 131 (2012) 2610 146 165 280 402 1180 3570 4320 8640 10600
2026-05-03 06:30 3.58 346 11200 (2011) 131 (2012) 2610 146 165 280 402 1180 3570 4320 8640 10600
2026-05-03 06:00 3.58 346 11200 (2011) 131 (2012) 2610 146 165 280 402 1180 3570 4320 8640 10600
2026-05-03 05:30 3.59 349 11200 (2011) 131 (2012) 2610 146 165 280 402 1180 3570 4320 8640 10600
2026-05-03 05:00 3.59 349 11200 (2011) 131 (2012) 2610 146 165 280 402 1180 3570 4320 8640 10600
2026-05-03 04:30 3.60 353 11200 (2011) 131 (2012) 2610 146 165 280 402 1180 3570 4320 8640 10600
2026-05-03 04:00 3.60 353 11200 (2011) 131 (2012) 2610 146 165 280 402 1180 3570 4320 8640 10600
2026-05-03 03:30 3.61 356 11200 (2011) 131 (2012) 2610 146 165 280 402 1180 3570 4320 8640 10600
2026-05-03 03:00 3.61 356 11200 (2011) 131 (2012) 2610 146 165 280 402 1180 3570 4320 8640 10600
2026-05-03 02:30 3.59 349 11200 (2011) 131 (2012) 2610 146 165 280 402 1180 3570 4320 8640 10600
2026-05-03 02:00 3.61 356 11200 (2011) 131 (2012) 2610 146 165 280 402 1180 3570 4320 8640 10600
2026-05-03 01:30 3.61 356 11200 (2011) 131 (2012) 2610 146 165 280 402 1180 3570 4320 8640 10600
2026-05-03 01:00 3.61 356 11200 (2011) 131 (2012) 2610 146 165 280 402 1180 3570 4320 8640 10600
2026-05-03 00:30 3.63 363 11200 (2011) 131 (2012) 2610 146 165 280 402 1180 3570 4320 8640 10600
2026-05-03 00:00 3.63 363 11200 (2011) 131 (2012) 2610 146 165 280 402 1180 3570 4320 8640 10600
2026-05-02 23:30 3.64 367 11200 (2011) 131 (2012) 2610 146 165 280 402 1180 3570 4320 8640 10600
2026-05-02 23:00 3.64 367 11200 (2011) 131 (2012) 2610 146 165 280 402 1180 3570 4320 8640 10600
2026-05-02 22:30 3.63 363 21300 (2011) 144 (2012) 2640 159 174 309 370 1020 2570 3980 7550 15200
2026-05-02 22:00 3.65 371 21300 (2011) 144 (2012) 2640 159 174 309 370 1020 2570 3980 7550 15200
2026-05-02 21:30 3.66 374 21300 (2011) 144 (2012) 2640 159 174 309 370 1020 2570 3980 7550 15200
2026-05-02 21:00 3.66 374 21300 (2011) 144 (2012) 2640 159 174 309 370 1020 2570 3980 7550 15200
2026-05-02 20:30 3.67 378 21300 (2011) 144 (2012) 2640 159 174 309 370 1020 2570 3980 7550 15200
2026-05-02 20:00 3.67 378 21300 (2011) 144 (2012) 2640 159 174 309 370 1020 2570 3980 7550 15200
2026-05-02 19:30 3.68 382 21300 (2011) 144 (2012) 2640 159 174 309 370 1020 2570 3980 7550 15200
2026-05-02 19:00 3.68 382 21300 (2011) 144 (2012) 2640 159 174 309 370 1020 2570 3980 7550 15200
2026-05-02 18:30 3.68 382 21300 (2011) 144 (2012) 2640 159 174 309 370 1020 2570 3980 7550 15200
2026-05-02 18:00 3.69 385 21300 (2011) 144 (2012) 2640 159 174 309 370 1020 2570 3980 7550 15200
2026-05-02 17:30 3.70 389 21300 (2011) 144 (2012) 2640 159 174 309 370 1020 2570 3980 7550 15200
2026-05-02 17:00 3.67 378 21300 (2011) 144 (2012) 2640 159 174 309 370 1020 2570 3980 7550 15200
2026-05-02 16:30 3.67 378 21300 (2011) 144 (2012) 2640 159 174 309 370 1020 2570 3980 7550 15200
2026-05-02 16:00 3.67 378 21300 (2011) 144 (2012) 2640 159 174 309 370 1020 2570 3980 7550 15200
2026-05-02 15:30 3.69 385 21300 (2011) 144 (2012) 2640 159 174 309 370 1020 2570 3980 7550 15200
2026-05-02 15:00 3.69 385 21300 (2011) 144 (2012) 2640 159 174 309 370 1020 2570 3980 7550 15200
2026-05-02 14:30 3.69 385 21300 (2011) 144 (2012) 2640 159 174 309 370 1020 2570 3980 7550 15200
2026-05-02 14:00 3.72 397 21300 (2011) 144 (2012) 2640 159 174 309 370 1020 2570 3980 7550 15200
2026-05-02 13:30 3.72 397 21300 (2011) 144 (2012) 2640 159 174 309 370 1020 2570 3980 7550 15200
2026-05-02 13:00 3.70 389 21300 (2011) 144 (2012) 2640 159 174 309 370 1020 2570 3980 7550 15200
2026-05-02 12:30 3.70 389 21300 (2011) 144 (2012) 2640 159 174 309 370 1020 2570 3980 7550 15200
2026-05-02 12:00 3.75 408 21300 (2011) 144 (2012) 2640 159 174 309 370 1020 2570 3980 7550 15200
2026-05-02 11:30 3.75 408 21300 (2011) 144 (2012) 2640 159 174 309 370 1020 2570 3980 7550 15200
2026-05-02 11:00 3.74 404 21300 (2011) 144 (2012) 2640 159 174 309 370 1020 2570 3980 7550 15200
2026-05-02 10:30 3.76 412 21300 (2011) 144 (2012) 2640 159 174 309 370 1020 2570 3980 7550 15200
2026-05-02 10:00 3.76 412 21300 (2011) 144 (2012) 2640 159 174 309 370 1020 2570 3980 7550 15200
2026-05-02 09:30 3.77 416 21300 (2011) 144 (2012) 2640 159 174 309 370 1020 2570 3980 7550 15200
2026-05-02 09:00 3.78 420 21300 (2011) 144 (2012) 2640 159 174 309 370 1020 2570 3980 7550 15200
2026-05-02 08:30 3.78 420 21300 (2011) 144 (2012) 2640 159 174 309 370 1020 2570 3980 7550 15200
2026-05-02 08:00 3.79 423 21300 (2011) 144 (2012) 2640 159 174 309 370 1020 2570 3980 7550 15200
2026-05-02 07:30 3.79 423 21300 (2011) 144 (2012) 2640 159 174 309 370 1020 2570 3980 7550 15200
2026-05-02 07:00 3.80 427 21300 (2011) 144 (2012) 2640 159 174 309 370 1020 2570 3980 7550 15200
2026-05-02 06:30 3.78 420 21300 (2011) 144 (2012) 2640 159 174 309 370 1020 2570 3980 7550 15200
2026-05-02 06:00 3.81 431 21300 (2011) 144 (2012) 2640 159 174 309 370 1020 2570 3980 7550 15200
2026-05-02 05:30 3.82 435 21300 (2011) 144 (2012) 2640 159 174 309 370 1020 2570 3980 7550 15200
2026-05-02 05:00 3.82 435 21300 (2011) 144 (2012) 2640 159 174 309 370 1020 2570 3980 7550 15200
2026-05-02 04:30 3.82 435 21300 (2011) 144 (2012) 2640 159 174 309 370 1020 2570 3980 7550 15200
2026-05-02 04:00 3.84 443 21300 (2011) 144 (2012) 2640 159 174 309 370 1020 2570 3980 7550 15200
2026-05-02 03:30 3.85 447 21300 (2011) 144 (2012) 2640 159 174 309 370 1020 2570 3980 7550 15200
2026-05-02 03:00 3.85 447 21300 (2011) 144 (2012) 2640 159 174 309 370 1020 2570 3980 7550 15200
2026-05-02 02:30 3.86 451 21300 (2011) 144 (2012) 2640 159 174 309 370 1020 2570 3980 7550 15200
2026-05-02 02:00 3.87 455 21300 (2011) 144 (2012) 2640 159 174 309 370 1020 2570 3980 7550 15200
2026-05-02 01:30 3.87 455 21300 (2011) 144 (2012) 2640 159 174 309 370 1020 2570 3980 7550 15200
2026-05-02 01:00 3.85 447 21300 (2011) 144 (2012) 2640 159 174 309 370 1020 2570 3980 7550 15200
2026-05-02 00:30 3.89 463 21300 (2011) 144 (2012) 2640 159 174 309 370 1020 2570 3980 7550 15200
2026-05-02 00:00 3.89 463 21300 (2011) 144 (2012) 2640 159 174 309 370 1020 2570 3980 7550 15200
2026-05-01 23:30 3.89 463 21300 (2011) 144 (2012) 2640 159 174 309 370 1020 2570 3980 7550 15200
2026-05-01 23:00 3.91 472 21300 (2011) 144 (2012) 2640 159 174 309 370 1020 2570 3980 7550 15200
2026-05-01 22:30 3.91 472 26900 (2017) 162 (2012) 2960 172 185 328 409 1390 2710 3910 8480 14700
2026-05-01 22:00 3.93 480 26900 (2017) 162 (2012) 2960 172 185 328 409 1390 2710 3910 8480 14700
2026-05-01 21:30 3.93 480 26900 (2017) 162 (2012) 2960 172 185 328 409 1390 2710 3910 8480 14700
2026-05-01 21:00 3.94 484 26900 (2017) 162 (2012) 2960 172 185 328 409 1390 2710 3910 8480 14700
2026-05-01 20:30 3.95 488 26900 (2017) 162 (2012) 2960 172 185 328 409 1390 2710 3910 8480 14700
2026-05-01 20:00 3.96 493 26900 (2017) 162 (2012) 2960 172 185 328 409 1390 2710 3910 8480 14700
2026-05-01 19:30 3.97 497 26900 (2017) 162 (2012) 2960 172 185 328 409 1390 2710 3910 8480 14700
2026-05-01 19:00 3.98 501 26900 (2017) 162 (2012) 2960 172 185 328 409 1390 2710 3910 8480 14700
2026-05-01 18:30 3.98 501 26900 (2017) 162 (2012) 2960 172 185 328 409 1390 2710 3910 8480 14700
2026-05-01 18:00 3.96 493 26900 (2017) 162 (2012) 2960 172 185 328 409 1390 2710 3910 8480 14700
2026-05-01 17:30 3.96 493 26900 (2017) 162 (2012) 2960 172 185 328 409 1390 2710 3910 8480 14700
2026-05-01 17:00 4.01 514 26900 (2017) 162 (2012) 2960 172 185 328 409 1390 2710 3910 8480 14700
2026-05-01 16:30 3.97 497 26900 (2017) 162 (2012) 2960 172 185 328 409 1390 2710 3910 8480 14700
2026-05-01 16:00 4.02 518 26900 (2017) 162 (2012) 2960 172 185 328 409 1390 2710 3910 8480 14700
2026-05-01 15:30 3.99 505 26900 (2017) 162 (2012) 2960 172 185 328 409 1390 2710 3910 8480 14700
2026-05-01 15:00 4.02 518 26900 (2017) 162 (2012) 2960 172 185 328 409 1390 2710 3910 8480 14700
2026-05-01 14:30 4.00 510 26900 (2017) 162 (2012) 2960 172 185 328 409 1390 2710 3910 8480 14700
2026-05-01 14:00 4.04 527 26900 (2017) 162 (2012) 2960 172 185 328 409 1390 2710 3910 8480 14700
2026-05-01 13:30 4.05 532 26900 (2017) 162 (2012) 2960 172 185 328 409 1390 2710 3910 8480 14700
2026-05-01 13:00 4.02 518 26900 (2017) 162 (2012) 2960 172 185 328 409 1390 2710 3910 8480 14700
2026-05-01 12:30 4.09 549 26900 (2017) 162 (2012) 2960 172 185 328 409 1390 2710 3910 8480 14700
2026-05-01 12:00 4.07 540 26900 (2017) 162 (2012) 2960 172 185 328 409 1390 2710 3910 8480 14700
2026-05-01 11:30 4.11 558 26900 (2017) 162 (2012) 2960 172 185 328 409 1390 2710 3910 8480 14700
2026-05-01 11:00 4.07 540 26900 (2017) 162 (2012) 2960 172 185 328 409 1390 2710 3910 8480 14700
2026-05-01 10:30 4.12 563 26900 (2017) 162 (2012) 2960 172 185 328 409 1390 2710 3910 8480 14700
2026-05-01 10:00 4.13 567 26900 (2017) 162 (2012) 2960 172 185 328 409 1390 2710 3910 8480 14700
2026-05-01 09:30 4.11 558 26900 (2017) 162 (2012) 2960 172 185 328 409 1390 2710 3910 8480 14700
2026-05-01 09:00 4.14 572 26900 (2017) 162 (2012) 2960 172 185 328 409 1390 2710 3910 8480 14700
2026-05-01 08:30 4.16 581 26900 (2017) 162 (2012) 2960 172 185 328 409 1390 2710 3910 8480 14700
2026-05-01 08:00 4.16 581 26900 (2017) 162 (2012) 2960 172 185 328 409 1390 2710 3910 8480 14700
2026-05-01 07:30 4.18 591 26900 (2017) 162 (2012) 2960 172 185 328 409 1390 2710 3910 8480 14700
2026-05-01 07:00 4.18 591 26900 (2017) 162 (2012) 2960 172 185 328 409 1390 2710 3910 8480 14700
2026-05-01 06:30 4.20 600 26900 (2017) 162 (2012) 2960 172 185 328 409 1390 2710 3910 8480 14700
2026-05-01 06:00 4.21 605 26900 (2017) 162 (2012) 2960 172 185 328 409 1390 2710 3910 8480 14700
2026-05-01 05:30 4.22 609 26900 (2017) 162 (2012) 2960 172 185 328 409 1390 2710 3910 8480 14700
2026-05-01 05:00 4.23 614 26900 (2017) 162 (2012) 2960 172 185 328 409 1390 2710 3910 8480 14700
2026-05-01 04:30 4.24 619 26900 (2017) 162 (2012) 2960 172 185 328 409 1390 2710 3910 8480 14700
2026-05-01 04:00 4.25 624 26900 (2017) 162 (2012) 2960 172 185 328 409 1390 2710 3910 8480 14700
2026-05-01 03:30 4.26 629 26900 (2017) 162 (2012) 2960 172 185 328 409 1390 2710 3910 8480 14700
2026-05-01 03:00 4.28 638 26900 (2017) 162 (2012) 2960 172 185 328 409 1390 2710 3910 8480 14700
2026-05-01 02:30 4.29 643 26900 (2017) 162 (2012) 2960 172 185 328 409 1390 2710 3910 8480 14700
2026-05-01 02:00 4.30 648 26900 (2017) 162 (2012) 2960 172 185 328 409 1390 2710 3910 8480 14700
2026-05-01 01:30 4.32 658 26900 (2017) 162 (2012) 2960 172 185 328 409 1390 2710 3910 8480 14700
2026-05-01 01:00 4.30 648 26900 (2017) 162 (2012) 2960 172 185 328 409 1390 2710 3910 8480 14700
2026-05-01 00:30 4.35 673 26900 (2017) 162 (2012) 2960 172 185 328 409 1390 2710 3910 8480 14700
2026-05-01 00:00 4.36 678 26900 (2017) 162 (2012) 2960 172 185 328 409 1390 2710 3910 8480 14700
2026-04-30 23:30 4.38 688 26900 (2017) 162 (2012) 2960 172 185 328 409 1390 2710 3910 8480 14700
2026-04-30 23:00 4.39 693 26900 (2017) 162 (2012) 2960 172 185 328 409 1390 2710 3910 8480 14700
2026-04-30 22:30 4.41 703 88600 (2017) 162 (2012) 4650 178 201 307 388 1050 2970 3100 4820 39400
2026-04-30 22:00 4.42 708 88600 (2017) 162 (2012) 4650 178 201 307 388 1050 2970 3100 4820 39400
2026-04-30 21:30 4.44 719 88600 (2017) 162 (2012) 4650 178 201 307 388 1050 2970 3100 4820 39400
2026-04-30 21:00 4.46 729 88600 (2017) 162 (2012) 4650 178 201 307 388 1050 2970 3100 4820 39400
2026-04-30 20:30 4.47 734 88600 (2017) 162 (2012) 4650 178 201 307 388 1050 2970 3100 4820 39400
2026-04-30 20:00 4.49 745 88600 (2017) 162 (2012) 4650 178 201 307 388 1050 2970 3100 4820 39400
2026-04-30 19:30 4.51 756 88600 (2017) 162 (2012) 4650 178 201 307 388 1050 2970 3100 4820 39400
2026-04-30 19:00 4.53 766 88600 (2017) 162 (2012) 4650 178 201 307 388 1050 2970 3100 4820 39400
2026-04-30 18:30 4.55 777 88600 (2017) 162 (2012) 4650 178 201 307 388 1050 2970 3100 4820 39400
2026-04-30 18:00 4.57 788 88600 (2017) 162 (2012) 4650 178 201 307 388 1050 2970 3100 4820 39400
2026-04-30 17:30 4.60 804 88600 (2017) 162 (2012) 4650 178 201 307 388 1050 2970 3100 4820 39400
2026-04-30 17:00 4.62 815 88600 (2017) 162 (2012) 4650 178 201 307 388 1050 2970 3100 4820 39400
2026-04-30 16:30 4.63 821 88600 (2017) 162 (2012) 4650 178 201 307 388 1050 2970 3100 4820 39400
2026-04-30 16:00 4.66 838 88600 (2017) 162 (2012) 4650 178 201 307 388 1050 2970 3100 4820 39400
2026-04-30 15:30 4.67 844 88600 (2017) 162 (2012) 4650 178 201 307 388 1050 2970 3100 4820 39400
2026-04-30 15:00 4.69 855 88600 (2017) 162 (2012) 4650 178 201 307 388 1050 2970 3100 4820 39400
2026-04-30 14:30 4.71 866 88600 (2017) 162 (2012) 4650 178 201 307 388 1050 2970 3100 4820 39400
2026-04-30 14:00 4.74 884 88600 (2017) 162 (2012) 4650 178 201 307 388 1050 2970 3100 4820 39400
2026-04-30 13:30 4.75 889 88600 (2017) 162 (2012) 4650 178 201 307 388 1050 2970 3100 4820 39400
2026-04-30 13:00 4.78 907 88600 (2017) 162 (2012) 4650 178 201 307 388 1050 2970 3100 4820 39400
2026-04-30 12:30 4.80 919 88600 (2017) 162 (2012) 4650 178 201 307 388 1050 2970 3100 4820 39400
2026-04-30 12:00 4.82 931 88600 (2017) 162 (2012) 4650 178 201 307 388 1050 2970 3100 4820 39400
2026-04-30 11:30 4.85 949 88600 (2017) 162 (2012) 4650 178 201 307 388 1050 2970 3100 4820 39400
2026-04-30 11:00 4.86 955 88600 (2017) 162 (2012) 4650 178 201 307 388 1050 2970 3100 4820 39400
2026-04-30 10:30 4.85 949 88600 (2017) 162 (2012) 4650 178 201 307 388 1050 2970 3100 4820 39400
2026-04-30 10:00 4.91 985 88600 (2017) 162 (2012) 4650 178 201 307 388 1050 2970 3100 4820 39400
2026-04-30 09:30 4.94 1000 88600 (2017) 162 (2012) 4650 178 201 307 388 1050 2970 3100 4820 39400
2026-04-30 09:00 4.96 1020 88600 (2017) 162 (2012) 4650 178 201 307 388 1050 2970 3100 4820 39400
2026-04-30 08:30 4.99 1040 88600 (2017) 162 (2012) 4650 178 201 307 388 1050 2970 3100 4820 39400
2026-04-30 08:00 5.02 1050 88600 (2017) 162 (2012) 4650 178 201 307 388 1050 2970 3100 4820 39400
2026-04-30 07:30 5.04 1070 88600 (2017) 162 (2012) 4650 178 201 307 388 1050 2970 3100 4820 39400
2026-04-30 07:00 5.07 1090 88600 (2017) 162 (2012) 4650 178 201 307 388 1050 2970 3100 4820 39400
2026-04-30 06:30 5.10 1110 88600 (2017) 162 (2012) 4650 178 201 307 388 1050 2970 3100 4820 39400
2026-04-30 06:00 5.13 1130 88600 (2017) 162 (2012) 4650 178 201 307 388 1050 2970 3100 4820 39400
2026-04-30 05:30 5.14 1130 88600 (2017) 162 (2012) 4650 178 201 307 388 1050 2970 3100 4820 39400
2026-04-30 05:00 5.19 1170 88600 (2017) 162 (2012) 4650 178 201 307 388 1050 2970 3100 4820 39400
2026-04-30 04:30 5.22 1190 88600 (2017) 162 (2012) 4650 178 201 307 388 1050 2970 3100 4820 39400
2026-04-30 04:00 5.24 1200 88600 (2017) 162 (2012) 4650 178 201 307 388 1050 2970 3100 4820 39400
2026-04-30 03:30 5.28 1230 88600 (2017) 162 (2012) 4650 178 201 307 388 1050 2970 3100 4820 39400
2026-04-30 03:00 5.31 1250 88600 (2017) 162 (2012) 4650 178 201 307 388 1050 2970 3100 4820 39400
2026-04-30 02:30 5.34 1270 88600 (2017) 162 (2012) 4650 178 201 307 388 1050 2970 3100 4820 39400
2026-04-30 02:00 5.37 1290 88600 (2017) 162 (2012) 4650 178 201 307 388 1050 2970 3100 4820 39400
2026-04-30 01:30 5.40 1310 88600 (2017) 162 (2012) 4650 178 201 307 388 1050 2970 3100 4820 39400
2026-04-30 01:00 5.43 1330 88600 (2017) 162 (2012) 4650 178 201 307 388 1050 2970 3100 4820 39400
2026-04-30 00:30 5.46 1350 88600 (2017) 162 (2012) 4650 178 201 307 388 1050 2970 3100 4820 39400
2026-04-30 00:00 5.50 1380 88600 (2017) 162 (2012) 4650 178 201 307 388 1050 2970 3100 4820 39400
2026-04-29 23:30 5.53 1410 88600 (2017) 162 (2012) 4650 178 201 307 388 1050 2970 3100 4820 39400
2026-04-29 23:00 5.56 1430 88600 (2017) 162 (2012) 4650 178 201 307 388 1050 2970 3100 4820 39400
2026-04-29 22:30 5.58 1440 42600 (2017) 174 (2012) 3370 191 216 349 394 697 3530 4970 8730 19800
2026-04-29 22:00 5.60 1460 42600 (2017) 174 (2012) 3370 191 216 349 394 697 3530 4970 8730 19800
2026-04-29 21:30 5.62 1470 42600 (2017) 174 (2012) 3370 191 216 349 394 697 3530 4970 8730 19800
2026-04-29 21:00 5.64 1490 42600 (2017) 174 (2012) 3370 191 216 349 394 697 3530 4970 8730 19800
2026-04-29 20:30 5.65 1500 42600 (2017) 174 (2012) 3370 191 216 349 394 697 3530 4970 8730 19800
2026-04-29 20:00 5.65 1500 42600 (2017) 174 (2012) 3370 191 216 349 394 697 3530 4970 8730 19800
2026-04-29 19:30 5.65 1500 42600 (2017) 174 (2012) 3370 191 216 349 394 697 3530 4970 8730 19800
2026-04-29 19:00 5.64 1490 42600 (2017) 174 (2012) 3370 191 216 349 394 697 3530 4970 8730 19800
2026-04-29 18:30 5.61 1470 42600 (2017) 174 (2012) 3370 191 216 349 394 697 3530 4970 8730 19800
2026-04-29 18:00 5.57 1440 42600 (2017) 174 (2012) 3370 191 216 349 394 697 3530 4970 8730 19800
2026-04-29 17:30 5.49 1380 42600 (2017) 174 (2012) 3370 191 216 349 394 697 3530 4970 8730 19800
2026-04-29 17:00 5.42 1330 42600 (2017) 174 (2012) 3370 191 216 349 394 697 3530 4970 8730 19800
2026-04-29 16:30 5.36 1280 42600 (2017) 174 (2012) 3370 191 216 349 394 697 3530 4970 8730 19800
2026-04-29 16:00 5.22 1190 42600 (2017) 174 (2012) 3370 191 216 349 394 697 3530 4970 8730 19800
2026-04-29 15:30 5.12 1120 42600 (2017) 174 (2012) 3370 191 216 349 394 697 3530 4970 8730 19800
2026-04-29 15:00 5.03 1060 42600 (2017) 174 (2012) 3370 191 216 349 394 697 3530 4970 8730 19800
2026-04-29 14:30 4.96 1020 42600 (2017) 174 (2012) 3370 191 216 349 394 697 3530 4970 8730 19800
2026-04-29 14:00 4.88 967 42600 (2017) 174 (2012) 3370 191 216 349 394 697 3530 4970 8730 19800
2026-04-29 13:30 4.87 961 42600 (2017) 174 (2012) 3370 191 216 349 394 697 3530 4970 8730 19800
2026-04-29 13:00 4.80 919 42600 (2017) 174 (2012) 3370 191 216 349 394 697 3530 4970 8730 19800
2026-04-29 12:30 4.80 919 42600 (2017) 174 (2012) 3370 191 216 349 394 697 3530 4970 8730 19800
2026-04-29 12:00 4.79 913 42600 (2017) 174 (2012) 3370 191 216 349 394 697 3530 4970 8730 19800
2026-04-29 11:30 4.79 913 42600 (2017) 174 (2012) 3370 191 216 349 394 697 3530 4970 8730 19800
2026-04-29 11:00 4.77 901 42600 (2017) 174 (2012) 3370 191 216 349 394 697 3530 4970 8730 19800
2026-04-29 10:30 4.81 925 42600 (2017) 174 (2012) 3370 191 216 349 394 697 3530 4970 8730 19800
2026-04-29 10:00 4.82 931 42600 (2017) 174 (2012) 3370 191 216 349 394 697 3530 4970 8730 19800
2026-04-29 09:30 4.84 943 42600 (2017) 174 (2012) 3370 191 216 349 394 697 3530 4970 8730 19800
2026-04-29 09:00 4.87 961 42600 (2017) 174 (2012) 3370 191 216 349 394 697 3530 4970 8730 19800
2026-04-29 08:30 4.88 967 42600 (2017) 174 (2012) 3370 191 216 349 394 697 3530 4970 8730 19800
2026-04-29 08:00 4.91 985 42600 (2017) 174 (2012) 3370 191 216 349 394 697 3530 4970 8730 19800
2026-04-29 07:30 4.94 1000 42600 (2017) 174 (2012) 3370 191 216 349 394 697 3530 4970 8730 19800
2026-04-29 07:00 4.98 1030 42600 (2017) 174 (2012) 3370 191 216 349 394 697 3530 4970 8730 19800
2026-04-29 06:30 5.00 1040 42600 (2017) 174 (2012) 3370 191 216 349 394 697 3530 4970 8730 19800
2026-04-29 06:00 5.03 1060 42600 (2017) 174 (2012) 3370 191 216 349 394 697 3530 4970 8730 19800
2026-04-29 05:30 5.07 1090 42600 (2017) 174 (2012) 3370 191 216 349 394 697 3530 4970 8730 19800
2026-04-29 05:00 5.09 1100 42600 (2017) 174 (2012) 3370 191 216 349 394 697 3530 4970 8730 19800
2026-04-29 04:30 5.14 1130 42600 (2017) 174 (2012) 3370 191 216 349 394 697 3530 4970 8730 19800
2026-04-29 04:00 5.18 1160 42600 (2017) 174 (2012) 3370 191 216 349 394 697 3530 4970 8730 19800
2026-04-29 03:30 5.22 1190 42600 (2017) 174 (2012) 3370 191 216 349 394 697 3530 4970 8730 19800
2026-04-29 03:00 5.26 1210 42600 (2017) 174 (2012) 3370 191 216 349 394 697 3530 4970 8730 19800
2026-04-29 02:30 5.30 1240 42600 (2017) 174 (2012) 3370 191 216 349 394 697 3530 4970 8730 19800
2026-04-29 02:00 5.34 1270 42600 (2017) 174 (2012) 3370 191 216 349 394 697 3530 4970 8730 19800
2026-04-29 01:30 5.38 1300 42600 (2017) 174 (2012) 3370 191 216 349 394 697 3530 4970 8730 19800
2026-04-29 01:00 5.42 1330 42600 (2017) 174 (2012) 3370 191 216 349 394 697 3530 4970 8730 19800
2026-04-29 00:30 5.46 1350 42600 (2017) 174 (2012) 3370 191 216 349 394 697 3530 4970 8730 19800
2026-04-29 00:00 5.51 1390 42600 (2017) 174 (2012) 3370 191 216 349 394 697 3530 4970 8730 19800
2026-04-28 23:30 5.55 1420 42600 (2017) 174 (2012) 3370 191 216 349 394 697 3530 4970 8730 19800
2026-04-28 23:00 5.57 1440 42600 (2017) 174 (2012) 3370 191 216 349 394 697 3530 4970 8730 19800
2026-04-28 22:30 5.60 1460 19100 (2011) 188 (2012) 2290 200 240 379 442 699 2350 4000 7350 11400
2026-04-28 22:00 5.63 1480 19100 (2011) 188 (2012) 2290 200 240 379 442 699 2350 4000 7350 11400
2026-04-28 21:30 5.66 1510 19100 (2011) 188 (2012) 2290 200 240 379 442 699 2350 4000 7350 11400
2026-04-28 21:00 5.68 1520 19100 (2011) 188 (2012) 2290 200 240 379 442 699 2350 4000 7350 11400
2026-04-28 20:30 5.68 1520 19100 (2011) 188 (2012) 2290 200 240 379 442 699 2350 4000 7350 11400
2026-04-28 20:00 5.67 1510 19100 (2011) 188 (2012) 2290 200 240 379 442 699 2350 4000 7350 11400
2026-04-28 19:30 5.64 1490 19100 (2011) 188 (2012) 2290 200 240 379 442 699 2350 4000 7350 11400
2026-04-28 19:00 5.57 1440 19100 (2011) 188 (2012) 2290 200 240 379 442 699 2350 4000 7350 11400
2026-04-28 18:30 5.46 1350 19100 (2011) 188 (2012) 2290 200 240 379 442 699 2350 4000 7350 11400
2026-04-28 18:00 5.29 1230 19100 (2011) 188 (2012) 2290 200 240 379 442 699 2350 4000 7350 11400
2026-04-28 17:30 5.06 1080 19100 (2011) 188 (2012) 2290 200 240 379 442 699 2350 4000 7350 11400
2026-04-28 17:00 4.80 919 19100 (2011) 188 (2012) 2290 200 240 379 442 699 2350 4000 7350 11400
2026-04-28 16:30 4.53 766 19100 (2011) 188 (2012) 2290 200 240 379 442 699 2350 4000 7350 11400
2026-04-28 16:00 4.35 673 19100 (2011) 188 (2012) 2290 200 240 379 442 699 2350 4000 7350 11400
2026-04-28 15:30 4.25 624 19100 (2011) 188 (2012) 2290 200 240 379 442 699 2350 4000 7350 11400
2026-04-28 15:00 4.21 605 19100 (2011) 188 (2012) 2290 200 240 379 442 699 2350 4000 7350 11400
2026-04-28 14:30 4.19 595 19100 (2011) 188 (2012) 2290 200 240 379 442 699 2350 4000 7350 11400
2026-04-28 14:00 4.18 591 19100 (2011) 188 (2012) 2290 200 240 379 442 699 2350 4000 7350 11400
2026-04-28 13:30 4.18 591 19100 (2011) 188 (2012) 2290 200 240 379 442 699 2350 4000 7350 11400
2026-04-28 13:00 4.18 591 19100 (2011) 188 (2012) 2290 200 240 379 442 699 2350 4000 7350 11400
2026-04-28 12:30 4.17 586 19100 (2011) 188 (2012) 2290 200 240 379 442 699 2350 4000 7350 11400
2026-04-28 12:00 4.17 586 19100 (2011) 188 (2012) 2290 200 240 379 442 699 2350 4000 7350 11400
2026-04-28 11:30 4.16 581 19100 (2011) 188 (2012) 2290 200 240 379 442 699 2350 4000 7350 11400
2026-04-28 11:00 4.14 572 19100 (2011) 188 (2012) 2290 200 240 379 442 699 2350 4000 7350 11400
2026-04-28 10:30 4.12 563 19100 (2011) 188 (2012) 2290 200 240 379 442 699 2350 4000 7350 11400
2026-04-28 10:00 4.11 558 19100 (2011) 188 (2012) 2290 200 240 379 442 699 2350 4000 7350 11400
2026-04-28 09:30 4.10 554 19100 (2011) 188 (2012) 2290 200 240 379 442 699 2350 4000 7350 11400
2026-04-28 09:00 4.08 545 19100 (2011) 188 (2012) 2290 200 240 379 442 699 2350 4000 7350 11400
2026-04-28 08:30 4.07 540 19100 (2011) 188 (2012) 2290 200 240 379 442 699 2350 4000 7350 11400
2026-04-28 08:00 4.05 532 19100 (2011) 188 (2012) 2290 200 240 379 442 699 2350 4000 7350 11400
2026-04-28 07:30 4.04 527 19100 (2011) 188 (2012) 2290 200 240 379 442 699 2350 4000 7350 11400
2026-04-28 07:00 4.03 523 19100 (2011) 188 (2012) 2290 200 240 379 442 699 2350 4000 7350 11400
2026-04-28 06:30 4.02 518 19100 (2011) 188 (2012) 2290 200 240 379 442 699 2350 4000 7350 11400
2026-04-28 06:00 4.01 514 19100 (2011) 188 (2012) 2290 200 240 379 442 699 2350 4000 7350 11400
2026-04-28 05:30 4.01 514 19100 (2011) 188 (2012) 2290 200 240 379 442 699 2350 4000 7350 11400
2026-04-28 05:00 4.01 514 19100 (2011) 188 (2012) 2290 200 240 379 442 699 2350 4000 7350 11400
2026-04-28 04:30 4.01 514 19100 (2011) 188 (2012) 2290 200 240 379 442 699 2350 4000 7350 11400
2026-04-28 04:00 4.02 518 19100 (2011) 188 (2012) 2290 200 240 379 442 699 2350 4000 7350 11400
2026-04-28 03:30 4.03 523 19100 (2011) 188 (2012) 2290 200 240 379 442 699 2350 4000 7350 11400
2026-04-28 03:00 4.03 523 19100 (2011) 188 (2012) 2290 200 240 379 442 699 2350 4000 7350 11400
2026-04-28 02:30 4.04 527 19100 (2011) 188 (2012) 2290 200 240 379 442 699 2350 4000 7350 11400
2026-04-28 02:00 4.05 532 19100 (2011) 188 (2012) 2290 200 240 379 442 699 2350 4000 7350 11400
2026-04-28 01:30 4.05 532 19100 (2011) 188 (2012) 2290 200 240 379 442 699 2350 4000 7350 11400
2026-04-28 01:00 4.06 536 19100 (2011) 188 (2012) 2290 200 240 379 442 699 2350 4000 7350 11400
2026-04-28 00:30 4.07 540 19100 (2011) 188 (2012) 2290 200 240 379 442 699 2350 4000 7350 11400
2026-04-28 00:00 4.07 540 19100 (2011) 188 (2012) 2290 200 240 379 442 699 2350 4000 7350 11400
2026-04-27 23:30 4.08 545 19100 (2011) 188 (2012) 2290 200 240 379 442 699 2350 4000 7350 11400
2026-04-27 23:00 4.08 545 19100 (2011) 188 (2012) 2290 200 240 379 442 699 2350 4000 7350 11400
2026-04-27 22:00 4.07 540 18800 (2011) 206 (2012) 2050 219 266 370 469 759 1300 1480 4820 18000
2026-04-27 21:30 4.09 549 18800 (2011) 206 (2012) 2050 219 266 370 469 759 1300 1480 4820 18000
2026-04-27 21:00 4.07 540 18800 (2011) 206 (2012) 2050 219 266 370 469 759 1300 1480 4820 18000
2026-04-27 20:30 4.06 536 18800 (2011) 206 (2012) 2050 219 266 370 469 759 1300 1480 4820 18000
2026-04-27 20:00 4.11 558 18800 (2011) 206 (2012) 2050 219 266 370 469 759 1300 1480 4820 18000
2026-04-27 19:30 4.11 558 18800 (2011) 206 (2012) 2050 219 266 370 469 759 1300 1480 4820 18000
2026-04-27 19:00 4.11 558 18800 (2011) 206 (2012) 2050 219 266 370 469 759 1300 1480 4820 18000
2026-04-27 18:30 4.12 563 18800 (2011) 206 (2012) 2050 219 266 370 469 759 1300 1480 4820 18000
2026-04-27 18:00 4.11 558 18800 (2011) 206 (2012) 2050 219 266 370 469 759 1300 1480 4820 18000
2026-04-27 17:30 4.11 558 18800 (2011) 206 (2012) 2050 219 266 370 469 759 1300 1480 4820 18000
2026-04-27 17:00 4.11 558 18800 (2011) 206 (2012) 2050 219 266 370 469 759 1300 1480 4820 18000
2026-04-27 16:30 4.11 558 18800 (2011) 206 (2012) 2050 219 266 370 469 759 1300 1480 4820 18000
2026-04-27 16:00 4.11 558 18800 (2011) 206 (2012) 2050 219 266 370 469 759 1300 1480 4820 18000
2026-04-27 15:30 4.15 577 18800 (2011) 206 (2012) 2050 219 266 370 469 759 1300 1480 4820 18000
2026-04-27 15:00 4.13 567 18800 (2011) 206 (2012) 2050 219 266 370 469 759 1300 1480 4820 18000
2026-04-27 14:30 4.17 586 18800 (2011) 206 (2012) 2050 219 266 370 469 759 1300 1480 4820 18000
2026-04-27 14:00 4.18 591 18800 (2011) 206 (2012) 2050 219 266 370 469 759 1300 1480 4820 18000
2026-04-27 13:30 4.17 586 18800 (2011) 206 (2012) 2050 219 266 370 469 759 1300 1480 4820 18000
2026-04-27 13:00 4.19 595 18800 (2011) 206 (2012) 2050 219 266 370 469 759 1300 1480 4820 18000
2026-04-27 12:30 4.19 595 18800 (2011) 206 (2012) 2050 219 266 370 469 759 1300 1480 4820 18000
2026-04-27 12:00 4.16 581 18800 (2011) 206 (2012) 2050 219 266 370 469 759 1300 1480 4820 18000
2026-04-27 11:30 4.22 609 18800 (2011) 206 (2012) 2050 219 266 370 469 759 1300 1480 4820 18000
2026-04-27 11:00 4.23 614 18800 (2011) 206 (2012) 2050 219 266 370 469 759 1300 1480 4820 18000
2026-04-27 10:30 4.24 619 18800 (2011) 206 (2012) 2050 219 266 370 469 759 1300 1480 4820 18000
2026-04-27 10:00 4.25 624 18800 (2011) 206 (2012) 2050 219 266 370 469 759 1300 1480 4820 18000
2026-04-27 09:30 4.25 624 18800 (2011) 206 (2012) 2050 219 266 370 469 759 1300 1480 4820 18000
2026-04-27 09:00 4.26 629 18800 (2011) 206 (2012) 2050 219 266 370 469 759 1300 1480 4820 18000
2026-04-27 08:30 4.27 633 18800 (2011) 206 (2012) 2050 219 266 370 469 759 1300 1480 4820 18000
2026-04-27 08:00 4.28 638 18800 (2011) 206 (2012) 2050 219 266 370 469 759 1300 1480 4820 18000
2026-04-27 07:30 4.29 643 18800 (2011) 206 (2012) 2050 219 266 370 469 759 1300 1480 4820 18000
2026-04-27 07:00 4.30 648 18800 (2011) 206 (2012) 2050 219 266 370 469 759 1300 1480 4820 18000
2026-04-27 06:30 4.30 648 18800 (2011) 206 (2012) 2050 219 266 370 469 759 1300 1480 4820 18000
2026-04-27 06:00 4.32 658 18800 (2011) 206 (2012) 2050 219 266 370 469 759 1300 1480 4820 18000
2026-04-27 05:30 4.33 663 18800 (2011) 206 (2012) 2050 219 266 370 469 759 1300 1480 4820 18000
2026-04-27 05:00 4.34 668 18800 (2011) 206 (2012) 2050 219 266 370 469 759 1300 1480 4820 18000
2026-04-27 04:30 4.35 673 18800 (2011) 206 (2012) 2050 219 266 370 469 759 1300 1480 4820 18000
2026-04-27 04:00 4.36 678 18800 (2011) 206 (2012) 2050 219 266 370 469 759 1300 1480 4820 18000
2026-04-27 03:30 4.37 683 18800 (2011) 206 (2012) 2050 219 266 370 469 759 1300 1480 4820 18000
2026-04-27 03:00 4.38 688 18800 (2011) 206 (2012) 2050 219 266 370 469 759 1300 1480 4820 18000
2026-04-27 02:30 4.39 693 18800 (2011) 206 (2012) 2050 219 266 370 469 759 1300 1480 4820 18000
2026-04-27 02:00 4.41 703 18800 (2011) 206 (2012) 2050 219 266 370 469 759 1300 1480 4820 18000
2026-04-27 01:30 4.42 708 18800 (2011) 206 (2012) 2050 219 266 370 469 759 1300 1480 4820 18000
2026-04-27 01:00 4.43 714 18800 (2011) 206 (2012) 2050 219 266 370 469 759 1300 1480 4820 18000
2026-04-27 00:30 4.44 719 18800 (2011) 206 (2012) 2050 219 266 370 469 759 1300 1480 4820 18000
2026-04-27 00:00 4.45 724 18800 (2011) 206 (2012) 2050 219 266 370 469 759 1300 1480 4820 18000
2026-04-26 23:30 4.46 729 18800 (2011) 206 (2012) 2050 219 266 370 469 759 1300 1480 4820 18000
2026-04-26 23:00 4.47 734 18800 (2011) 206 (2012) 2050 219 266 370 469 759 1300 1480 4820 18000
2026-04-26 22:30 4.48 740 46100 (2011) 228 (2012) 2670 238 289 389 473 736 1870 1980 3050 20900
2026-04-26 22:00 4.50 750 46100 (2011) 228 (2012) 2670 238 289 389 473 736 1870 1980 3050 20900
2026-04-26 21:30 4.51 756 46100 (2011) 228 (2012) 2670 238 289 389 473 736 1870 1980 3050 20900
2026-04-26 21:00 4.52 761 46100 (2011) 228 (2012) 2670 238 289 389 473 736 1870 1980 3050 20900
2026-04-26 20:30 4.53 766 46100 (2011) 228 (2012) 2670 238 289 389 473 736 1870 1980 3050 20900
2026-04-26 20:00 4.54 772 46100 (2011) 228 (2012) 2670 238 289 389 473 736 1870 1980 3050 20900
2026-04-26 19:30 4.56 783 46100 (2011) 228 (2012) 2670 238 289 389 473 736 1870 1980 3050 20900
2026-04-26 19:00 4.57 788 46100 (2011) 228 (2012) 2670 238 289 389 473 736 1870 1980 3050 20900
2026-04-26 18:30 4.58 793 46100 (2011) 228 (2012) 2670 238 289 389 473 736 1870 1980 3050 20900
2026-04-26 18:00 4.59 799 46100 (2011) 228 (2012) 2670 238 289 389 473 736 1870 1980 3050 20900
2026-04-26 17:30 4.60 804 46100 (2011) 228 (2012) 2670 238 289 389 473 736 1870 1980 3050 20900
2026-04-26 17:00 4.62 815 46100 (2011) 228 (2012) 2670 238 289 389 473 736 1870 1980 3050 20900
2026-04-26 16:30 4.63 821 46100 (2011) 228 (2012) 2670 238 289 389 473 736 1870 1980 3050 20900
2026-04-26 16:00 4.64 827 46100 (2011) 228 (2012) 2670 238 289 389 473 736 1870 1980 3050 20900
2026-04-26 15:30 4.66 838 46100 (2011) 228 (2012) 2670 238 289 389 473 736 1870 1980 3050 20900
2026-04-26 15:00 4.67 844 46100 (2011) 228 (2012) 2670 238 289 389 473 736 1870 1980 3050 20900
2026-04-26 14:30 4.68 849 46100 (2011) 228 (2012) 2670 238 289 389 473 736 1870 1980 3050 20900
2026-04-26 14:00 4.69 855 46100 (2011) 228 (2012) 2670 238 289 389 473 736 1870 1980 3050 20900
2026-04-26 13:30 4.71 866 46100 (2011) 228 (2012) 2670 238 289 389 473 736 1870 1980 3050 20900
2026-04-26 13:00 4.72 872 46100 (2011) 228 (2012) 2670 238 289 389 473 736 1870 1980 3050 20900
2026-04-26 12:30 4.74 884 46100 (2011) 228 (2012) 2670 238 289 389 473 736 1870 1980 3050 20900
2026-04-26 12:00 4.75 889 46100 (2011) 228 (2012) 2670 238 289 389 473 736 1870 1980 3050 20900
2026-04-26 11:30 4.75 889 46100 (2011) 228 (2012) 2670 238 289 389 473 736 1870 1980 3050 20900
2026-04-26 11:00 4.78 907 46100 (2011) 228 (2012) 2670 238 289 389 473 736 1870 1980 3050 20900
2026-04-26 10:30 4.79 913 46100 (2011) 228 (2012) 2670 238 289 389 473 736 1870 1980 3050 20900
2026-04-26 10:00 4.81 925 46100 (2011) 228 (2012) 2670 238 289 389 473 736 1870 1980 3050 20900
2026-04-26 09:30 4.82 931 46100 (2011) 228 (2012) 2670 238 289 389 473 736 1870 1980 3050 20900
2026-04-26 09:00 4.83 937 46100 (2011) 228 (2012) 2670 238 289 389 473 736 1870 1980 3050 20900
2026-04-26 08:30 4.85 949 46100 (2011) 228 (2012) 2670 238 289 389 473 736 1870 1980 3050 20900
2026-04-26 08:00 4.87 961 46100 (2011) 228 (2012) 2670 238 289 389 473 736 1870 1980 3050 20900
2026-04-26 07:30 4.89 973 46100 (2011) 228 (2012) 2670 238 289 389 473 736 1870 1980 3050 20900
2026-04-26 07:00 4.90 979 46100 (2011) 228 (2012) 2670 238 289 389 473 736 1870 1980 3050 20900
2026-04-26 06:30 4.92 991 46100 (2011) 228 (2012) 2670 238 289 389 473 736 1870 1980 3050 20900
2026-04-26 06:00 4.94 1000 46100 (2011) 228 (2012) 2670 238 289 389 473 736 1870 1980 3050 20900
2026-04-26 05:30 4.95 1010 46100 (2011) 228 (2012) 2670 238 289 389 473 736 1870 1980 3050 20900
2026-04-26 05:00 4.97 1020 46100 (2011) 228 (2012) 2670 238 289 389 473 736 1870 1980 3050 20900
2026-04-26 04:30 4.99 1040 46100 (2011) 228 (2012) 2670 238 289 389 473 736 1870 1980 3050 20900
2026-04-26 04:00 5.00 1040 46100 (2011) 228 (2012) 2670 238 289 389 473 736 1870 1980 3050 20900
2026-04-26 03:30 5.02 1050 46100 (2011) 228 (2012) 2670 238 289 389 473 736 1870 1980 3050 20900
2026-04-26 03:00 5.03 1060 46100 (2011) 228 (2012) 2670 238 289 389 473 736 1870 1980 3050 20900
2026-04-26 02:30 5.05 1070 46100 (2011) 228 (2012) 2670 238 289 389 473 736 1870 1980 3050 20900
2026-04-26 02:00 5.07 1090 46100 (2011) 228 (2012) 2670 238 289 389 473 736 1870 1980 3050 20900
2026-04-26 01:30 5.08 1090 46100 (2011) 228 (2012) 2670 238 289 389 473 736 1870 1980 3050 20900
2026-04-26 01:00 5.10 1110 46100 (2011) 228 (2012) 2670 238 289 389 473 736 1870 1980 3050 20900
2026-04-26 00:30 5.12 1120 46100 (2011) 228 (2012) 2670 238 289 389 473 736 1870 1980 3050 20900
2026-04-26 00:00 5.13 1130 46100 (2011) 228 (2012) 2670 238 289 389 473 736 1870 1980 3050 20900
2026-04-25 23:30 5.14 1130 46100 (2011) 228 (2012) 2670 238 289 389 473 736 1870 1980 3050 20900
2026-04-25 23:00 5.15 1140 46100 (2011) 228 (2012) 2670 238 289 389 473 736 1870 1980 3050 20900
2026-04-25 22:30 5.16 1150 28900 (2011) 248 (2012) 2130 259 300 412 479 754 1370 2530 4080 12200
2026-04-25 22:00 5.17 1150 28900 (2011) 248 (2012) 2130 259 300 412 479 754 1370 2530 4080 12200
2026-04-25 21:30 5.19 1170 28900 (2011) 248 (2012) 2130 259 300 412 479 754 1370 2530 4080 12200
2026-04-25 21:00 5.20 1170 28900 (2011) 248 (2012) 2130 259 300 412 479 754 1370 2530 4080 12200
2026-04-25 20:30 5.21 1180 28900 (2011) 248 (2012) 2130 259 300 412 479 754 1370 2530 4080 12200
2026-04-25 20:00 5.22 1190 28900 (2011) 248 (2012) 2130 259 300 412 479 754 1370 2530 4080 12200
2026-04-25 19:30 5.23 1190 28900 (2011) 248 (2012) 2130 259 300 412 479 754 1370 2530 4080 12200
2026-04-25 19:00 5.24 1200 28900 (2011) 248 (2012) 2130 259 300 412 479 754 1370 2530 4080 12200
2026-04-25 18:30 5.25 1210 28900 (2011) 248 (2012) 2130 259 300 412 479 754 1370 2530 4080 12200
2026-04-25 18:00 5.26 1210 28900 (2011) 248 (2012) 2130 259 300 412 479 754 1370 2530 4080 12200
2026-04-25 17:30 5.27 1220 28900 (2011) 248 (2012) 2130 259 300 412 479 754 1370 2530 4080 12200
2026-04-25 17:00 5.27 1220 28900 (2011) 248 (2012) 2130 259 300 412 479 754 1370 2530 4080 12200
2026-04-25 16:30 5.28 1230 28900 (2011) 248 (2012) 2130 259 300 412 479 754 1370 2530 4080 12200
2026-04-25 16:00 5.29 1230 28900 (2011) 248 (2012) 2130 259 300 412 479 754 1370 2530 4080 12200
2026-04-25 15:30 5.30 1240 28900 (2011) 248 (2012) 2130 259 300 412 479 754 1370 2530 4080 12200
2026-04-25 15:00 5.31 1250 28900 (2011) 248 (2012) 2130 259 300 412 479 754 1370 2530 4080 12200
2026-04-25 14:30 5.31 1250 28900 (2011) 248 (2012) 2130 259 300 412 479 754 1370 2530 4080 12200
2026-04-25 14:00 5.32 1250 28900 (2011) 248 (2012) 2130 259 300 412 479 754 1370 2530 4080 12200
2026-04-25 13:30 5.33 1260 28900 (2011) 248 (2012) 2130 259 300 412 479 754 1370 2530 4080 12200
2026-04-25 13:00 5.33 1260 28900 (2011) 248 (2012) 2130 259 300 412 479 754 1370 2530 4080 12200
2026-04-25 12:30 5.34 1270 28900 (2011) 248 (2012) 2130 259 300 412 479 754 1370 2530 4080 12200
2026-04-25 12:00 5.34 1270 28900 (2011) 248 (2012) 2130 259 300 412 479 754 1370 2530 4080 12200
2026-04-25 11:30 5.34 1270 28900 (2011) 248 (2012) 2130 259 300 412 479 754 1370 2530 4080 12200
2026-04-25 11:00 5.35 1280 28900 (2011) 248 (2012) 2130 259 300 412 479 754 1370 2530 4080 12200
2026-04-25 10:30 5.32 1250 28900 (2011) 248 (2012) 2130 259 300 412 479 754 1370 2530 4080 12200
2026-04-25 10:00 5.35 1280 28900 (2011) 248 (2012) 2130 259 300 412 479 754 1370 2530 4080 12200
2026-04-25 09:30 5.34 1270 28900 (2011) 248 (2012) 2130 259 300 412 479 754 1370 2530 4080 12200
2026-04-25 09:00 5.34 1270 28900 (2011) 248 (2012) 2130 259 300 412 479 754 1370 2530 4080 12200
2026-04-25 08:30 5.33 1260 28900 (2011) 248 (2012) 2130 259 300 412 479 754 1370 2530 4080 12200
2026-04-25 08:00 5.32 1250 28900 (2011) 248 (2012) 2130 259 300 412 479 754 1370 2530 4080 12200
2026-04-25 07:30 5.31 1250 28900 (2011) 248 (2012) 2130 259 300 412 479 754 1370 2530 4080 12200
2026-04-25 07:00 5.30 1240 28900 (2011) 248 (2012) 2130 259 300 412 479 754 1370 2530 4080 12200
2026-04-25 06:30 5.29 1230 28900 (2011) 248 (2012) 2130 259 300 412 479 754 1370 2530 4080 12200
2026-04-25 06:00 5.27 1220 28900 (2011) 248 (2012) 2130 259 300 412 479 754 1370 2530 4080 12200
2026-04-25 05:30 5.25 1210 28900 (2011) 248 (2012) 2130 259 300 412 479 754 1370 2530 4080 12200
2026-04-25 05:00 5.23 1190 28900 (2011) 248 (2012) 2130 259 300 412 479 754 1370 2530 4080 12200
2026-04-25 04:30 5.20 1170 28900 (2011) 248 (2012) 2130 259 300 412 479 754 1370 2530 4080 12200
2026-04-25 04:00 5.17 1150 28900 (2011) 248 (2012) 2130 259 300 412 479 754 1370 2530 4080 12200
2026-04-25 03:30 5.13 1130 28900 (2011) 248 (2012) 2130 259 300 412 479 754 1370 2530 4080 12200
2026-04-25 03:00 5.09 1100 28900 (2011) 248 (2012) 2130 259 300 412 479 754 1370 2530 4080 12200
2026-04-25 02:30 5.04 1070 28900 (2011) 248 (2012) 2130 259 300 412 479 754 1370 2530 4080 12200
2026-04-25 02:00 5.00 1040 28900 (2011) 248 (2012) 2130 259 300 412 479 754 1370 2530 4080 12200
2026-04-25 01:30 4.96 1020 28900 (2011) 248 (2012) 2130 259 300 412 479 754 1370 2530 4080 12200
2026-04-25 01:00 4.92 991 28900 (2011) 248 (2012) 2130 259 300 412 479 754 1370 2530 4080 12200
2026-04-25 00:30 4.89 973 28900 (2011) 248 (2012) 2130 259 300 412 479 754 1370 2530 4080 12200
2026-04-25 00:00 4.86 955 28900 (2011) 248 (2012) 2130 259 300 412 479 754 1370 2530 4080 12200
2026-04-24 23:30 4.83 937 28900 (2011) 248 (2012) 2130 259 300 412 479 754 1370 2530 4080 12200
2026-04-24 23:00 4.80 919 28900 (2011) 248 (2012) 2130 259 300 412 479 754 1370 2530 4080 12200
2026-04-24 22:30 4.77 901 46000 (2011) 252 (2010) 2550 268 280 444 447 829 1370 1600 4330 17300
2026-04-24 22:00 4.73 878 46000 (2011) 252 (2010) 2550 268 280 444 447 829 1370 1600 4330 17300
2026-04-24 21:30 4.69 855 46000 (2011) 252 (2010) 2550 268 280 444 447 829 1370 1600 4330 17300
2026-04-24 21:00 4.65 832 46000 (2011) 252 (2010) 2550 268 280 444 447 829 1370 1600 4330 17300
2026-04-24 20:30 4.61 810 46000 (2011) 252 (2010) 2550 268 280 444 447 829 1370 1600 4330 17300
2026-04-24 20:00 4.57 788 46000 (2011) 252 (2010) 2550 268 280 444 447 829 1370 1600 4330 17300
2026-04-24 19:30 4.53 766 46000 (2011) 252 (2010) 2550 268 280 444 447 829 1370 1600 4330 17300
2026-04-24 19:00 4.49 745 46000 (2011) 252 (2010) 2550 268 280 444 447 829 1370 1600 4330 17300
2026-04-24 18:30 4.45 724 46000 (2011) 252 (2010) 2550 268 280 444 447 829 1370 1600 4330 17300
2026-04-24 18:00 4.41 703 46000 (2011) 252 (2010) 2550 268 280 444 447 829 1370 1600 4330 17300
2026-04-24 17:30 4.36 678 46000 (2011) 252 (2010) 2550 268 280 444 447 829 1370 1600 4330 17300
2026-04-24 17:00 4.31 653 46000 (2011) 252 (2010) 2550 268 280 444 447 829 1370 1600 4330 17300
2026-04-24 16:30 4.27 633 46000 (2011) 252 (2010) 2550 268 280 444 447 829 1370 1600 4330 17300
2026-04-24 16:00 4.23 614 46000 (2011) 252 (2010) 2550 268 280 444 447 829 1370 1600 4330 17300
2026-04-24 15:30 4.19 595 46000 (2011) 252 (2010) 2550 268 280 444 447 829 1370 1600 4330 17300
2026-04-24 15:00 4.16 581 46000 (2011) 252 (2010) 2550 268 280 444 447 829 1370 1600 4330 17300
2026-04-24 14:30 4.14 572 46000 (2011) 252 (2010) 2550 268 280 444 447 829 1370 1600 4330 17300
2026-04-24 14:00 4.08 545 46000 (2011) 252 (2010) 2550 268 280 444 447 829 1370 1600 4330 17300
2026-04-24 13:30 4.10 554 46000 (2011) 252 (2010) 2550 268 280 444 447 829 1370 1600 4330 17300
2026-04-24 13:00 4.05 532 46000 (2011) 252 (2010) 2550 268 280 444 447 829 1370 1600 4330 17300
2026-04-24 12:30 4.08 545 46000 (2011) 252 (2010) 2550 268 280 444 447 829 1370 1600 4330 17300
2026-04-24 12:00 4.06 536 46000 (2011) 252 (2010) 2550 268 280 444 447 829 1370 1600 4330 17300
2026-04-24 11:30 4.01 514 46000 (2011) 252 (2010) 2550 268 280 444 447 829 1370 1600 4330 17300
2026-04-24 11:00 4.05 532 46000 (2011) 252 (2010) 2550 268 280 444 447 829 1370 1600 4330 17300
2026-04-24 10:30 4.05 532 46000 (2011) 252 (2010) 2550 268 280 444 447 829 1370 1600 4330 17300
2026-04-24 10:00 4.04 527 46000 (2011) 252 (2010) 2550 268 280 444 447 829 1370 1600 4330 17300
2026-04-24 09:30 4.03 523 46000 (2011) 252 (2010) 2550 268 280 444 447 829 1370 1600 4330 17300
2026-04-24 09:00 3.99 505 46000 (2011) 252 (2010) 2550 268 280 444 447 829 1370 1600 4330 17300
2026-04-24 08:30 3.99 505 46000 (2011) 252 (2010) 2550 268 280 444 447 829 1370 1600 4330 17300
2026-04-24 08:00 4.00 510 46000 (2011) 252 (2010) 2550 268 280 444 447 829 1370 1600 4330 17300
2026-04-24 07:30 4.00 510 46000 (2011) 252 (2010) 2550 268 280 444 447 829 1370 1600 4330 17300
2026-04-24 07:00 3.99 505 46000 (2011) 252 (2010) 2550 268 280 444 447 829 1370 1600 4330 17300
2026-04-24 06:30 3.92 476 46000 (2011) 252 (2010) 2550 268 280 444 447 829 1370 1600 4330 17300
2026-04-24 06:00 3.98 501 46000 (2011) 252 (2010) 2550 268 280 444 447 829 1370 1600 4330 17300
2026-04-24 05:30 3.98 501 46000 (2011) 252 (2010) 2550 268 280 444 447 829 1370 1600 4330 17300
2026-04-24 05:00 3.99 505 46000 (2011) 252 (2010) 2550 268 280 444 447 829 1370 1600 4330 17300
2026-04-24 04:30 4.00 510 46000 (2011) 252 (2010) 2550 268 280 444 447 829 1370 1600 4330 17300
2026-04-24 04:00 4.01 514 46000 (2011) 252 (2010) 2550 268 280 444 447 829 1370 1600 4330 17300
2026-04-24 03:30 4.02 518 46000 (2011) 252 (2010) 2550 268 280 444 447 829 1370 1600 4330 17300
2026-04-24 03:00 4.02 518 46000 (2011) 252 (2010) 2550 268 280 444 447 829 1370 1600 4330 17300
2026-04-24 02:30 4.03 523 46000 (2011) 252 (2010) 2550 268 280 444 447 829 1370 1600 4330 17300
2026-04-24 02:00 4.04 527 46000 (2011) 252 (2010) 2550 268 280 444 447 829 1370 1600 4330 17300
2026-04-24 01:30 4.04 527 46000 (2011) 252 (2010) 2550 268 280 444 447 829 1370 1600 4330 17300
2026-04-24 01:00 4.05 532 46000 (2011) 252 (2010) 2550 268 280 444 447 829 1370 1600 4330 17300
2026-04-24 00:30 4.06 536 46000 (2011) 252 (2010) 2550 268 280 444 447 829 1370 1600 4330 17300
2026-04-24 00:00 4.06 536 46000 (2011) 252 (2010) 2550 268 280 444 447 829 1370 1600 4330 17300
2026-04-23 23:30 4.07 540 46000 (2011) 252 (2010) 2550 268 280 444 447 829 1370 1600 4330 17300
2026-04-23 23:00 4.07 540 46000 (2011) 252 (2010) 2550 268 280 444 447 829 1370 1600 4330 17300
2026-04-23 22:30 4.08 545 24500 (1996) 178 (2006) 2340 203 302 396 473 744 1530 1860 5090 19600
2026-04-23 22:00 4.09 549 24500 (1996) 178 (2006) 2340 203 302 396 473 744 1530 1860 5090 19600
2026-04-23 21:30 4.09 549 24500 (1996) 178 (2006) 2340 203 302 396 473 744 1530 1860 5090 19600
2026-04-23 21:00 4.10 554 24500 (1996) 178 (2006) 2340 203 302 396 473 744 1530 1860 5090 19600
2026-04-23 20:30 4.10 554 24500 (1996) 178 (2006) 2340 203 302 396 473 744 1530 1860 5090 19600
2026-04-23 20:00 4.10 554 24500 (1996) 178 (2006) 2340 203 302 396 473 744 1530 1860 5090 19600
2026-04-23 19:30 4.10 554 24500 (1996) 178 (2006) 2340 203 302 396 473 744 1530 1860 5090 19600
2026-04-23 19:00 4.11 558 24500 (1996) 178 (2006) 2340 203 302 396 473 744 1530 1860 5090 19600
2026-04-23 18:30 4.11 558 24500 (1996) 178 (2006) 2340 203 302 396 473 744 1530 1860 5090 19600
2026-04-23 18:00 4.12 563 24500 (1996) 178 (2006) 2340 203 302 396 473 744 1530 1860 5090 19600
2026-04-23 17:30 4.10 554 24500 (1996) 178 (2006) 2340 203 302 396 473 744 1530 1860 5090 19600
2026-04-23 17:00 4.11 558 24500 (1996) 178 (2006) 2340 203 302 396 473 744 1530 1860 5090 19600
2026-04-23 16:30 4.09 549 24500 (1996) 178 (2006) 2340 203 302 396 473 744 1530 1860 5090 19600
2026-04-23 16:00 4.13 567 24500 (1996) 178 (2006) 2340 203 302 396 473 744 1530 1860 5090 19600
2026-04-23 15:30 4.13 567 24500 (1996) 178 (2006) 2340 203 302 396 473 744 1530 1860 5090 19600
2026-04-23 15:00 4.11 558 24500 (1996) 178 (2006) 2340 203 302 396 473 744 1530 1860 5090 19600
2026-04-23 14:30 4.11 558 24500 (1996) 178 (2006) 2340 203 302 396 473 744 1530 1860 5090 19600
2026-04-23 14:00 4.13 567 24500 (1996) 178 (2006) 2340 203 302 396 473 744 1530 1860 5090 19600
2026-04-23 13:30 4.12 563 24500 (1996) 178 (2006) 2340 203 302 396 473 744 1530 1860 5090 19600
2026-04-23 13:00 4.12 563 24500 (1996) 178 (2006) 2340 203 302 396 473 744 1530 1860 5090 19600
2026-04-23 12:30 4.14 572 24500 (1996) 178 (2006) 2340 203 302 396 473 744 1530 1860 5090 19600
2026-04-23 12:00 4.18 591 24500 (1996) 178 (2006) 2340 203 302 396 473 744 1530 1860 5090 19600
2026-04-23 11:30 4.18 591 24500 (1996) 178 (2006) 2340 203 302 396 473 744 1530 1860 5090 19600
2026-04-23 11:00 4.19 595 24500 (1996) 178 (2006) 2340 203 302 396 473 744 1530 1860 5090 19600
2026-04-23 10:30 4.20 600 24500 (1996) 178 (2006) 2340 203 302 396 473 744 1530 1860 5090 19600
2026-04-23 10:00 4.21 605 24500 (1996) 178 (2006) 2340 203 302 396 473 744 1530 1860 5090 19600
2026-04-23 09:30 4.21 605 24500 (1996) 178 (2006) 2340 203 302 396 473 744 1530 1860 5090 19600
2026-04-23 09:00 4.22 609 24500 (1996) 178 (2006) 2340 203 302 396 473 744 1530 1860 5090 19600
2026-04-23 08:30 4.23 614 24500 (1996) 178 (2006) 2340 203 302 396 473 744 1530 1860 5090 19600
2026-04-23 08:00 4.24 619 24500 (1996) 178 (2006) 2340 203 302 396 473 744 1530 1860 5090 19600
2026-04-23 07:30 4.24 619 24500 (1996) 178 (2006) 2340 203 302 396 473 744 1530 1860 5090 19600
2026-04-23 07:00 4.25 624 24500 (1996) 178 (2006) 2340 203 302 396 473 744 1530 1860 5090 19600
2026-04-23 06:30 4.26 629 24500 (1996) 178 (2006) 2340 203 302 396 473 744 1530 1860 5090 19600
2026-04-23 06:00 4.27 633 24500 (1996) 178 (2006) 2340 203 302 396 473 744 1530 1860 5090 19600
2026-04-23 05:30 4.28 638 24500 (1996) 178 (2006) 2340 203 302 396 473 744 1530 1860 5090 19600
2026-04-23 05:00 4.29 643 24500 (1996) 178 (2006) 2340 203 302 396 473 744 1530 1860 5090 19600
2026-04-23 04:30 4.29 643 24500 (1996) 178 (2006) 2340 203 302 396 473 744 1530 1860 5090 19600
2026-04-23 04:00 4.30 648 24500 (1996) 178 (2006) 2340 203 302 396 473 744 1530 1860 5090 19600
2026-04-23 03:30 4.31 653 24500 (1996) 178 (2006) 2340 203 302 396 473 744 1530 1860 5090 19600
2026-04-23 03:00 4.32 658 24500 (1996) 178 (2006) 2340 203 302 396 473 744 1530 1860 5090 19600
2026-04-23 02:30 4.33 663 24500 (1996) 178 (2006) 2340 203 302 396 473 744 1530 1860 5090 19600
2026-04-23 02:00 4.34 668 24500 (1996) 178 (2006) 2340 203 302 396 473 744 1530 1860 5090 19600
2026-04-23 01:30 4.35 673 24500 (1996) 178 (2006) 2340 203 302 396 473 744 1530 1860 5090 19600
2026-04-23 01:00 4.36 678 24500 (1996) 178 (2006) 2340 203 302 396 473 744 1530 1860 5090 19600
2026-04-23 00:30 4.36 678 24500 (1996) 178 (2006) 2340 203 302 396 473 744 1530 1860 5090 19600
2026-04-23 00:00 4.37 683 24500 (1996) 178 (2006) 2340 203 302 396 473 744 1530 1860 5090 19600
2026-04-22 23:30 4.38 688 24500 (1996) 178 (2006) 2340 203 302 396 473 744 1530 1860 5090 19600
2026-04-22 23:00 4.38 688 24500 (1996) 178 (2006) 2340 203 302 396 473 744 1530 1860 5090 19600
2026-04-22 22:30 4.39 693 22400 (1996) 177 (2006) 2080 206 319 438 468 824 1930 2160 4620 12700
2026-04-22 22:00 4.40 698 22400 (1996) 177 (2006) 2080 206 319 438 468 824 1930 2160 4620 12700
2026-04-22 21:30 4.41 703 22400 (1996) 177 (2006) 2080 206 319 438 468 824 1930 2160 4620 12700
2026-04-22 21:00 4.42 708 22400 (1996) 177 (2006) 2080 206 319 438 468 824 1930 2160 4620 12700
2026-04-22 20:30 4.42 708 22400 (1996) 177 (2006) 2080 206 319 438 468 824 1930 2160 4620 12700
2026-04-22 20:00 4.43 714 22400 (1996) 177 (2006) 2080 206 319 438 468 824 1930 2160 4620 12700
2026-04-22 19:30 4.44 719 22400 (1996) 177 (2006) 2080 206 319 438 468 824 1930 2160 4620 12700
2026-04-22 19:00 4.45 724 22400 (1996) 177 (2006) 2080 206 319 438 468 824 1930 2160 4620 12700
2026-04-22 18:30 4.46 729 22400 (1996) 177 (2006) 2080 206 319 438 468 824 1930 2160 4620 12700
2026-04-22 18:00 4.47 734 22400 (1996) 177 (2006) 2080 206 319 438 468 824 1930 2160 4620 12700
2026-04-22 17:30 4.48 740 22400 (1996) 177 (2006) 2080 206 319 438 468 824 1930 2160 4620 12700
2026-04-22 17:00 4.46 729 22400 (1996) 177 (2006) 2080 206 319 438 468 824 1930 2160 4620 12700
2026-04-22 16:30 4.50 750 22400 (1996) 177 (2006) 2080 206 319 438 468 824 1930 2160 4620 12700
2026-04-22 16:00 4.49 745 22400 (1996) 177 (2006) 2080 206 319 438 468 824 1930 2160 4620 12700
2026-04-22 15:30 4.48 740 22400 (1996) 177 (2006) 2080 206 319 438 468 824 1930 2160 4620 12700
2026-04-22 15:00 4.53 766 22400 (1996) 177 (2006) 2080 206 319 438 468 824 1930 2160 4620 12700
2026-04-22 14:30 4.54 772 22400 (1996) 177 (2006) 2080 206 319 438 468 824 1930 2160 4620 12700
2026-04-22 14:00 4.55 777 22400 (1996) 177 (2006) 2080 206 319 438 468 824 1930 2160 4620 12700
2026-04-22 13:30 4.56 783 22400 (1996) 177 (2006) 2080 206 319 438 468 824 1930 2160 4620 12700
2026-04-22 13:00 4.54 772 22400 (1996) 177 (2006) 2080 206 319 438 468 824 1930 2160 4620 12700
2026-04-22 12:30 4.55 777 22400 (1996) 177 (2006) 2080 206 319 438 468 824 1930 2160 4620 12700
2026-04-22 12:00 4.57 788 22400 (1996) 177 (2006) 2080 206 319 438 468 824 1930 2160 4620 12700
2026-04-22 11:30 4.56 783 22400 (1996) 177 (2006) 2080 206 319 438 468 824 1930 2160 4620 12700
2026-04-22 11:00 4.58 793 22400 (1996) 177 (2006) 2080 206 319 438 468 824 1930 2160 4620 12700
2026-04-22 10:30 4.58 793 22400 (1996) 177 (2006) 2080 206 319 438 468 824 1930 2160 4620 12700
2026-04-22 10:00 4.58 793 22400 (1996) 177 (2006) 2080 206 319 438 468 824 1930 2160 4620 12700
2026-04-22 09:30 4.59 799 22400 (1996) 177 (2006) 2080 206 319 438 468 824 1930 2160 4620 12700
2026-04-22 09:00 4.64 827 22400 (1996) 177 (2006) 2080 206 319 438 468 824 1930 2160 4620 12700
2026-04-22 08:30 4.65 832 22400 (1996) 177 (2006) 2080 206 319 438 468 824 1930 2160 4620 12700
2026-04-22 08:00 4.66 838 22400 (1996) 177 (2006) 2080 206 319 438 468 824 1930 2160 4620 12700
2026-04-22 07:30 4.68 849 22400 (1996) 177 (2006) 2080 206 319 438 468 824 1930 2160 4620 12700
2026-04-22 07:00 4.69 855 22400 (1996) 177 (2006) 2080 206 319 438 468 824 1930 2160 4620 12700
2026-04-22 06:30 4.71 866 22400 (1996) 177 (2006) 2080 206 319 438 468 824 1930 2160 4620 12700
2026-04-22 06:00 4.72 872 22400 (1996) 177 (2006) 2080 206 319 438 468 824 1930 2160 4620 12700
2026-04-22 05:30 4.73 878 22400 (1996) 177 (2006) 2080 206 319 438 468 824 1930 2160 4620 12700
2026-04-22 05:00 4.74 884 22400 (1996) 177 (2006) 2080 206 319 438 468 824 1930 2160 4620 12700
2026-04-22 04:30 4.75 889 22400 (1996) 177 (2006) 2080 206 319 438 468 824 1930 2160 4620 12700
2026-04-22 04:00 4.77 901 22400 (1996) 177 (2006) 2080 206 319 438 468 824 1930 2160 4620 12700
2026-04-22 03:30 4.78 907 22400 (1996) 177 (2006) 2080 206 319 438 468 824 1930 2160 4620 12700
2026-04-22 03:00 4.79 913 22400 (1996) 177 (2006) 2080 206 319 438 468 824 1930 2160 4620 12700
2026-04-22 02:30 4.81 925 22400 (1996) 177 (2006) 2080 206 319 438 468 824 1930 2160 4620 12700
2026-04-22 02:00 4.82 931 22400 (1996) 177 (2006) 2080 206 319 438 468 824 1930 2160 4620 12700
2026-04-22 01:30 4.83 937 22400 (1996) 177 (2006) 2080 206 319 438 468 824 1930 2160 4620 12700
2026-04-22 01:00 4.85 949 22400 (1996) 177 (2006) 2080 206 319 438 468 824 1930 2160 4620 12700
2026-04-22 00:30 4.86 955 22400 (1996) 177 (2006) 2080 206 319 438 468 824 1930 2160 4620 12700
2026-04-22 00:00 4.87 961 22400 (1996) 177 (2006) 2080 206 319 438 468 824 1930 2160 4620 12700
2026-04-21 23:30 4.88 967 22400 (1996) 177 (2006) 2080 206 319 438 468 824 1930 2160 4620 12700
2026-04-21 23:00 4.89 973 22400 (1996) 177 (2006) 2080 206 319 438 468 824 1930 2160 4620 12700
2026-04-21 22:30 4.91 985 10800 (2025) 193 (2006) 1850 217 299 372 486 808 2080 2870 5770 8330
2026-04-21 22:00 4.93 998 10800 (2025) 193 (2006) 1850 217 299 372 486 808 2080 2870 5770 8330
2026-04-21 21:30 4.94 1000 10800 (2025) 193 (2006) 1850 217 299 372 486 808 2080 2870 5770 8330
2026-04-21 21:00 4.95 1010 10800 (2025) 193 (2006) 1850 217 299 372 486 808 2080 2870 5770 8330
2026-04-21 20:30 4.96 1020 10800 (2025) 193 (2006) 1850 217 299 372 486 808 2080 2870 5770 8330
2026-04-21 20:00 4.98 1030 10800 (2025) 193 (2006) 1850 217 299 372 486 808 2080 2870 5770 8330
2026-04-21 19:30 4.99 1040 10800 (2025) 193 (2006) 1850 217 299 372 486 808 2080 2870 5770 8330
2026-04-21 19:00 4.98 1030 10800 (2025) 193 (2006) 1850 217 299 372 486 808 2080 2870 5770 8330
2026-04-21 18:30 5.00 1040 10800 (2025) 193 (2006) 1850 217 299 372 486 808 2080 2870 5770 8330
2026-04-21 18:00 5.03 1060 10800 (2025) 193 (2006) 1850 217 299 372 486 808 2080 2870 5770 8330
2026-04-21 17:30 5.04 1070 10800 (2025) 193 (2006) 1850 217 299 372 486 808 2080 2870 5770 8330
2026-04-21 17:00 5.01 1050 10800 (2025) 193 (2006) 1850 217 299 372 486 808 2080 2870 5770 8330
2026-04-21 16:30 5.06 1080 10800 (2025) 193 (2006) 1850 217 299 372 486 808 2080 2870 5770 8330
2026-04-21 16:00 5.07 1090 10800 (2025) 193 (2006) 1850 217 299 372 486 808 2080 2870 5770 8330
2026-04-21 15:30 5.09 1100 10800 (2025) 193 (2006) 1850 217 299 372 486 808 2080 2870 5770 8330
2026-04-21 15:00 5.08 1090 10800 (2025) 193 (2006) 1850 217 299 372 486 808 2080 2870 5770 8330
2026-04-21 14:30 5.10 1110 10800 (2025) 193 (2006) 1850 217 299 372 486 808 2080 2870 5770 8330
2026-04-21 14:00 5.12 1120 10800 (2025) 193 (2006) 1850 217 299 372 486 808 2080 2870 5770 8330
2026-04-21 13:30 5.14 1130 10800 (2025) 193 (2006) 1850 217 299 372 486 808 2080 2870 5770 8330
2026-04-21 13:00 5.16 1150 10800 (2025) 193 (2006) 1850 217 299 372 486 808 2080 2870 5770 8330
2026-04-21 12:30 5.18 1160 10800 (2025) 193 (2006) 1850 217 299 372 486 808 2080 2870 5770 8330
2026-04-21 12:00 5.19 1170 10800 (2025) 193 (2006) 1850 217 299 372 486 808 2080 2870 5770 8330
2026-04-21 11:30 5.19 1170 10800 (2025) 193 (2006) 1850 217 299 372 486 808 2080 2870 5770 8330
2026-04-21 11:00 5.20 1170 10800 (2025) 193 (2006) 1850 217 299 372 486 808 2080 2870 5770 8330
2026-04-21 10:30 5.27 1220 10800 (2025) 193 (2006) 1850 217 299 372 486 808 2080 2870 5770 8330
2026-04-21 10:00 5.28 1230 10800 (2025) 193 (2006) 1850 217 299 372 486 808 2080 2870 5770 8330
2026-04-21 09:30 5.30 1240 10800 (2025) 193 (2006) 1850 217 299 372 486 808 2080 2870 5770 8330
2026-04-21 09:00 5.31 1250 10800 (2025) 193 (2006) 1850 217 299 372 486 808 2080 2870 5770 8330
2026-04-21 08:30 5.33 1260 10800 (2025) 193 (2006) 1850 217 299 372 486 808 2080 2870 5770 8330
2026-04-21 08:00 5.34 1270 10800 (2025) 193 (2006) 1850 217 299 372 486 808 2080 2870 5770 8330
2026-04-21 07:30 5.36 1280 10800 (2025) 193 (2006) 1850 217 299 372 486 808 2080 2870 5770 8330
2026-04-21 07:00 5.38 1300 10800 (2025) 193 (2006) 1850 217 299 372 486 808 2080 2870 5770 8330
2026-04-21 06:30 5.40 1310 10800 (2025) 193 (2006) 1850 217 299 372 486 808 2080 2870 5770 8330
2026-04-21 06:00 5.42 1330 10800 (2025) 193 (2006) 1850 217 299 372 486 808 2080 2870 5770 8330
2026-04-21 05:30 5.43 1330 10800 (2025) 193 (2006) 1850 217 299 372 486 808 2080 2870 5770 8330
2026-04-21 05:00 5.45 1350 10800 (2025) 193 (2006) 1850 217 299 372 486 808 2080 2870 5770 8330
2026-04-21 04:30 5.47 1360 10800 (2025) 193 (2006) 1850 217 299 372 486 808 2080 2870 5770 8330
2026-04-21 04:00 5.49 1380 10800 (2025) 193 (2006) 1850 217 299 372 486 808 2080 2870 5770 8330
2026-04-21 03:30 5.50 1380 10800 (2025) 193 (2006) 1850 217 299 372 486 808 2080 2870 5770 8330
2026-04-21 03:00 5.53 1410 10800 (2025) 193 (2006) 1850 217 299 372 486 808 2080 2870 5770 8330
2026-04-21 02:30 5.55 1420 10800 (2025) 193 (2006) 1850 217 299 372 486 808 2080 2870 5770 8330
2026-04-21 02:00 5.57 1440 10800 (2025) 193 (2006) 1850 217 299 372 486 808 2080 2870 5770 8330
2026-04-21 01:30 5.58 1440 10800 (2025) 193 (2006) 1850 217 299 372 486 808 2080 2870 5770 8330
2026-04-21 01:00 5.60 1460 10800 (2025) 193 (2006) 1850 217 299 372 486 808 2080 2870 5770 8330
2026-04-21 00:30 5.63 1480 10800 (2025) 193 (2006) 1850 217 299 372 486 808 2080 2870 5770 8330
2026-04-21 00:00 5.65 1500 10800 (2025) 193 (2006) 1850 217 299 372 486 808 2080 2870 5770 8330
2026-04-20 23:30 5.67 1510 10800 (2025) 193 (2006) 1850 217 299 372 486 808 2080 2870 5770 8330
2026-04-20 23:00 5.69 1530 10800 (2025) 193 (2006) 1850 217 299 372 486 808 2080 2870 5770 8330
2026-04-20 22:30 5.71 1540 17100 (1992) 210 (2006) 2000 212 295 384 402 734 1460 2390 5060 13500
2026-04-20 22:00 5.73 1560 17100 (1992) 210 (2006) 2000 212 295 384 402 734 1460 2390 5060 13500
2026-04-20 21:30 5.76 1580 17100 (1992) 210 (2006) 2000 212 295 384 402 734 1460 2390 5060 13500
2026-04-20 21:00 5.78 1600 17100 (1992) 210 (2006) 2000 212 295 384 402 734 1460 2390 5060 13500
2026-04-20 20:30 5.80 1620 17100 (1992) 210 (2006) 2000 212 295 384 402 734 1460 2390 5060 13500
2026-04-20 20:00 5.82 1630 17100 (1992) 210 (2006) 2000 212 295 384 402 734 1460 2390 5060 13500
2026-04-20 19:30 5.85 1660 17100 (1992) 210 (2006) 2000 212 295 384 402 734 1460 2390 5060 13500
2026-04-20 19:00 5.88 1680 17100 (1992) 210 (2006) 2000 212 295 384 402 734 1460 2390 5060 13500
2026-04-20 18:30 5.90 1700 17100 (1992) 210 (2006) 2000 212 295 384 402 734 1460 2390 5060 13500
2026-04-20 18:00 5.92 1710 17100 (1992) 210 (2006) 2000 212 295 384 402 734 1460 2390 5060 13500
2026-04-20 17:30 5.95 1740 17100 (1992) 210 (2006) 2000 212 295 384 402 734 1460 2390 5060 13500
2026-04-20 17:00 5.98 1760 17100 (1992) 210 (2006) 2000 212 295 384 402 734 1460 2390 5060 13500
2026-04-20 16:30 6.01 1790 17100 (1992) 210 (2006) 2000 212 295 384 402 734 1460 2390 5060 13500
2026-04-20 16:00 6.03 1810 17100 (1992) 210 (2006) 2000 212 295 384 402 734 1460 2390 5060 13500
2026-04-20 15:30 6.06 1830 17100 (1992) 210 (2006) 2000 212 295 384 402 734 1460 2390 5060 13500
2026-04-20 15:00 6.08 1850 17100 (1992) 210 (2006) 2000 212 295 384 402 734 1460 2390 5060 13500
2026-04-20 14:30 6.11 1870 17100 (1992) 210 (2006) 2000 212 295 384 402 734 1460 2390 5060 13500
2026-04-20 14:00 6.14 1900 17100 (1992) 210 (2006) 2000 212 295 384 402 734 1460 2390 5060 13500
2026-04-20 13:30 6.16 1920 17100 (1992) 210 (2006) 2000 212 295 384 402 734 1460 2390 5060 13500
2026-04-20 13:00 6.19 1940 17100 (1992) 210 (2006) 2000 212 295 384 402 734 1460 2390 5060 13500
2026-04-20 12:30 6.21 1960 17100 (1992) 210 (2006) 2000 212 295 384 402 734 1460 2390 5060 13500
2026-04-20 12:00 6.24 1990 17100 (1992) 210 (2006) 2000 212 295 384 402 734 1460 2390 5060 13500
2026-04-20 11:30 6.27 2020 17100 (1992) 210 (2006) 2000 212 295 384 402 734 1460 2390 5060 13500
2026-04-20 11:00 6.30 2040 17100 (1992) 210 (2006) 2000 212 295 384 402 734 1460 2390 5060 13500
2026-04-20 10:30 6.32 2060 17100 (1992) 210 (2006) 2000 212 295 384 402 734 1460 2390 5060 13500
2026-04-20 10:00 6.35 2090 17100 (1992) 210 (2006) 2000 212 295 384 402 734 1460 2390 5060 13500
2026-04-20 09:30 6.38 2120 17100 (1992) 210 (2006) 2000 212 295 384 402 734 1460 2390 5060 13500
2026-04-20 09:00 6.41 2140 17100 (1992) 210 (2006) 2000 212 295 384 402 734 1460 2390 5060 13500
2026-04-20 08:30 6.44 2170 17100 (1992) 210 (2006) 2000 212 295 384 402 734 1460 2390 5060 13500
2026-04-20 08:00 6.47 2200 17100 (1992) 210 (2006) 2000 212 295 384 402 734 1460 2390 5060 13500
2026-04-20 07:30 6.50 2230 17100 (1992) 210 (2006) 2000 212 295 384 402 734 1460 2390 5060 13500
2026-04-20 07:00 6.54 2270 17100 (1992) 210 (2006) 2000 212 295 384 402 734 1460 2390 5060 13500
2026-04-20 06:30 6.57 2300 17100 (1992) 210 (2006) 2000 212 295 384 402 734 1460 2390 5060 13500
2026-04-20 06:00 6.60 2330 17100 (1992) 210 (2006) 2000 212 295 384 402 734 1460 2390 5060 13500
2026-04-20 05:30 6.64 2370 17100 (1992) 210 (2006) 2000 212 295 384 402 734 1460 2390 5060 13500
2026-04-20 05:00 6.67 2390 17100 (1992) 210 (2006) 2000 212 295 384 402 734 1460 2390 5060 13500
2026-04-20 04:30 6.71 2430 17100 (1992) 210 (2006) 2000 212 295 384 402 734 1460 2390 5060 13500
2026-04-20 04:00 6.75 2470 17100 (1992) 210 (2006) 2000 212 295 384 402 734 1460 2390 5060 13500
2026-04-20 03:30 6.78 2510 17100 (1992) 210 (2006) 2000 212 295 384 402 734 1460 2390 5060 13500
2026-04-20 03:00 6.82 2550 17100 (1992) 210 (2006) 2000 212 295 384 402 734 1460 2390 5060 13500
2026-04-20 02:30 6.86 2590 17100 (1992) 210 (2006) 2000 212 295 384 402 734 1460 2390 5060 13500
2026-04-20 02:00 6.90 2630 17100 (1992) 210 (2006) 2000 212 295 384 402 734 1460 2390 5060 13500
2026-04-20 01:30 6.93 2660 17100 (1992) 210 (2006) 2000 212 295 384 402 734 1460 2390 5060 13500
2026-04-20 01:00 6.97 2700 17100 (1992) 210 (2006) 2000 212 295 384 402 734 1460 2390 5060 13500
2026-04-20 00:30 7.02 2760 17100 (1992) 210 (2006) 2000 212 295 384 402 734 1460 2390 5060 13500
2026-04-20 00:00 7.06 2800 17100 (1992) 210 (2006) 2000 212 295 384 402 734 1460 2390 5060 13500
2026-04-19 23:30 7.10 2840 17100 (1992) 210 (2006) 2000 212 295 384 402 734 1460 2390 5060 13500
2026-04-19 23:00 7.15 2900 17100 (1992) 210 (2006) 2000 212 295 384 402 734 1460 2390 5060 13500
2026-04-19 22:30 7.20 2950 11200 (2013) 195 (1995) 1550 223 267 400 430 718 1290 1520 4510 9570
2026-04-19 22:00 7.24 3000 11200 (2013) 195 (1995) 1550 223 267 400 430 718 1290 1520 4510 9570
2026-04-19 21:30 7.29 3050 11200 (2013) 195 (1995) 1550 223 267 400 430 718 1290 1520 4510 9570
2026-04-19 21:00 7.34 3110 11200 (2013) 195 (1995) 1550 223 267 400 430 718 1290 1520 4510 9570
2026-04-19 20:30 7.39 3170 11200 (2013) 195 (1995) 1550 223 267 400 430 718 1290 1520 4510 9570
2026-04-19 20:00 7.44 3220 11200 (2013) 195 (1995) 1550 223 267 400 430 718 1290 1520 4510 9570
2026-04-19 19:30 7.49 3280 11200 (2013) 195 (1995) 1550 223 267 400 430 718 1290 1520 4510 9570
2026-04-19 19:00 7.55 3350 11200 (2013) 195 (1995) 1550 223 267 400 430 718 1290 1520 4510 9570
2026-04-19 18:30 7.58 3390 11200 (2013) 195 (1995) 1550 223 267 400 430 718 1290 1520 4510 9570
2026-04-19 18:00 7.66 3490 11200 (2013) 195 (1995) 1550 223 267 400 430 718 1290 1520 4510 9570
2026-04-19 17:30 7.70 3530 11200 (2013) 195 (1995) 1550 223 267 400 430 718 1290 1520 4510 9570
2026-04-19 17:00 7.78 3630 11200 (2013) 195 (1995) 1550 223 267 400 430 718 1290 1520 4510 9570
2026-04-19 16:30 7.81 3670 11200 (2013) 195 (1995) 1550 223 267 400 430 718 1290 1520 4510 9570
2026-04-19 16:00 7.91 3800 11200 (2013) 195 (1995) 1550 223 267 400 430 718 1290 1520 4510 9570
2026-04-19 15:30 7.92 3810 11200 (2013) 195 (1995) 1550 223 267 400 430 718 1290 1520 4510 9570
2026-04-19 15:00 7.99 3900 11200 (2013) 195 (1995) 1550 223 267 400 430 718 1290 1520 4510 9570
2026-04-19 14:30 8.08 4010 11200 (2013) 195 (1995) 1550 223 267 400 430 718 1290 1520 4510 9570
2026-04-19 14:00 8.17 4130 11200 (2013) 195 (1995) 1550 223 267 400 430 718 1290 1520 4510 9570
2026-04-19 13:30 8.22 4200 11200 (2013) 195 (1995) 1550 223 267 400 430 718 1290 1520 4510 9570
2026-04-19 13:00 8.30 4310 11200 (2013) 195 (1995) 1550 223 267 400 430 718 1290 1520 4510 9570
2026-04-19 12:30 8.37 4400 11200 (2013) 195 (1995) 1550 223 267 400 430 718 1290 1520 4510 9570
2026-04-19 12:00 8.43 4490 11200 (2013) 195 (1995) 1550 223 267 400 430 718 1290 1520 4510 9570
2026-04-19 11:30 8.51 4600 11200 (2013) 195 (1995) 1550 223 267 400 430 718 1290 1520 4510 9570
2026-04-19 11:00 8.55 4650 11200 (2013) 195 (1995) 1550 223 267 400 430 718 1290 1520 4510 9570
2026-04-19 10:30 8.65 4800 11200 (2013) 195 (1995) 1550 223 267 400 430 718 1290 1520 4510 9570
2026-04-19 10:00 8.73 4910 11200 (2013) 195 (1995) 1550 223 267 400 430 718 1290 1520 4510 9570
2026-04-19 09:30 8.80 5020 11200 (2013) 195 (1995) 1550 223 267 400 430 718 1290 1520 4510 9570
2026-04-19 09:00 8.88 5130 11200 (2013) 195 (1995) 1550 223 267 400 430 718 1290 1520 4510 9570
2026-04-19 08:30 8.95 5240 11200 (2013) 195 (1995) 1550 223 267 400 430 718 1290 1520 4510 9570
2026-04-19 08:00 9.03 5360 11200 (2013) 195 (1995) 1550 223 267 400 430 718 1290 1520 4510 9570
2026-04-19 07:30 9.11 5470 11200 (2013) 195 (1995) 1550 223 267 400 430 718 1290 1520 4510 9570
2026-04-19 07:00 9.18 5570 11200 (2013) 195 (1995) 1550 223 267 400 430 718 1290 1520 4510 9570
2026-04-19 06:30 9.26 5690 11200 (2013) 195 (1995) 1550 223 267 400 430 718 1290 1520 4510 9570
2026-04-19 06:00 9.31 5770 11200 (2013) 195 (1995) 1550 223 267 400 430 718 1290 1520 4510 9570
2026-04-19 05:30 9.39 5880 11200 (2013) 195 (1995) 1550 223 267 400 430 718 1290 1520 4510 9570
2026-04-19 05:00 9.46 5990 11200 (2013) 195 (1995) 1550 223 267 400 430 718 1290 1520 4510 9570
2026-04-19 04:30 9.52 6080 11200 (2013) 195 (1995) 1550 223 267 400 430 718 1290 1520 4510 9570
2026-04-19 04:00 9.59 6190 11200 (2013) 195 (1995) 1550 223 267 400 430 718 1290 1520 4510 9570
2026-04-19 03:30 9.65 6280 11200 (2013) 195 (1995) 1550 223 267 400 430 718 1290 1520 4510 9570
2026-04-19 03:00 9.72 6390 11200 (2013) 195 (1995) 1550 223 267 400 430 718 1290 1520 4510 9570
2026-04-19 02:30 9.77 6470 11200 (2013) 195 (1995) 1550 223 267 400 430 718 1290 1520 4510 9570
2026-04-19 02:00 9.83 6560 11200 (2013) 195 (1995) 1550 223 267 400 430 718 1290 1520 4510 9570
2026-04-19 01:30 9.88 6640 11200 (2013) 195 (1995) 1550 223 267 400 430 718 1290 1520 4510 9570
2026-04-19 01:00 9.93 6720 11200 (2013) 195 (1995) 1550 223 267 400 430 718 1290 1520 4510 9570
2026-04-19 00:00 10.04 6900 11200 (2013) 195 (1995) 1550 223 267 400 430 718 1290 1520 4510 9570
2026-04-18 23:30 10.10 7000 11200 (2013) 195 (1995) 1550 223 267 400 430 718 1290 1520 4510 9570
2026-04-18 23:00 10.15 7080 11200 (2013) 195 (1995) 1550 223 267 400 430 718 1290 1520 4510 9570
2026-04-18 22:30 10.21 7180 2890 (1992) 200 (1995) 886 242 281 421 450 655 1220 1250 2010 2400
2026-04-18 22:00 10.27 7280 2890 (1992) 200 (1995) 886 242 281 421 450 655 1220 1250 2010 2400
2026-04-18 21:30 10.32 7370 2890 (1992) 200 (1995) 886 242 281 421 450 655 1220 1250 2010 2400
2026-04-18 21:00 10.37 7450 2890 (1992) 200 (1995) 886 242 281 421 450 655 1220 1250 2010 2400
2026-04-18 20:30 10.41 7520 2890 (1992) 200 (1995) 886 242 281 421 450 655 1220 1250 2010 2400
2026-04-18 20:00 10.44 7570 2890 (1992) 200 (1995) 886 242 281 421 450 655 1220 1250 2010 2400
2026-04-18 19:30 10.46 7610 2890 (1992) 200 (1995) 886 242 281 421 450 655 1220 1250 2010 2400
2026-04-18 19:00 10.46 7610 2890 (1992) 200 (1995) 886 242 281 421 450 655 1220 1250 2010 2400
2026-04-18 18:30 10.44 7570 2890 (1992) 200 (1995) 886 242 281 421 450 655 1220 1250 2010 2400
2026-04-18 18:00 10.38 7470 2890 (1992) 200 (1995) 886 242 281 421 450 655 1220 1250 2010 2400
2026-04-18 17:30 10.28 7300 2890 (1992) 200 (1995) 886 242 281 421 450 655 1220 1250 2010 2400
2026-04-18 17:00 10.14 7070 2890 (1992) 200 (1995) 886 242 281 421 450 655 1220 1250 2010 2400
2026-04-18 16:30 9.93 6720 2890 (1992) 200 (1995) 886 242 281 421 450 655 1220 1250 2010 2400
2026-04-18 16:00 9.65 6280 2890 (1992) 200 (1995) 886 242 281 421 450 655 1220 1250 2010 2400
2026-04-18 15:30 9.28 5720 2890 (1992) 200 (1995) 886 242 281 421 450 655 1220 1250 2010 2400
2026-04-18 15:00 8.87 5120 2890 (1992) 200 (1995) 886 242 281 421 450 655 1220 1250 2010 2400
2026-04-18 14:30 8.45 4510 2890 (1992) 200 (1995) 886 242 281 421 450 655 1220 1250 2010 2400
2026-04-18 14:00 8.08 4010 2890 (1992) 200 (1995) 886 242 281 421 450 655 1220 1250 2010 2400
2026-04-18 13:30 7.77 3620 2890 (1992) 200 (1995) 886 242 281 421 450 655 1220 1250 2010 2400
2026-04-18 13:00 7.49 3280 2890 (1992) 200 (1995) 886 242 281 421 450 655 1220 1250 2010 2400
2026-04-18 12:30 7.23 2980 2890 (1992) 200 (1995) 886 242 281 421 450 655 1220 1250 2010 2400
2026-04-18 12:00 7.00 2730 2890 (1992) 200 (1995) 886 242 281 421 450 655 1220 1250 2010 2400
2026-04-18 11:30 6.82 2550 2890 (1992) 200 (1995) 886 242 281 421 450 655 1220 1250 2010 2400
2026-04-18 11:00 6.67 2390 2890 (1992) 200 (1995) 886 242 281 421 450 655 1220 1250 2010 2400
2026-04-18 10:30 6.54 2270 2890 (1992) 200 (1995) 886 242 281 421 450 655 1220 1250 2010 2400
2026-04-18 10:00 6.42 2150 2890 (1992) 200 (1995) 886 242 281 421 450 655 1220 1250 2010 2400
2026-04-18 09:30 6.30 2040 2890 (1992) 200 (1995) 886 242 281 421 450 655 1220 1250 2010 2400
2026-04-18 09:00 6.14 1900 2890 (1992) 200 (1995) 886 242 281 421 450 655 1220 1250 2010 2400
2026-04-18 08:30 5.93 1720 2890 (1992) 200 (1995) 886 242 281 421 450 655 1220 1250 2010 2400
2026-04-18 08:00 5.80 1620 2890 (1992) 200 (1995) 886 242 281 421 450 655 1220 1250 2010 2400
2026-04-18 07:30 5.63 1480 2890 (1992) 200 (1995) 886 242 281 421 450 655 1220 1250 2010 2400
2026-04-18 07:00 5.48 1370 2890 (1992) 200 (1995) 886 242 281 421 450 655 1220 1250 2010 2400
2026-04-18 06:30 5.36 1280 2890 (1992) 200 (1995) 886 242 281 421 450 655 1220 1250 2010 2400
2026-04-18 06:00 5.30 1240 2890 (1992) 200 (1995) 886 242 281 421 450 655 1220 1250 2010 2400
2026-04-18 05:30 5.24 1200 2890 (1992) 200 (1995) 886 242 281 421 450 655 1220 1250 2010 2400
2026-04-18 05:00 5.20 1170 2890 (1992) 200 (1995) 886 242 281 421 450 655 1220 1250 2010 2400
2026-04-18 04:30 5.14 1130 2890 (1992) 200 (1995) 886 242 281 421 450 655 1220 1250 2010 2400
2026-04-18 04:00 5.05 1070 2890 (1992) 200 (1995) 886 242 281 421 450 655 1220 1250 2010 2400
2026-04-18 03:30 4.94 1000 2890 (1992) 200 (1995) 886 242 281 421 450 655 1220 1250 2010 2400
2026-04-18 03:00 4.93 998 2890 (1992) 200 (1995) 886 242 281 421 450 655 1220 1250 2010 2400
2026-04-18 02:30 4.94 1000 2890 (1992) 200 (1995) 886 242 281 421 450 655 1220 1250 2010 2400
2026-04-18 02:00 4.94 1000 2890 (1992) 200 (1995) 886 242 281 421 450 655 1220 1250 2010 2400
2026-04-18 01:30 4.96 1020 2890 (1992) 200 (1995) 886 242 281 421 450 655 1220 1250 2010 2400
2026-04-18 01:00 4.97 1020 2890 (1992) 200 (1995) 886 242 281 421 450 655 1220 1250 2010 2400
2026-04-18 00:30 4.99 1040 2890 (1992) 200 (1995) 886 242 281 421 450 655 1220 1250 2010 2400
2026-04-18 00:00 5.00 1040 2890 (1992) 200 (1995) 886 242 281 421 450 655 1220 1250 2010 2400
2026-04-17 23:30 5.02 1050 2890 (1992) 200 (1995) 886 242 281 421 450 655 1220 1250 2010 2400
2026-04-17 23:00 5.04 1070 2890 (1992) 200 (1995) 886 242 281 421 450 655 1220 1250 2010 2400
2026-04-17 22:30 5.06 1080 3710 (1993) 200 (1995) 978 262 302 392 463 655 1430 1630 1940 2970
2026-04-17 22:00 5.07 1090 3710 (1993) 200 (1995) 978 262 302 392 463 655 1430 1630 1940 2970
2026-04-17 21:30 5.09 1100 3710 (1993) 200 (1995) 978 262 302 392 463 655 1430 1630 1940 2970
2026-04-17 21:00 5.11 1110 3710 (1993) 200 (1995) 978 262 302 392 463 655 1430 1630 1940 2970
2026-04-17 20:30 5.13 1130 3710 (1993) 200 (1995) 978 262 302 392 463 655 1430 1630 1940 2970
2026-04-17 20:00 5.13 1130 3710 (1993) 200 (1995) 978 262 302 392 463 655 1430 1630 1940 2970
2026-04-17 19:30 5.16 1150 3710 (1993) 200 (1995) 978 262 302 392 463 655 1430 1630 1940 2970
2026-04-17 19:00 5.15 1140 3710 (1993) 200 (1995) 978 262 302 392 463 655 1430 1630 1940 2970
2026-04-17 18:30 5.17 1150 3710 (1993) 200 (1995) 978 262 302 392 463 655 1430 1630 1940 2970
2026-04-17 18:00 5.20 1170 3710 (1993) 200 (1995) 978 262 302 392 463 655 1430 1630 1940 2970
2026-04-17 17:30 5.18 1160 3710 (1993) 200 (1995) 978 262 302 392 463 655 1430 1630 1940 2970
2026-04-17 17:00 5.21 1180 3710 (1993) 200 (1995) 978 262 302 392 463 655 1430 1630 1940 2970
2026-04-17 16:30 5.20 1170 3710 (1993) 200 (1995) 978 262 302 392 463 655 1430 1630 1940 2970
2026-04-17 16:00 5.22 1190 3710 (1993) 200 (1995) 978 262 302 392 463 655 1430 1630 1940 2970
2026-04-17 15:30 5.22 1190 3710 (1993) 200 (1995) 978 262 302 392 463 655 1430 1630 1940 2970
2026-04-17 15:00 5.25 1210 3710 (1993) 200 (1995) 978 262 302 392 463 655 1430 1630 1940 2970
2026-04-17 14:30 5.29 1230 3710 (1993) 200 (1995) 978 262 302 392 463 655 1430 1630 1940 2970
2026-04-17 14:00 5.30 1240 3710 (1993) 200 (1995) 978 262 302 392 463 655 1430 1630 1940 2970
2026-04-17 13:30 5.31 1250 3710 (1993) 200 (1995) 978 262 302 392 463 655 1430 1630 1940 2970
2026-04-17 13:00 5.33 1260 3710 (1993) 200 (1995) 978 262 302 392 463 655 1430 1630 1940 2970
2026-04-17 12:30 5.35 1280 3710 (1993) 200 (1995) 978 262 302 392 463 655 1430 1630 1940 2970
2026-04-17 12:00 5.37 1290 3710 (1993) 200 (1995) 978 262 302 392 463 655 1430 1630 1940 2970
2026-04-17 11:30 5.36 1280 3710 (1993) 200 (1995) 978 262 302 392 463 655 1430 1630 1940 2970
2026-04-17 11:00 5.39 1300 3710 (1993) 200 (1995) 978 262 302 392 463 655 1430 1630 1940 2970
2026-04-17 10:30 5.41 1320 3710 (1993) 200 (1995) 978 262 302 392 463 655 1430 1630 1940 2970
2026-04-17 10:00 5.41 1320 3710 (1993) 200 (1995) 978 262 302 392 463 655 1430 1630 1940 2970
2026-04-17 09:30 5.42 1330 3710 (1993) 200 (1995) 978 262 302 392 463 655 1430 1630 1940 2970
2026-04-17 09:00 5.42 1330 3710 (1993) 200 (1995) 978 262 302 392 463 655 1430 1630 1940 2970
2026-04-17 08:30 5.42 1330 3710 (1993) 200 (1995) 978 262 302 392 463 655 1430 1630 1940 2970
2026-04-17 08:00 5.41 1320 3710 (1993) 200 (1995) 978 262 302 392 463 655 1430 1630 1940 2970
2026-04-17 07:30 5.40 1310 3710 (1993) 200 (1995) 978 262 302 392 463 655 1430 1630 1940 2970
2026-04-17 07:00 5.39 1300 3710 (1993) 200 (1995) 978 262 302 392 463 655 1430 1630 1940 2970
2026-04-17 06:30 5.38 1300 3710 (1993) 200 (1995) 978 262 302 392 463 655 1430 1630 1940 2970
2026-04-17 06:00 5.37 1290 3710 (1993) 200 (1995) 978 262 302 392 463 655 1430 1630 1940 2970
2026-04-17 05:30 5.36 1280 3710 (1993) 200 (1995) 978 262 302 392 463 655 1430 1630 1940 2970
2026-04-17 05:00 5.36 1280 3710 (1993) 200 (1995) 978 262 302 392 463 655 1430 1630 1940 2970
2026-04-17 04:30 5.35 1280 3710 (1993) 200 (1995) 978 262 302 392 463 655 1430 1630 1940 2970
2026-04-17 04:00 5.34 1270 3710 (1993) 200 (1995) 978 262 302 392 463 655 1430 1630 1940 2970
2026-04-17 03:30 5.33 1260 3710 (1993) 200 (1995) 978 262 302 392 463 655 1430 1630 1940 2970
2026-04-17 03:00 5.32 1250 3710 (1993) 200 (1995) 978 262 302 392 463 655 1430 1630 1940 2970
2026-04-17 02:30 5.30 1240 3710 (1993) 200 (1995) 978 262 302 392 463 655 1430 1630 1940 2970
2026-04-17 02:00 5.26 1210 3710 (1993) 200 (1995) 978 262 302 392 463 655 1430 1630 1940 2970
2026-04-17 01:30 5.22 1190 3710 (1993) 200 (1995) 978 262 302 392 463 655 1430 1630 1940 2970
2026-04-17 01:00 5.17 1150 3710 (1993) 200 (1995) 978 262 302 392 463 655 1430 1630 1940 2970
2026-04-17 00:30 5.09 1100 3710 (1993) 200 (1995) 978 262 302 392 463 655 1430 1630 1940 2970
2026-04-17 00:00 5.01 1050 3710 (1993) 200 (1995) 978 262 302 392 463 655 1430 1630 1940 2970
2026-04-16 23:30 4.89 973 3710 (1993) 200 (1995) 978 262 302 392 463 655 1430 1630 1940 2970
2026-04-16 23:00 4.74 884 3710 (1993) 200 (1995) 978 262 302 392 463 655 1430 1630 1940 2970
2026-04-16 22:30 4.55 777 8500 (1993) 204 (1995) 1390 285 325 359 397 739 1780 2640 2990 5030
2026-04-16 22:00 4.31 653 8500 (1993) 204 (1995) 1390 285 325 359 397 739 1780 2640 2990 5030
2026-04-16 21:30 4.06 536 8500 (1993) 204 (1995) 1390 285 325 359 397 739 1780 2640 2990 5030
2026-04-16 21:00 3.82 435 8500 (1993) 204 (1995) 1390 285 325 359 397 739 1780 2640 2990 5030
2026-04-16 20:30 3.65 371 8500 (1993) 204 (1995) 1390 285 325 359 397 739 1780 2640 2990 5030
2026-04-16 20:00 3.55 335 8500 (1993) 204 (1995) 1390 285 325 359 397 739 1780 2640 2990 5030
2026-04-16 19:30 3.50 318 8500 (1993) 204 (1995) 1390 285 325 359 397 739 1780 2640 2990 5030
2026-04-16 19:00 3.47 308 8500 (1993) 204 (1995) 1390 285 325 359 397 739 1780 2640 2990 5030
2026-04-16 18:30 3.45 302 8500 (1993) 204 (1995) 1390 285 325 359 397 739 1780 2640 2990 5030
2026-04-16 18:00 3.41 289 8500 (1993) 204 (1995) 1390 285 325 359 397 739 1780 2640 2990 5030
2026-04-16 17:30 3.43 295 8500 (1993) 204 (1995) 1390 285 325 359 397 739 1780 2640 2990 5030
2026-04-16 17:00 3.41 289 8500 (1993) 204 (1995) 1390 285 325 359 397 739 1780 2640 2990 5030
2026-04-16 16:30 3.35 270 8500 (1993) 204 (1995) 1390 285 325 359 397 739 1780 2640 2990 5030
2026-04-16 16:00 3.36 273 8500 (1993) 204 (1995) 1390 285 325 359 397 739 1780 2640 2990 5030
2026-04-16 15:30 3.35 270 8500 (1993) 204 (1995) 1390 285 325 359 397 739 1780 2640 2990 5030
2026-04-16 15:00 3.34 267 8500 (1993) 204 (1995) 1390 285 325 359 397 739 1780 2640 2990 5030
2026-04-16 14:30 3.31 258 8500 (1993) 204 (1995) 1390 285 325 359 397 739 1780 2640 2990 5030
2026-04-16 14:00 3.30 255 8500 (1993) 204 (1995) 1390 285 325 359 397 739 1780 2640 2990 5030
2026-04-16 13:30 3.29 252 8500 (1993) 204 (1995) 1390 285 325 359 397 739 1780 2640 2990 5030
2026-04-16 13:00 3.29 252 8500 (1993) 204 (1995) 1390 285 325 359 397 739 1780 2640 2990 5030
2026-04-16 12:30 3.28 249 8500 (1993) 204 (1995) 1390 285 325 359 397 739 1780 2640 2990 5030
2026-04-16 12:00 3.27 246 8500 (1993) 204 (1995) 1390 285 325 359 397 739 1780 2640 2990 5030
2026-04-16 11:30 3.27 246 8500 (1993) 204 (1995) 1390 285 325 359 397 739 1780 2640 2990 5030
2026-04-16 11:00 3.29 252 8500 (1993) 204 (1995) 1390 285 325 359 397 739 1780 2640 2990 5030
2026-04-16 10:30 3.29 252 8500 (1993) 204 (1995) 1390 285 325 359 397 739 1780 2640 2990 5030
2026-04-16 10:00 3.29 252 8500 (1993) 204 (1995) 1390 285 325 359 397 739 1780 2640 2990 5030
2026-04-16 09:30 3.28 249 8500 (1993) 204 (1995) 1390 285 325 359 397 739 1780 2640 2990 5030
2026-04-16 09:00 3.28 249 8500 (1993) 204 (1995) 1390 285 325 359 397 739 1780 2640 2990 5030
2026-04-16 08:30 3.28 249 8500 (1993) 204 (1995) 1390 285 325 359 397 739 1780 2640 2990 5030
2026-04-16 08:00 3.27 246 8500 (1993) 204 (1995) 1390 285 325 359 397 739 1780 2640 2990 5030
2026-04-16 07:30 3.27 246 8500 (1993) 204 (1995) 1390 285 325 359 397 739 1780 2640 2990 5030
2026-04-16 07:00 3.27 246 8500 (1993) 204 (1995) 1390 285 325 359 397 739 1780 2640 2990 5030
2026-04-16 06:30 3.27 246 8500 (1993) 204 (1995) 1390 285 325 359 397 739 1780 2640 2990 5030
2026-04-16 06:00 3.26 243 8500 (1993) 204 (1995) 1390 285 325 359 397 739 1780 2640 2990 5030
2026-04-16 05:30 3.26 243 8500 (1993) 204 (1995) 1390 285 325 359 397 739 1780 2640 2990 5030
2026-04-16 05:00 3.26 243 8500 (1993) 204 (1995) 1390 285 325 359 397 739 1780 2640 2990 5030
2026-04-16 04:30 3.26 243 8500 (1993) 204 (1995) 1390 285 325 359 397 739 1780 2640 2990 5030
2026-04-16 04:00 3.26 243 8500 (1993) 204 (1995) 1390 285 325 359 397 739 1780 2640 2990 5030
2026-04-16 03:30 3.25 240 8500 (1993) 204 (1995) 1390 285 325 359 397 739 1780 2640 2990 5030
2026-04-16 03:00 3.24 237 8500 (1993) 204 (1995) 1390 285 325 359 397 739 1780 2640 2990 5030
2026-04-16 02:30 3.21 229 8500 (1993) 204 (1995) 1390 285 325 359 397 739 1780 2640 2990 5030
2026-04-16 02:00 3.22 232 8500 (1993) 204 (1995) 1390 285 325 359 397 739 1780 2640 2990 5030
2026-04-16 01:30 3.23 235 8500 (1993) 204 (1995) 1390 285 325 359 397 739 1780 2640 2990 5030
2026-04-16 01:00 3.23 235 8500 (1993) 204 (1995) 1390 285 325 359 397 739 1780 2640 2990 5030
2026-04-16 00:30 3.23 235 8500 (1993) 204 (1995) 1390 285 325 359 397 739 1780 2640 2990 5030
2026-04-16 00:00 3.23 235 8500 (1993) 204 (1995) 1390 285 325 359 397 739 1780 2640 2990 5030
2026-04-15 23:30 3.23 235 8500 (1993) 204 (1995) 1390 285 325 359 397 739 1780 2640 2990 5030
2026-04-15 23:00 3.23 235 8500 (1993) 204 (1995) 1390 285 325 359 397 739 1780 2640 2990 5030
2026-04-15 22:30 3.23 235 12000 (1993) 214 (1995) 1990 270 333 377 389 863 2450 3110 6260 8650
2026-04-15 22:00 3.24 237 12000 (1993) 214 (1995) 1990 270 333 377 389 863 2450 3110 6260 8650
2026-04-15 21:30 3.24 237 12000 (1993) 214 (1995) 1990 270 333 377 389 863 2450 3110 6260 8650
2026-04-15 21:00 3.24 237 12000 (1993) 214 (1995) 1990 270 333 377 389 863 2450 3110 6260 8650
2026-04-15 20:30 3.24 237 12000 (1993) 214 (1995) 1990 270 333 377 389 863 2450 3110 6260 8650
2026-04-15 20:00 3.24 237 12000 (1993) 214 (1995) 1990 270 333 377 389 863 2450 3110 6260 8650
2026-04-15 19:30 3.24 237 12000 (1993) 214 (1995) 1990 270 333 377 389 863 2450 3110 6260 8650
2026-04-15 19:00 3.24 237 12000 (1993) 214 (1995) 1990 270 333 377 389 863 2450 3110 6260 8650
2026-04-15 18:30 3.24 237 12000 (1993) 214 (1995) 1990 270 333 377 389 863 2450 3110 6260 8650
2026-04-15 18:00 3.24 237 12000 (1993) 214 (1995) 1990 270 333 377 389 863 2450 3110 6260 8650
2026-04-15 17:30 3.24 237 12000 (1993) 214 (1995) 1990 270 333 377 389 863 2450 3110 6260 8650
2026-04-15 17:00 3.24 237 12000 (1993) 214 (1995) 1990 270 333 377 389 863 2450 3110 6260 8650
2026-04-15 16:30 3.21 229 12000 (1993) 214 (1995) 1990 270 333 377 389 863 2450 3110 6260 8650
2026-04-15 16:00 3.23 235 12000 (1993) 214 (1995) 1990 270 333 377 389 863 2450 3110 6260 8650
2026-04-15 15:30 3.23 235 12000 (1993) 214 (1995) 1990 270 333 377 389 863 2450 3110 6260 8650
2026-04-15 15:00 3.23 235 12000 (1993) 214 (1995) 1990 270 333 377 389 863 2450 3110 6260 8650
2026-04-15 14:30 3.23 235 12000 (1993) 214 (1995) 1990 270 333 377 389 863 2450 3110 6260 8650
2026-04-15 14:00 3.24 237 12000 (1993) 214 (1995) 1990 270 333 377 389 863 2450 3110 6260 8650
2026-04-15 13:30 3.24 237 12000 (1993) 214 (1995) 1990 270 333 377 389 863 2450 3110 6260 8650
2026-04-15 13:00 3.25 240 12000 (1993) 214 (1995) 1990 270 333 377 389 863 2450 3110 6260 8650
2026-04-15 12:30 3.24 237 12000 (1993) 214 (1995) 1990 270 333 377 389 863 2450 3110 6260 8650
2026-04-15 12:00 3.24 237 12000 (1993) 214 (1995) 1990 270 333 377 389 863 2450 3110 6260 8650
2026-04-15 11:30 3.24 237 12000 (1993) 214 (1995) 1990 270 333 377 389 863 2450 3110 6260 8650
2026-04-15 11:00 3.25 240 12000 (1993) 214 (1995) 1990 270 333 377 389 863 2450 3110 6260 8650
2026-04-15 10:30 3.25 240 12000 (1993) 214 (1995) 1990 270 333 377 389 863 2450 3110 6260 8650
2026-04-15 10:00 3.25 240 12000 (1993) 214 (1995) 1990 270 333 377 389 863 2450 3110 6260 8650
2026-04-15 09:30 3.25 240 12000 (1993) 214 (1995) 1990 270 333 377 389 863 2450 3110 6260 8650
2026-04-15 09:00 3.26 243 12000 (1993) 214 (1995) 1990 270 333 377 389 863 2450 3110 6260 8650
2026-04-15 08:30 3.26 243 12000 (1993) 214 (1995) 1990 270 333 377 389 863 2450 3110 6260 8650
2026-04-15 08:00 3.26 243 12000 (1993) 214 (1995) 1990 270 333 377 389 863 2450 3110 6260 8650
2026-04-15 07:30 3.26 243 12000 (1993) 214 (1995) 1990 270 333 377 389 863 2450 3110 6260 8650
2026-04-15 07:00 3.26 243 12000 (1993) 214 (1995) 1990 270 333 377 389 863 2450 3110 6260 8650
2026-04-15 06:30 3.26 243 12000 (1993) 214 (1995) 1990 270 333 377 389 863 2450 3110 6260 8650
2026-04-15 06:00 3.26 243 12000 (1993) 214 (1995) 1990 270 333 377 389 863 2450 3110 6260 8650
2026-04-15 05:30 3.27 246 12000 (1993) 214 (1995) 1990 270 333 377 389 863 2450 3110 6260 8650
2026-04-15 05:00 3.27 246 12000 (1993) 214 (1995) 1990 270 333 377 389 863 2450 3110 6260 8650
2026-04-15 04:30 3.27 246 12000 (1993) 214 (1995) 1990 270 333 377 389 863 2450 3110 6260 8650
2026-04-15 04:00 3.27 246 12000 (1993) 214 (1995) 1990 270 333 377 389 863 2450 3110 6260 8650
2026-04-15 03:30 3.27 246 12000 (1993) 214 (1995) 1990 270 333 377 389 863 2450 3110 6260 8650
2026-04-15 03:00 3.28 249 12000 (1993) 214 (1995) 1990 270 333 377 389 863 2450 3110 6260 8650
2026-04-15 02:30 3.28 249 12000 (1993) 214 (1995) 1990 270 333 377 389 863 2450 3110 6260 8650
2026-04-15 02:00 3.28 249 12000 (1993) 214 (1995) 1990 270 333 377 389 863 2450 3110 6260 8650
2026-04-15 01:30 3.28 249 12000 (1993) 214 (1995) 1990 270 333 377 389 863 2450 3110 6260 8650
2026-04-15 01:00 3.28 249 12000 (1993) 214 (1995) 1990 270 333 377 389 863 2450 3110 6260 8650
2026-04-15 00:30 3.28 249 12000 (1993) 214 (1995) 1990 270 333 377 389 863 2450 3110 6260 8650
2026-04-15 00:00 3.29 252 12000 (1993) 214 (1995) 1990 270 333 377 389 863 2450 3110 6260 8650
2026-04-14 23:30 3.29 252 12000 (1993) 214 (1995) 1990 270 333 377 389 863 2450 3110 6260 8650
2026-04-14 23:00 3.29 252 12000 (1993) 214 (1995) 1990 270 333 377 389 863 2450 3110 6260 8650
2026-04-14 22:30 3.29 252 26000 (1991) 228 (1995) 2980 282 360 415 424 998 2320 3050 10600 17400
2026-04-14 22:00 3.30 255 26000 (1991) 228 (1995) 2980 282 360 415 424 998 2320 3050 10600 17400
2026-04-14 21:30 3.30 255 26000 (1991) 228 (1995) 2980 282 360 415 424 998 2320 3050 10600 17400
2026-04-14 21:00 3.30 255 26000 (1991) 228 (1995) 2980 282 360 415 424 998 2320 3050 10600 17400
2026-04-14 20:30 3.30 255 26000 (1991) 228 (1995) 2980 282 360 415 424 998 2320 3050 10600 17400
2026-04-14 20:00 3.30 255 26000 (1991) 228 (1995) 2980 282 360 415 424 998 2320 3050 10600 17400
2026-04-14 19:30 3.30 255 26000 (1991) 228 (1995) 2980 282 360 415 424 998 2320 3050 10600 17400
2026-04-14 19:00 3.31 258 26000 (1991) 228 (1995) 2980 282 360 415 424 998 2320 3050 10600 17400
2026-04-14 18:30 3.31 258 26000 (1991) 228 (1995) 2980 282 360 415 424 998 2320 3050 10600 17400
2026-04-14 18:00 3.31 258 26000 (1991) 228 (1995) 2980 282 360 415 424 998 2320 3050 10600 17400
2026-04-14 17:30 3.32 261 26000 (1991) 228 (1995) 2980 282 360 415 424 998 2320 3050 10600 17400
2026-04-14 17:00 3.29 252 26000 (1991) 228 (1995) 2980 282 360 415 424 998 2320 3050 10600 17400
2026-04-14 16:30 3.32 261 26000 (1991) 228 (1995) 2980 282 360 415 424 998 2320 3050 10600 17400
2026-04-14 16:00 3.31 258 26000 (1991) 228 (1995) 2980 282 360 415 424 998 2320 3050 10600 17400
2026-04-14 15:30 3.33 264 26000 (1991) 228 (1995) 2980 282 360 415 424 998 2320 3050 10600 17400
2026-04-14 15:00 3.33 264 26000 (1991) 228 (1995) 2980 282 360 415 424 998 2320 3050 10600 17400
2026-04-14 14:30 3.32 261 26000 (1991) 228 (1995) 2980 282 360 415 424 998 2320 3050 10600 17400
2026-04-14 14:00 3.34 267 26000 (1991) 228 (1995) 2980 282 360 415 424 998 2320 3050 10600 17400
2026-04-14 13:30 3.33 264 26000 (1991) 228 (1995) 2980 282 360 415 424 998 2320 3050 10600 17400
2026-04-14 13:00 3.32 261 26000 (1991) 228 (1995) 2980 282 360 415 424 998 2320 3050 10600 17400
2026-04-14 12:30 3.32 261 26000 (1991) 228 (1995) 2980 282 360 415 424 998 2320 3050 10600 17400
2026-04-14 12:00 3.34 267 26000 (1991) 228 (1995) 2980 282 360 415 424 998 2320 3050 10600 17400
2026-04-14 10:00 3.35 270 26000 (1991) 228 (1995) 2980 282 360 415 424 998 2320 3050 10600 17400
2026-04-14 09:00 3.35 270 26000 (1991) 228 (1995) 2980 282 360 415 424 998 2320 3050 10600 17400
2026-04-14 08:30 3.35 270 26000 (1991) 228 (1995) 2980 282 360 415 424 998 2320 3050 10600 17400
2026-04-14 08:00 3.35 270 26000 (1991) 228 (1995) 2980 282 360 415 424 998 2320 3050 10600 17400
2026-04-14 07:30 3.35 270 26000 (1991) 228 (1995) 2980 282 360 415 424 998 2320 3050 10600 17400
2026-04-14 07:00 3.36 273 26000 (1991) 228 (1995) 2980 282 360 415 424 998 2320 3050 10600 17400
2026-04-14 06:30 3.36 273 26000 (1991) 228 (1995) 2980 282 360 415 424 998 2320 3050 10600 17400
2026-04-14 06:00 3.36 273 26000 (1991) 228 (1995) 2980 282 360 415 424 998 2320 3050 10600 17400
2026-04-14 05:30 3.36 273 26000 (1991) 228 (1995) 2980 282 360 415 424 998 2320 3050 10600 17400
2026-04-14 05:00 3.37 276 26000 (1991) 228 (1995) 2980 282 360 415 424 998 2320 3050 10600 17400
2026-04-14 04:30 3.37 276 26000 (1991) 228 (1995) 2980 282 360 415 424 998 2320 3050 10600 17400
2026-04-14 04:00 3.37 276 26000 (1991) 228 (1995) 2980 282 360 415 424 998 2320 3050 10600 17400
2026-04-14 03:30 3.37 276 26000 (1991) 228 (1995) 2980 282 360 415 424 998 2320 3050 10600 17400
2026-04-14 03:00 3.37 276 26000 (1991) 228 (1995) 2980 282 360 415 424 998 2320 3050 10600 17400
2026-04-14 02:30 3.37 276 26000 (1991) 228 (1995) 2980 282 360 415 424 998 2320 3050 10600 17400
2026-04-14 02:00 3.38 279 26000 (1991) 228 (1995) 2980 282 360 415 424 998 2320 3050 10600 17400
2026-04-14 01:30 3.38 279 26000 (1991) 228 (1995) 2980 282 360 415 424 998 2320 3050 10600 17400
2026-04-14 01:00 3.38 279 26000 (1991) 228 (1995) 2980 282 360 415 424 998 2320 3050 10600 17400
2026-04-14 00:30 3.38 279 26000 (1991) 228 (1995) 2980 282 360 415 424 998 2320 3050 10600 17400
2026-04-14 00:00 3.38 279 26000 (1991) 228 (1995) 2980 282 360 415 424 998 2320 3050 10600 17400
2026-04-13 23:30 3.39 283 26000 (1991) 228 (1995) 2980 282 360 415 424 998 2320 3050 10600 17400
2026-04-13 23:00 3.39 283 26000 (1991) 228 (1995) 2980 282 360 415 424 998 2320 3050 10600 17400
2026-04-13 22:30 3.39 283 7660 (1994) 236 (1995) 1230 305 372 423 458 760 1540 1670 2580 4330
2026-04-13 22:00 3.39 283 7660 (1994) 236 (1995) 1230 305 372 423 458 760 1540 1670 2580 4330
2026-04-13 21:30 3.39 283 7660 (1994) 236 (1995) 1230 305 372 423 458 760 1540 1670 2580 4330
2026-04-13 21:00 3.39 283 7660 (1994) 236 (1995) 1230 305 372 423 458 760 1540 1670 2580 4330
2026-04-13 20:30 3.39 283 7660 (1994) 236 (1995) 1230 305 372 423 458 760 1540 1670 2580 4330
2026-04-13 20:00 3.40 286 7660 (1994) 236 (1995) 1230 305 372 423 458 760 1540 1670 2580 4330
2026-04-13 19:30 3.40 286 7660 (1994) 236 (1995) 1230 305 372 423 458 760 1540 1670 2580 4330
2026-04-13 19:00 3.40 286 7660 (1994) 236 (1995) 1230 305 372 423 458 760 1540 1670 2580 4330
2026-04-13 18:30 3.40 286 7660 (1994) 236 (1995) 1230 305 372 423 458 760 1540 1670 2580 4330
2026-04-13 18:00 3.40 286 7660 (1994) 236 (1995) 1230 305 372 423 458 760 1540 1670 2580 4330
2026-04-13 17:30 3.41 289 7660 (1994) 236 (1995) 1230 305 372 423 458 760 1540 1670 2580 4330
2026-04-13 17:00 3.41 289 7660 (1994) 236 (1995) 1230 305 372 423 458 760 1540 1670 2580 4330
2026-04-13 16:30 3.40 286 7660 (1994) 236 (1995) 1230 305 372 423 458 760 1540 1670 2580 4330
2026-04-13 16:00 3.41 289 7660 (1994) 236 (1995) 1230 305 372 423 458 760 1540 1670 2580 4330
2026-04-13 15:30 3.40 286 7660 (1994) 236 (1995) 1230 305 372 423 458 760 1540 1670 2580 4330
2026-04-13 15:00 3.42 292 7660 (1994) 236 (1995) 1230 305 372 423 458 760 1540 1670 2580 4330
2026-04-13 14:30 3.42 292 7660 (1994) 236 (1995) 1230 305 372 423 458 760 1540 1670 2580 4330
2026-04-13 14:00 3.42 292 7660 (1994) 236 (1995) 1230 305 372 423 458 760 1540 1670 2580 4330
2026-04-13 13:30 3.41 289 7660 (1994) 236 (1995) 1230 305 372 423 458 760 1540 1670 2580 4330
2026-04-13 13:00 3.43 295 7660 (1994) 236 (1995) 1230 305 372 423 458 760 1540 1670 2580 4330
2026-04-13 12:30 3.42 292 7660 (1994) 236 (1995) 1230 305 372 423 458 760 1540 1670 2580 4330
2026-04-13 12:00 3.43 295 7660 (1994) 236 (1995) 1230 305 372 423 458 760 1540 1670 2580 4330
2026-04-13 11:30 3.43 295 7660 (1994) 236 (1995) 1230 305 372 423 458 760 1540 1670 2580 4330
2026-04-13 11:00 3.43 295 7660 (1994) 236 (1995) 1230 305 372 423 458 760 1540 1670 2580 4330
2026-04-13 10:30 3.44 298 7660 (1994) 236 (1995) 1230 305 372 423 458 760 1540 1670 2580 4330
2026-04-13 10:00 3.44 298 7660 (1994) 236 (1995) 1230 305 372 423 458 760 1540 1670 2580 4330
2026-04-13 09:30 3.44 298 7660 (1994) 236 (1995) 1230 305 372 423 458 760 1540 1670 2580 4330
2026-04-13 09:00 3.44 298 7660 (1994) 236 (1995) 1230 305 372 423 458 760 1540 1670 2580 4330
2026-04-13 08:30 3.44 298 7660 (1994) 236 (1995) 1230 305 372 423 458 760 1540 1670 2580 4330
2026-04-13 08:00 3.44 298 7660 (1994) 236 (1995) 1230 305 372 423 458 760 1540 1670 2580 4330
2026-04-13 07:30 3.45 302 7660 (1994) 236 (1995) 1230 305 372 423 458 760 1540 1670 2580 4330
2026-04-13 07:00 3.45 302 7660 (1994) 236 (1995) 1230 305 372 423 458 760 1540 1670 2580 4330
2026-04-13 06:30 3.45 302 7660 (1994) 236 (1995) 1230 305 372 423 458 760 1540 1670 2580 4330
2026-04-13 06:00 3.45 302 7660 (1994) 236 (1995) 1230 305 372 423 458 760 1540 1670 2580 4330
2026-04-13 05:30 3.45 302 7660 (1994) 236 (1995) 1230 305 372 423 458 760 1540 1670 2580 4330
2026-04-13 05:00 3.46 305 7660 (1994) 236 (1995) 1230 305 372 423 458 760 1540 1670 2580 4330
2026-04-13 04:30 3.46 305 7660 (1994) 236 (1995) 1230 305 372 423 458 760 1540 1670 2580 4330
2026-04-13 04:00 3.46 305 7660 (1994) 236 (1995) 1230 305 372 423 458 760 1540 1670 2580 4330
2026-04-13 03:30 3.46 305 7660 (1994) 236 (1995) 1230 305 372 423 458 760 1540 1670 2580 4330
2026-04-13 03:00 3.46 305 7660 (1994) 236 (1995) 1230 305 372 423 458 760 1540 1670 2580 4330
2026-04-13 02:30 3.47 308 7660 (1994) 236 (1995) 1230 305 372 423 458 760 1540 1670 2580 4330
2026-04-13 02:00 3.47 308 7660 (1994) 236 (1995) 1230 305 372 423 458 760 1540 1670 2580 4330
2026-04-13 01:30 3.47 308 7660 (1994) 236 (1995) 1230 305 372 423 458 760 1540 1670 2580 4330
2026-04-13 01:00 3.47 308 7660 (1994) 236 (1995) 1230 305 372 423 458 760 1540 1670 2580 4330
2026-04-13 00:30 3.47 308 7660 (1994) 236 (1995) 1230 305 372 423 458 760 1540 1670 2580 4330
2026-04-13 00:00 3.48 312 7660 (1994) 236 (1995) 1230 305 372 423 458 760 1540 1670 2580 4330
2026-04-12 23:30 3.48 312 7660 (1994) 236 (1995) 1230 305 372 423 458 760 1540 1670 2580 4330
2026-04-12 23:00 3.48 312 7660 (1994) 236 (1995) 1230 305 372 423 458 760 1540 1670 2580 4330
2026-04-12 22:30 3.48 312 17400 (1994) 242 (1995) 1760 311 385 456 470 764 1290 2570 4690 8400
2026-04-12 22:00 3.48 312 17400 (1994) 242 (1995) 1760 311 385 456 470 764 1290 2570 4690 8400
2026-04-12 21:30 3.48 312 17400 (1994) 242 (1995) 1760 311 385 456 470 764 1290 2570 4690 8400
2026-04-12 21:00 3.49 315 17400 (1994) 242 (1995) 1760 311 385 456 470 764 1290 2570 4690 8400
2026-04-12 20:30 3.49 315 17400 (1994) 242 (1995) 1760 311 385 456 470 764 1290 2570 4690 8400
2026-04-12 20:00 3.49 315 17400 (1994) 242 (1995) 1760 311 385 456 470 764 1290 2570 4690 8400
2026-04-12 19:30 3.49 315 17400 (1994) 242 (1995) 1760 311 385 456 470 764 1290 2570 4690 8400
2026-04-12 19:00 3.50 318 17400 (1994) 242 (1995) 1760 311 385 456 470 764 1290 2570 4690 8400
2026-04-12 18:30 3.50 318 17400 (1994) 242 (1995) 1760 311 385 456 470 764 1290 2570 4690 8400
2026-04-12 18:00 3.51 322 17400 (1994) 242 (1995) 1760 311 385 456 470 764 1290 2570 4690 8400
2026-04-12 17:30 3.51 322 17400 (1994) 242 (1995) 1760 311 385 456 470 764 1290 2570 4690 8400
2026-04-12 17:00 3.51 322 17400 (1994) 242 (1995) 1760 311 385 456 470 764 1290 2570 4690 8400
2026-04-12 16:30 3.51 322 17400 (1994) 242 (1995) 1760 311 385 456 470 764 1290 2570 4690 8400
2026-04-12 16:00 3.50 318 17400 (1994) 242 (1995) 1760 311 385 456 470 764 1290 2570 4690 8400
2026-04-12 15:30 3.52 325 17400 (1994) 242 (1995) 1760 311 385 456 470 764 1290 2570 4690 8400
2026-04-12 15:00 3.49 315 17400 (1994) 242 (1995) 1760 311 385 456 470 764 1290 2570 4690 8400
2026-04-12 14:30 3.49 315 17400 (1994) 242 (1995) 1760 311 385 456 470 764 1290 2570 4690 8400
2026-04-12 14:00 3.49 315 17400 (1994) 242 (1995) 1760 311 385 456 470 764 1290 2570 4690 8400
2026-04-12 13:30 3.49 315 17400 (1994) 242 (1995) 1760 311 385 456 470 764 1290 2570 4690 8400
2026-04-12 13:00 3.50 318 17400 (1994) 242 (1995) 1760 311 385 456 470 764 1290 2570 4690 8400
2026-04-12 12:30 3.49 315 17400 (1994) 242 (1995) 1760 311 385 456 470 764 1290 2570 4690 8400
2026-04-12 12:00 3.54 332 17400 (1994) 242 (1995) 1760 311 385 456 470 764 1290 2570 4690 8400
2026-04-12 11:30 3.54 332 17400 (1994) 242 (1995) 1760 311 385 456 470 764 1290 2570 4690 8400
2026-04-12 11:00 3.54 332 17400 (1994) 242 (1995) 1760 311 385 456 470 764 1290 2570 4690 8400
2026-04-12 10:30 3.55 335 17400 (1994) 242 (1995) 1760 311 385 456 470 764 1290 2570 4690 8400
2026-04-12 10:00 3.55 335 17400 (1994) 242 (1995) 1760 311 385 456 470 764 1290 2570 4690 8400
2026-04-12 09:30 3.55 335 17400 (1994) 242 (1995) 1760 311 385 456 470 764 1290 2570 4690 8400
2026-04-12 09:00 3.55 335 17400 (1994) 242 (1995) 1760 311 385 456 470 764 1290 2570 4690 8400
2026-04-12 08:30 3.55 335 17400 (1994) 242 (1995) 1760 311 385 456 470 764 1290 2570 4690 8400
2026-04-12 08:00 3.56 339 17400 (1994) 242 (1995) 1760 311 385 456 470 764 1290 2570 4690 8400
2026-04-12 07:30 3.56 339 17400 (1994) 242 (1995) 1760 311 385 456 470 764 1290 2570 4690 8400
2026-04-12 07:00 3.56 339 17400 (1994) 242 (1995) 1760 311 385 456 470 764 1290 2570 4690 8400
2026-04-12 06:30 3.56 339 17400 (1994) 242 (1995) 1760 311 385 456 470 764 1290 2570 4690 8400
2026-04-12 06:00 3.57 342 17400 (1994) 242 (1995) 1760 311 385 456 470 764 1290 2570 4690 8400
2026-04-12 05:30 3.57 342 17400 (1994) 242 (1995) 1760 311 385 456 470 764 1290 2570 4690 8400
2026-04-12 05:00 3.57 342 17400 (1994) 242 (1995) 1760 311 385 456 470 764 1290 2570 4690 8400
2026-04-12 04:30 3.57 342 17400 (1994) 242 (1995) 1760 311 385 456 470 764 1290 2570 4690 8400
2026-04-12 04:00 3.58 346 17400 (1994) 242 (1995) 1760 311 385 456 470 764 1290 2570 4690 8400
2026-04-12 03:30 3.58 346 17400 (1994) 242 (1995) 1760 311 385 456 470 764 1290 2570 4690 8400
2026-04-12 03:00 3.58 346 17400 (1994) 242 (1995) 1760 311 385 456 470 764 1290 2570 4690 8400
2026-04-12 02:30 3.58 346 17400 (1994) 242 (1995) 1760 311 385 456 470 764 1290 2570 4690 8400
2026-04-12 02:00 3.58 346 17400 (1994) 242 (1995) 1760 311 385 456 470 764 1290 2570 4690 8400
2026-04-12 01:30 3.58 346 17400 (1994) 242 (1995) 1760 311 385 456 470 764 1290 2570 4690 8400
2026-04-12 01:00 3.58 346 17400 (1994) 242 (1995) 1760 311 385 456 470 764 1290 2570 4690 8400
2026-04-12 00:30 3.59 349 17400 (1994) 242 (1995) 1760 311 385 456 470 764 1290 2570 4690 8400
2026-04-12 00:00 3.59 349 17400 (1994) 242 (1995) 1760 311 385 456 470 764 1290 2570 4690 8400
2026-04-11 23:30 3.59 349 17400 (1994) 242 (1995) 1760 311 385 456 470 764 1290 2570 4690 8400
2026-04-11 23:00 3.59 349 17400 (1994) 242 (1995) 1760 311 385 456 470 764 1290 2570 4690 8400
2026-04-11 22:30 3.59 349 25300 (2008) 244 (1995) 2220 252 414 489 521 771 1590 1970 4940 15800
2026-04-11 22:00 3.59 349 25300 (2008) 244 (1995) 2220 252 414 489 521 771 1590 1970 4940 15800
2026-04-11 21:30 3.60 353 25300 (2008) 244 (1995) 2220 252 414 489 521 771 1590 1970 4940 15800
2026-04-11 21:00 3.60 353 25300 (2008) 244 (1995) 2220 252 414 489 521 771 1590 1970 4940 15800
2026-04-11 20:30 3.60 353 25300 (2008) 244 (1995) 2220 252 414 489 521 771 1590 1970 4940 15800
2026-04-11 20:00 3.60 353 25300 (2008) 244 (1995) 2220 252 414 489 521 771 1590 1970 4940 15800
2026-04-11 19:30 3.60 353 25300 (2008) 244 (1995) 2220 252 414 489 521 771 1590 1970 4940 15800
2026-04-11 19:00 3.61 356 25300 (2008) 244 (1995) 2220 252 414 489 521 771 1590 1970 4940 15800
2026-04-11 18:30 3.61 356 25300 (2008) 244 (1995) 2220 252 414 489 521 771 1590 1970 4940 15800
2026-04-11 18:00 3.61 356 25300 (2008) 244 (1995) 2220 252 414 489 521 771 1590 1970 4940 15800
2026-04-11 17:30 3.62 360 25300 (2008) 244 (1995) 2220 252 414 489 521 771 1590 1970 4940 15800
2026-04-11 17:00 3.62 360 25300 (2008) 244 (1995) 2220 252 414 489 521 771 1590 1970 4940 15800
2026-04-11 16:30 3.63 363 25300 (2008) 244 (1995) 2220 252 414 489 521 771 1590 1970 4940 15800
2026-04-11 16:00 3.63 363 25300 (2008) 244 (1995) 2220 252 414 489 521 771 1590 1970 4940 15800
2026-04-11 15:30 3.63 363 25300 (2008) 244 (1995) 2220 252 414 489 521 771 1590 1970 4940 15800
2026-04-11 15:00 3.63 363 25300 (2008) 244 (1995) 2220 252 414 489 521 771 1590 1970 4940 15800
2026-04-11 14:30 3.64 367 25300 (2008) 244 (1995) 2220 252 414 489 521 771 1590 1970 4940 15800
2026-04-11 14:00 3.64 367 25300 (2008) 244 (1995) 2220 252 414 489 521 771 1590 1970 4940 15800
2026-04-11 13:30 3.64 367 25300 (2008) 244 (1995) 2220 252 414 489 521 771 1590 1970 4940 15800
2026-04-11 13:00 3.64 367 25300 (2008) 244 (1995) 2220 252 414 489 521 771 1590 1970 4940 15800
2026-04-11 12:30 3.65 371 25300 (2008) 244 (1995) 2220 252 414 489 521 771 1590 1970 4940 15800
2026-04-11 12:00 3.65 371 25300 (2008) 244 (1995) 2220 252 414 489 521 771 1590 1970 4940 15800
2026-04-11 11:30 3.65 371 25300 (2008) 244 (1995) 2220 252 414 489 521 771 1590 1970 4940 15800
2026-04-11 11:00 3.66 374 25300 (2008) 244 (1995) 2220 252 414 489 521 771 1590 1970 4940 15800
2026-04-11 10:30 3.66 374 25300 (2008) 244 (1995) 2220 252 414 489 521 771 1590 1970 4940 15800
2026-04-11 10:00 3.67 378 25300 (2008) 244 (1995) 2220 252 414 489 521 771 1590 1970 4940 15800
2026-04-11 09:30 3.67 378 25300 (2008) 244 (1995) 2220 252 414 489 521 771 1590 1970 4940 15800
2026-04-11 09:00 3.67 378 25300 (2008) 244 (1995) 2220 252 414 489 521 771 1590 1970 4940 15800
2026-04-11 08:30 3.68 382 25300 (2008) 244 (1995) 2220 252 414 489 521 771 1590 1970 4940 15800
2026-04-11 08:00 3.68 382 25300 (2008) 244 (1995) 2220 252 414 489 521 771 1590 1970 4940 15800
2026-04-11 07:30 3.68 382 25300 (2008) 244 (1995) 2220 252 414 489 521 771 1590 1970 4940 15800
2026-04-11 07:00 3.69 385 25300 (2008) 244 (1995) 2220 252 414 489 521 771 1590 1970 4940 15800
2026-04-11 06:30 3.69 385 25300 (2008) 244 (1995) 2220 252 414 489 521 771 1590 1970 4940 15800
2026-04-11 06:00 3.69 385 25300 (2008) 244 (1995) 2220 252 414 489 521 771 1590 1970 4940 15800
2026-04-11 05:30 3.70 389 25300 (2008) 244 (1995) 2220 252 414 489 521 771 1590 1970 4940 15800
2026-04-11 05:00 3.70 389 25300 (2008) 244 (1995) 2220 252 414 489 521 771 1590 1970 4940 15800
2026-04-11 04:30 3.70 389 25300 (2008) 244 (1995) 2220 252 414 489 521 771 1590 1970 4940 15800
2026-04-11 04:00 3.71 393 25300 (2008) 244 (1995) 2220 252 414 489 521 771 1590 1970 4940 15800
2026-04-11 03:30 3.71 393 25300 (2008) 244 (1995) 2220 252 414 489 521 771 1590 1970 4940 15800
2026-04-11 03:00 3.71 393 25300 (2008) 244 (1995) 2220 252 414 489 521 771 1590 1970 4940 15800
2026-04-11 02:30 3.71 393 25300 (2008) 244 (1995) 2220 252 414 489 521 771 1590 1970 4940 15800
2026-04-11 02:00 3.71 393 25300 (2008) 244 (1995) 2220 252 414 489 521 771 1590 1970 4940 15800
2026-04-11 01:30 3.71 393 25300 (2008) 244 (1995) 2220 252 414 489 521 771 1590 1970 4940 15800
2026-04-11 01:00 3.71 393 25300 (2008) 244 (1995) 2220 252 414 489 521 771 1590 1970 4940 15800
2026-04-11 00:30 3.71 393 25300 (2008) 244 (1995) 2220 252 414 489 521 771 1590 1970 4940 15800
2026-04-11 00:00 3.72 397 25300 (2008) 244 (1995) 2220 252 414 489 521 771 1590 1970 4940 15800
2026-04-10 23:30 3.72 397 25300 (2008) 244 (1995) 2220 252 414 489 521 771 1590 1970 4940 15800
2026-04-10 23:00 3.72 397 25300 (2008) 244 (1995) 2220 252 414 489 521 771 1590 1970 4940 15800
2026-04-10 22:30 3.73 400 23400 (2008) 235 (1987) 1790 252 339 477 480 681 1180 1750 4290 9980
2026-04-10 22:00 3.73 400 23400 (2008) 235 (1987) 1790 252 339 477 480 681 1180 1750 4290 9980
2026-04-10 21:30 3.73 400 23400 (2008) 235 (1987) 1790 252 339 477 480 681 1180 1750 4290 9980
2026-04-10 21:00 3.73 400 23400 (2008) 235 (1987) 1790 252 339 477 480 681 1180 1750 4290 9980
2026-04-10 20:30 3.73 400 23400 (2008) 235 (1987) 1790 252 339 477 480 681 1180 1750 4290 9980
2026-04-10 20:00 3.74 404 23400 (2008) 235 (1987) 1790 252 339 477 480 681 1180 1750 4290 9980
2026-04-10 19:30 3.74 404 23400 (2008) 235 (1987) 1790 252 339 477 480 681 1180 1750 4290 9980
2026-04-10 19:00 3.74 404 23400 (2008) 235 (1987) 1790 252 339 477 480 681 1180 1750 4290 9980
2026-04-10 18:30 3.75 408 23400 (2008) 235 (1987) 1790 252 339 477 480 681 1180 1750 4290 9980
2026-04-10 18:00 3.75 408 23400 (2008) 235 (1987) 1790 252 339 477 480 681 1180 1750 4290 9980
2026-04-10 17:30 3.76 412 23400 (2008) 235 (1987) 1790 252 339 477 480 681 1180 1750 4290 9980
2026-04-10 17:00 3.76 412 23400 (2008) 235 (1987) 1790 252 339 477 480 681 1180 1750 4290 9980
2026-04-10 16:30 3.72 397 23400 (2008) 235 (1987) 1790 252 339 477 480 681 1180 1750 4290 9980
2026-04-10 16:00 3.77 416 23400 (2008) 235 (1987) 1790 252 339 477 480 681 1180 1750 4290 9980
2026-04-10 15:30 3.74 404 23400 (2008) 235 (1987) 1790 252 339 477 480 681 1180 1750 4290 9980
2026-04-10 15:00 3.76 412 23400 (2008) 235 (1987) 1790 252 339 477 480 681 1180 1750 4290 9980
2026-04-10 14:30 3.76 412 23400 (2008) 235 (1987) 1790 252 339 477 480 681 1180 1750 4290 9980
2026-04-10 14:00 3.74 404 23400 (2008) 235 (1987) 1790 252 339 477 480 681 1180 1750 4290 9980
2026-04-10 13:30 3.76 412 23400 (2008) 235 (1987) 1790 252 339 477 480 681 1180 1750 4290 9980
2026-04-10 13:00 3.79 423 23400 (2008) 235 (1987) 1790 252 339 477 480 681 1180 1750 4290 9980
2026-04-10 12:30 3.79 423 23400 (2008) 235 (1987) 1790 252 339 477 480 681 1180 1750 4290 9980
2026-04-10 12:00 3.75 408 23400 (2008) 235 (1987) 1790 252 339 477 480 681 1180 1750 4290 9980
2026-04-10 11:30 3.77 416 23400 (2008) 235 (1987) 1790 252 339 477 480 681 1180 1750 4290 9980
2026-04-10 11:00 3.79 423 23400 (2008) 235 (1987) 1790 252 339 477 480 681 1180 1750 4290 9980
2026-04-10 10:30 3.81 431 23400 (2008) 235 (1987) 1790 252 339 477 480 681 1180 1750 4290 9980
2026-04-10 10:00 3.81 431 23400 (2008) 235 (1987) 1790 252 339 477 480 681 1180 1750 4290 9980
2026-04-10 09:30 3.82 435 23400 (2008) 235 (1987) 1790 252 339 477 480 681 1180 1750 4290 9980
2026-04-10 09:00 3.82 435 23400 (2008) 235 (1987) 1790 252 339 477 480 681 1180 1750 4290 9980
2026-04-10 08:30 3.82 435 23400 (2008) 235 (1987) 1790 252 339 477 480 681 1180 1750 4290 9980
2026-04-10 08:00 3.83 439 23400 (2008) 235 (1987) 1790 252 339 477 480 681 1180 1750 4290 9980
2026-04-10 07:30 3.83 439 23400 (2008) 235 (1987) 1790 252 339 477 480 681 1180 1750 4290 9980
2026-04-10 07:00 3.83 439 23400 (2008) 235 (1987) 1790 252 339 477 480 681 1180 1750 4290 9980
2026-04-10 06:30 3.84 443 23400 (2008) 235 (1987) 1790 252 339 477 480 681 1180 1750 4290 9980
2026-04-10 06:00 3.84 443 23400 (2008) 235 (1987) 1790 252 339 477 480 681 1180 1750 4290 9980
2026-04-10 05:30 3.85 447 23400 (2008) 235 (1987) 1790 252 339 477 480 681 1180 1750 4290 9980
2026-04-10 05:00 3.85 447 23400 (2008) 235 (1987) 1790 252 339 477 480 681 1180 1750 4290 9980
2026-04-10 04:30 3.86 451 23400 (2008) 235 (1987) 1790 252 339 477 480 681 1180 1750 4290 9980
2026-04-10 04:00 3.86 451 23400 (2008) 235 (1987) 1790 252 339 477 480 681 1180 1750 4290 9980
2026-04-10 03:30 3.87 455 23400 (2008) 235 (1987) 1790 252 339 477 480 681 1180 1750 4290 9980
2026-04-10 03:00 3.87 455 23400 (2008) 235 (1987) 1790 252 339 477 480 681 1180 1750 4290 9980
2026-04-10 02:30 3.88 459 23400 (2008) 235 (1987) 1790 252 339 477 480 681 1180 1750 4290 9980
2026-04-10 02:00 3.88 459 23400 (2008) 235 (1987) 1790 252 339 477 480 681 1180 1750 4290 9980
2026-04-10 01:30 3.88 459 23400 (2008) 235 (1987) 1790 252 339 477 480 681 1180 1750 4290 9980
2026-04-10 01:00 3.89 463 23400 (2008) 235 (1987) 1790 252 339 477 480 681 1180 1750 4290 9980
2026-04-10 00:30 3.89 463 23400 (2008) 235 (1987) 1790 252 339 477 480 681 1180 1750 4290 9980
2026-04-10 00:00 3.90 468 23400 (2008) 235 (1987) 1790 252 339 477 480 681 1180 1750 4290 9980
2026-04-09 23:30 3.90 468 23400 (2008) 235 (1987) 1790 252 339 477 480 681 1180 1750 4290 9980
2026-04-09 23:00 3.91 472 23400 (2008) 235 (1987) 1790 252 339 477 480 681 1180 1750 4290 9980
2026-04-09 22:30 3.91 472 7230 (2015) 251 (1987) 1110 266 323 492 508 768 1230 1460 2260 4240
2026-04-09 22:00 3.91 472 7230 (2015) 251 (1987) 1110 266 323 492 508 768 1230 1460 2260 4240
2026-04-09 21:30 3.92 476 7230 (2015) 251 (1987) 1110 266 323 492 508 768 1230 1460 2260 4240
2026-04-09 21:00 3.92 476 7230 (2015) 251 (1987) 1110 266 323 492 508 768 1230 1460 2260 4240
2026-04-09 20:30 3.93 480 7230 (2015) 251 (1987) 1110 266 323 492 508 768 1230 1460 2260 4240
2026-04-09 20:00 3.93 480 7230 (2015) 251 (1987) 1110 266 323 492 508 768 1230 1460 2260 4240
2026-04-09 19:30 3.94 484 7230 (2015) 251 (1987) 1110 266 323 492 508 768 1230 1460 2260 4240
2026-04-09 19:00 3.94 484 7230 (2015) 251 (1987) 1110 266 323 492 508 768 1230 1460 2260 4240
2026-04-09 18:30 3.94 484 7230 (2015) 251 (1987) 1110 266 323 492 508 768 1230 1460 2260 4240
2026-04-09 18:00 3.92 476 7230 (2015) 251 (1987) 1110 266 323 492 508 768 1230 1460 2260 4240
2026-04-09 17:30 3.96 493 7230 (2015) 251 (1987) 1110 266 323 492 508 768 1230 1460 2260 4240
2026-04-09 17:00 3.95 488 7230 (2015) 251 (1987) 1110 266 323 492 508 768 1230 1460 2260 4240
2026-04-09 16:30 3.96 493 7230 (2015) 251 (1987) 1110 266 323 492 508 768 1230 1460 2260 4240
2026-04-09 16:00 3.94 484 7230 (2015) 251 (1987) 1110 266 323 492 508 768 1230 1460 2260 4240
2026-04-09 15:30 3.95 488 7230 (2015) 251 (1987) 1110 266 323 492 508 768 1230 1460 2260 4240
2026-04-09 15:00 3.96 493 7230 (2015) 251 (1987) 1110 266 323 492 508 768 1230 1460 2260 4240
2026-04-09 14:30 3.94 484 7230 (2015) 251 (1987) 1110 266 323 492 508 768 1230 1460 2260 4240
2026-04-09 14:00 3.96 493 7230 (2015) 251 (1987) 1110 266 323 492 508 768 1230 1460 2260 4240
2026-04-09 13:30 3.96 493 7230 (2015) 251 (1987) 1110 266 323 492 508 768 1230 1460 2260 4240
2026-04-09 13:00 4.00 510 7230 (2015) 251 (1987) 1110 266 323 492 508 768 1230 1460 2260 4240
2026-04-09 12:30 3.99 505 7230 (2015) 251 (1987) 1110 266 323 492 508 768 1230 1460 2260 4240
2026-04-09 12:00 4.01 514 7230 (2015) 251 (1987) 1110 266 323 492 508 768 1230 1460 2260 4240
2026-04-09 11:30 4.02 518 7230 (2015) 251 (1987) 1110 266 323 492 508 768 1230 1460 2260 4240
2026-04-09 11:00 4.02 518 7230 (2015) 251 (1987) 1110 266 323 492 508 768 1230 1460 2260 4240
2026-04-09 10:30 4.03 523 7230 (2015) 251 (1987) 1110 266 323 492 508 768 1230 1460 2260 4240
2026-04-09 10:00 523 7230 (2015) 251 (1987) 1110 266 323 492 508 768 1230 1460 2260 4240
2026-04-09 09:30 4.04 527 7230 (2015) 251 (1987) 1110 266 323 492 508 768 1230 1460 2260 4240
2026-04-09 09:00 4.04 527 7230 (2015) 251 (1987) 1110 266 323 492 508 768 1230 1460 2260 4240
2026-04-09 08:30 4.05 532 7230 (2015) 251 (1987) 1110 266 323 492 508 768 1230 1460 2260 4240
2026-04-09 08:00 4.06 536 7230 (2015) 251 (1987) 1110 266 323 492 508 768 1230 1460 2260 4240
2026-04-09 07:30 4.06 536 7230 (2015) 251 (1987) 1110 266 323 492 508 768 1230 1460 2260 4240
2026-04-09 07:00 4.07 540 7230 (2015) 251 (1987) 1110 266 323 492 508 768 1230 1460 2260 4240
2026-04-09 06:30 4.08 545 7230 (2015) 251 (1987) 1110 266 323 492 508 768 1230 1460 2260 4240
2026-04-09 06:00 4.08 545 7230 (2015) 251 (1987) 1110 266 323 492 508 768 1230 1460 2260 4240
2026-04-09 05:30 4.09 549 7230 (2015) 251 (1987) 1110 266 323 492 508 768 1230 1460 2260 4240
2026-04-09 05:00 4.09 549 7230 (2015) 251 (1987) 1110 266 323 492 508 768 1230 1460 2260 4240
2026-04-09 04:30 4.10 554 7230 (2015) 251 (1987) 1110 266 323 492 508 768 1230 1460 2260 4240
2026-04-09 04:00 4.11 558 7230 (2015) 251 (1987) 1110 266 323 492 508 768 1230 1460 2260 4240
2026-04-09 03:30 4.11 558 7230 (2015) 251 (1987) 1110 266 323 492 508 768 1230 1460 2260 4240
2026-04-09 03:00 4.11 558 7230 (2015) 251 (1987) 1110 266 323 492 508 768 1230 1460 2260 4240
2026-04-09 02:30 4.12 563 7230 (2015) 251 (1987) 1110 266 323 492 508 768 1230 1460 2260 4240
2026-04-09 02:00 4.13 567 7230 (2015) 251 (1987) 1110 266 323 492 508 768 1230 1460 2260 4240
2026-04-09 01:30 4.13 567 7230 (2015) 251 (1987) 1110 266 323 492 508 768 1230 1460 2260 4240
2026-04-09 01:00 4.14 572 7230 (2015) 251 (1987) 1110 266 323 492 508 768 1230 1460 2260 4240
2026-04-09 00:30 4.14 572 7230 (2015) 251 (1987) 1110 266 323 492 508 768 1230 1460 2260 4240
2026-04-09 00:00 4.15 577 7230 (2015) 251 (1987) 1110 266 323 492 508 768 1230 1460 2260 4240
2026-04-08 23:30 4.15 577 7230 (2015) 251 (1987) 1110 266 323 492 508 768 1230 1460 2260 4240
2026-04-08 23:00 4.16 581 7230 (2015) 251 (1987) 1110 266 323 492 508 768 1230 1460 2260 4240
2026-04-08 22:30 4.17 586 3710 (2025) 267 (1987) 1020 276 350 482 541 856 1230 1400 1950 3090
2026-04-08 22:00 4.17 586 3710 (2025) 267 (1987) 1020 276 350 482 541 856 1230 1400 1950 3090
2026-04-08 21:30 4.18 591 3710 (2025) 267 (1987) 1020 276 350 482 541 856 1230 1400 1950 3090
2026-04-08 21:00 4.18 591 3710 (2025) 267 (1987) 1020 276 350 482 541 856 1230 1400 1950 3090
2026-04-08 20:30 4.19 595 3710 (2025) 267 (1987) 1020 276 350 482 541 856 1230 1400 1950 3090
2026-04-08 20:00 4.20 600 3710 (2025) 267 (1987) 1020 276 350 482 541 856 1230 1400 1950 3090
2026-04-08 19:30 4.20 600 3710 (2025) 267 (1987) 1020 276 350 482 541 856 1230 1400 1950 3090
2026-04-08 19:00 4.21 605 3710 (2025) 267 (1987) 1020 276 350 482 541 856 1230 1400 1950 3090
2026-04-08 18:30 4.22 609 3710 (2025) 267 (1987) 1020 276 350 482 541 856 1230 1400 1950 3090
2026-04-08 18:00 4.23 614 3710 (2025) 267 (1987) 1020 276 350 482 541 856 1230 1400 1950 3090
2026-04-08 17:30 4.20 600 3710 (2025) 267 (1987) 1020 276 350 482 541 856 1230 1400 1950 3090
2026-04-08 17:00 4.20 600 3710 (2025) 267 (1987) 1020 276 350 482 541 856 1230 1400 1950 3090
2026-04-08 16:30 4.21 605 3710 (2025) 267 (1987) 1020 276 350 482 541 856 1230 1400 1950 3090
2026-04-08 16:00 4.20 600 3710 (2025) 267 (1987) 1020 276 350 482 541 856 1230 1400 1950 3090
2026-04-08 15:30 4.22 609 3710 (2025) 267 (1987) 1020 276 350 482 541 856 1230 1400 1950 3090
2026-04-08 15:00 4.27 633 3710 (2025) 267 (1987) 1020 276 350 482 541 856 1230 1400 1950 3090
2026-04-08 14:30 4.23 614 3710 (2025) 267 (1987) 1020 276 350 482 541 856 1230 1400 1950 3090
2026-04-08 14:00 4.26 629 3710 (2025) 267 (1987) 1020 276 350 482 541 856 1230 1400 1950 3090
2026-04-08 13:30 4.29 643 3710 (2025) 267 (1987) 1020 276 350 482 541 856 1230 1400 1950 3090
2026-04-08 13:00 4.30 648 3710 (2025) 267 (1987) 1020 276 350 482 541 856 1230 1400 1950 3090
2026-04-08 12:30 4.29 643 3710 (2025) 267 (1987) 1020 276 350 482 541 856 1230 1400 1950 3090
2026-04-08 12:00 4.31 653 3710 (2025) 267 (1987) 1020 276 350 482 541 856 1230 1400 1950 3090
2026-04-08 11:30 4.29 643 3710 (2025) 267 (1987) 1020 276 350 482 541 856 1230 1400 1950 3090
2026-04-08 11:00 4.30 648 3710 (2025) 267 (1987) 1020 276 350 482 541 856 1230 1400 1950 3090
2026-04-08 10:30 4.30 648 3710 (2025) 267 (1987) 1020 276 350 482 541 856 1230 1400 1950 3090
2026-04-08 10:00 4.33 663 3710 (2025) 267 (1987) 1020 276 350 482 541 856 1230 1400 1950 3090
2026-04-08 09:30 4.35 673 3710 (2025) 267 (1987) 1020 276 350 482 541 856 1230 1400 1950 3090
2026-04-08 09:00 4.35 673 3710 (2025) 267 (1987) 1020 276 350 482 541 856 1230 1400 1950 3090
2026-04-08 08:30 4.36 678 3710 (2025) 267 (1987) 1020 276 350 482 541 856 1230 1400 1950 3090
2026-04-08 08:00 4.37 683 3710 (2025) 267 (1987) 1020 276 350 482 541 856 1230 1400 1950 3090
2026-04-08 07:30 4.38 688 3710 (2025) 267 (1987) 1020 276 350 482 541 856 1230 1400 1950 3090
2026-04-08 07:00 4.39 693 3710 (2025) 267 (1987) 1020 276 350 482 541 856 1230 1400 1950 3090
2026-04-08 06:30 4.40 698 3710 (2025) 267 (1987) 1020 276 350 482 541 856 1230 1400 1950 3090
2026-04-08 06:00 4.41 703 3710 (2025) 267 (1987) 1020 276 350 482 541 856 1230 1400 1950 3090
2026-04-08 05:30 4.41 703 3710 (2025) 267 (1987) 1020 276 350 482 541 856 1230 1400 1950 3090
2026-04-08 05:00 4.42 708 3710 (2025) 267 (1987) 1020 276 350 482 541 856 1230 1400 1950 3090
2026-04-08 04:30 4.43 714 3710 (2025) 267 (1987) 1020 276 350 482 541 856 1230 1400 1950 3090
2026-04-08 04:00 4.44 719 3710 (2025) 267 (1987) 1020 276 350 482 541 856 1230 1400 1950 3090
2026-04-08 03:30 4.45 724 3710 (2025) 267 (1987) 1020 276 350 482 541 856 1230 1400 1950 3090
2026-04-08 03:00 4.46 729 3710 (2025) 267 (1987) 1020 276 350 482 541 856 1230 1400 1950 3090
2026-04-08 02:30 4.47 734 3710 (2025) 267 (1987) 1020 276 350 482 541 856 1230 1400 1950 3090
2026-04-08 02:00 4.48 740 3710 (2025) 267 (1987) 1020 276 350 482 541 856 1230 1400 1950 3090
2026-04-08 01:30 4.49 745 3710 (2025) 267 (1987) 1020 276 350 482 541 856 1230 1400 1950 3090
2026-04-08 01:00 4.50 750 3710 (2025) 267 (1987) 1020 276 350 482 541 856 1230 1400 1950 3090
2026-04-08 00:30 4.51 756 3710 (2025) 267 (1987) 1020 276 350 482 541 856 1230 1400 1950 3090
2026-04-08 00:00 4.51 756 3710 (2025) 267 (1987) 1020 276 350 482 541 856 1230 1400 1950 3090
2026-04-07 23:30 4.52 761 3710 (2025) 267 (1987) 1020 276 350 482 541 856 1230 1400 1950 3090
2026-04-07 23:00 4.53 766 3710 (2025) 267 (1987) 1020 276 350 482 541 856 1230 1400 1950 3090
2026-04-07 22:30 4.54 772 6530 (2025) 282 (1987) 1120 286 368 552 589 871 1190 1360 1880 3890
2026-04-07 22:00 4.56 783 6530 (2025) 282 (1987) 1120 286 368 552 589 871 1190 1360 1880 3890
2026-04-07 21:30 4.56 783 6530 (2025) 282 (1987) 1120 286 368 552 589 871 1190 1360 1880 3890
2026-04-07 21:00 4.58 793 6530 (2025) 282 (1987) 1120 286 368 552 589 871 1190 1360 1880 3890
2026-04-07 20:30 4.59 799 6530 (2025) 282 (1987) 1120 286 368 552 589 871 1190 1360 1880 3890
2026-04-07 20:00 4.59 799 6530 (2025) 282 (1987) 1120 286 368 552 589 871 1190 1360 1880 3890
2026-04-07 19:30 4.60 804 6530 (2025) 282 (1987) 1120 286 368 552 589 871 1190 1360 1880 3890
2026-04-07 19:00 4.62 815 6530 (2025) 282 (1987) 1120 286 368 552 589 871 1190 1360 1880 3890
2026-04-07 18:30 4.63 821 6530 (2025) 282 (1987) 1120 286 368 552 589 871 1190 1360 1880 3890
2026-04-07 18:00 4.64 827 6530 (2025) 282 (1987) 1120 286 368 552 589 871 1190 1360 1880 3890
2026-04-07 17:30 4.65 832 6530 (2025) 282 (1987) 1120 286 368 552 589 871 1190 1360 1880 3890
2026-04-07 17:00 4.67 844 6530 (2025) 282 (1987) 1120 286 368 552 589 871 1190 1360 1880 3890
2026-04-07 16:30 4.68 849 6530 (2025) 282 (1987) 1120 286 368 552 589 871 1190 1360 1880 3890
2026-04-07 16:00 4.69 855 6530 (2025) 282 (1987) 1120 286 368 552 589 871 1190 1360 1880 3890
2026-04-07 15:30 4.70 861 6530 (2025) 282 (1987) 1120 286 368 552 589 871 1190 1360 1880 3890
2026-04-07 15:00 4.72 872 6530 (2025) 282 (1987) 1120 286 368 552 589 871 1190 1360 1880 3890
2026-04-07 14:30 4.73 878 6530 (2025) 282 (1987) 1120 286 368 552 589 871 1190 1360 1880 3890
2026-04-07 14:00 4.74 884 6530 (2025) 282 (1987) 1120 286 368 552 589 871 1190 1360 1880 3890
2026-04-07 13:30 4.75 889 6530 (2025) 282 (1987) 1120 286 368 552 589 871 1190 1360 1880 3890
2026-04-07 13:00 4.74 884 6530 (2025) 282 (1987) 1120 286 368 552 589 871 1190 1360 1880 3890
2026-04-07 12:30 4.75 889 6530 (2025) 282 (1987) 1120 286 368 552 589 871 1190 1360 1880 3890
2026-04-07 12:00 4.79 913 6530 (2025) 282 (1987) 1120 286 368 552 589 871 1190 1360 1880 3890
2026-04-07 11:30 4.79 913 6530 (2025) 282 (1987) 1120 286 368 552 589 871 1190 1360 1880 3890
2026-04-07 11:00 4.80 919 6530 (2025) 282 (1987) 1120 286 368 552 589 871 1190 1360 1880 3890
2026-04-07 10:30 4.82 931 6530 (2025) 282 (1987) 1120 286 368 552 589 871 1190 1360 1880 3890
2026-04-07 10:00 4.84 943 6530 (2025) 282 (1987) 1120 286 368 552 589 871 1190 1360 1880 3890
2026-04-07 09:30 4.81 925 6530 (2025) 282 (1987) 1120 286 368 552 589 871 1190 1360 1880 3890
2026-04-07 09:00 4.85 949 6530 (2025) 282 (1987) 1120 286 368 552 589 871 1190 1360 1880 3890
2026-04-07 08:30 4.88 967 6530 (2025) 282 (1987) 1120 286 368 552 589 871 1190 1360 1880 3890
2026-04-07 08:00 4.90 979 6530 (2025) 282 (1987) 1120 286 368 552 589 871 1190 1360 1880 3890
2026-04-07 07:30 4.91 985 6530 (2025) 282 (1987) 1120 286 368 552 589 871 1190 1360 1880 3890
2026-04-07 07:00 4.93 998 6530 (2025) 282 (1987) 1120 286 368 552 589 871 1190 1360 1880 3890
2026-04-07 06:30 4.94 1000 6530 (2025) 282 (1987) 1120 286 368 552 589 871 1190 1360 1880 3890
2026-04-07 06:00 4.95 1010 6530 (2025) 282 (1987) 1120 286 368 552 589 871 1190 1360 1880 3890
2026-04-07 05:30 4.97 1020 6530 (2025) 282 (1987) 1120 286 368 552 589 871 1190 1360 1880 3890
2026-04-07 05:00 4.99 1040 6530 (2025) 282 (1987) 1120 286 368 552 589 871 1190 1360 1880 3890
2026-04-07 04:30 5.00 1040 6530 (2025) 282 (1987) 1120 286 368 552 589 871 1190 1360 1880 3890
2026-04-07 04:00 5.01 1050 6530 (2025) 282 (1987) 1120 286 368 552 589 871 1190 1360 1880 3890
2026-04-07 03:30 5.03 1060 6530 (2025) 282 (1987) 1120 286 368 552 589 871 1190 1360 1880 3890
2026-04-07 03:00 5.04 1070 6530 (2025) 282 (1987) 1120 286 368 552 589 871 1190 1360 1880 3890
2026-04-07 02:30 5.06 1080 6530 (2025) 282 (1987) 1120 286 368 552 589 871 1190 1360 1880 3890
2026-04-07 02:00 5.07 1090 6530 (2025) 282 (1987) 1120 286 368 552 589 871 1190 1360 1880 3890
2026-04-07 01:30 5.09 1100 6530 (2025) 282 (1987) 1120 286 368 552 589 871 1190 1360 1880 3890
2026-04-07 01:00 5.11 1110 6530 (2025) 282 (1987) 1120 286 368 552 589 871 1190 1360 1880 3890
2026-04-07 00:30 5.12 1120 6530 (2025) 282 (1987) 1120 286 368 552 589 871 1190 1360 1880 3890
2026-04-07 00:00 5.14 1130 6530 (2025) 282 (1987) 1120 286 368 552 589 871 1190 1360 1880 3890
2026-04-06 23:30 5.16 1150 6530 (2025) 282 (1987) 1120 286 368 552 589 871 1190 1360 1880 3890
2026-04-06 23:00 5.17 1150 6530 (2025) 282 (1987) 1120 286 368 552 589 871 1190 1360 1880 3890
2026-04-06 22:30 5.19 1170 22700 (2025) 296 (1987) 1970 302 402 596 615 962 1690 1780 3340 11100
2026-04-06 22:00 5.21 1180 22700 (2025) 296 (1987) 1970 302 402 596 615 962 1690 1780 3340 11100
2026-04-06 21:30 5.22 1190 22700 (2025) 296 (1987) 1970 302 402 596 615 962 1690 1780 3340 11100
2026-04-06 21:00 5.25 1210 22700 (2025) 296 (1987) 1970 302 402 596 615 962 1690 1780 3340 11100
2026-04-06 20:30 5.26 1210 22700 (2025) 296 (1987) 1970 302 402 596 615 962 1690 1780 3340 11100
2026-04-06 20:00 5.28 1230 22700 (2025) 296 (1987) 1970 302 402 596 615 962 1690 1780 3340 11100
2026-04-06 19:30 5.30 1240 22700 (2025) 296 (1987) 1970 302 402 596 615 962 1690 1780 3340 11100
2026-04-06 19:00 5.32 1250 22700 (2025) 296 (1987) 1970 302 402 596 615 962 1690 1780 3340 11100
2026-04-06 18:30 5.34 1270 22700 (2025) 296 (1987) 1970 302 402 596 615 962 1690 1780 3340 11100
2026-04-06 18:00 5.36 1280 22700 (2025) 296 (1987) 1970 302 402 596 615 962 1690 1780 3340 11100
2026-04-06 17:30 5.38 1300 22700 (2025) 296 (1987) 1970 302 402 596 615 962 1690 1780 3340 11100
2026-04-06 17:00 5.36 1280 22700 (2025) 296 (1987) 1970 302 402 596 615 962 1690 1780 3340 11100
2026-04-06 16:30 5.42 1330 22700 (2025) 296 (1987) 1970 302 402 596 615 962 1690 1780 3340 11100
2026-04-06 16:00 5.45 1350 22700 (2025) 296 (1987) 1970 302 402 596 615 962 1690 1780 3340 11100
2026-04-06 15:30 5.43 1330 22700 (2025) 296 (1987) 1970 302 402 596 615 962 1690 1780 3340 11100
2026-04-06 15:00 5.44 1340 22700 (2025) 296 (1987) 1970 302 402 596 615 962 1690 1780 3340 11100
2026-04-06 14:30 5.44 1340 22700 (2025) 296 (1987) 1970 302 402 596 615 962 1690 1780 3340 11100
2026-04-06 14:00 5.52 1400 22700 (2025) 296 (1987) 1970 302 402 596 615 962 1690 1780 3340 11100
2026-04-06 13:30 5.51 1390 22700 (2025) 296 (1987) 1970 302 402 596 615 962 1690 1780 3340 11100
2026-04-06 13:00 5.53 1410 22700 (2025) 296 (1987) 1970 302 402 596 615 962 1690 1780 3340 11100
2026-04-06 12:30 5.58 1440 22700 (2025) 296 (1987) 1970 302 402 596 615 962 1690 1780 3340 11100
2026-04-06 12:00 5.60 1460 22700 (2025) 296 (1987) 1970 302 402 596 615 962 1690 1780 3340 11100
2026-04-06 11:30 5.60 1460 22700 (2025) 296 (1987) 1970 302 402 596 615 962 1690 1780 3340 11100
2026-04-06 11:00 5.64 1490 22700 (2025) 296 (1987) 1970 302 402 596 615 962 1690 1780 3340 11100
2026-04-06 10:30 5.68 1520 22700 (2025) 296 (1987) 1970 302 402 596 615 962 1690 1780 3340 11100
2026-04-06 10:00 5.70 1540 22700 (2025) 296 (1987) 1970 302 402 596 615 962 1690 1780 3340 11100
2026-04-06 09:30 5.73 1560 22700 (2025) 296 (1987) 1970 302 402 596 615 962 1690 1780 3340 11100
2026-04-06 09:00 5.75 1580 22700 (2025) 296 (1987) 1970 302 402 596 615 962 1690 1780 3340 11100
2026-04-06 08:30 5.78 1600 22700 (2025) 296 (1987) 1970 302 402 596 615 962 1690 1780 3340 11100
2026-04-06 08:00 5.81 1620 22700 (2025) 296 (1987) 1970 302 402 596 615 962 1690 1780 3340 11100
2026-04-06 07:30 5.83 1640 22700 (2025) 296 (1987) 1970 302 402 596 615 962 1690 1780 3340 11100
2026-04-06 07:00 5.87 1670 22700 (2025) 296 (1987) 1970 302 402 596 615 962 1690 1780 3340 11100
2026-04-06 06:30 5.89 1690 22700 (2025) 296 (1987) 1970 302 402 596 615 962 1690 1780 3340 11100
2026-04-06 06:00 5.92 1710 22700 (2025) 296 (1987) 1970 302 402 596 615 962 1690 1780 3340 11100
2026-04-06 05:30 5.95 1740 22700 (2025) 296 (1987) 1970 302 402 596 615 962 1690 1780 3340 11100
2026-04-06 05:00 5.98 1760 22700 (2025) 296 (1987) 1970 302 402 596 615 962 1690 1780 3340 11100
2026-04-06 04:30 6.01 1790 22700 (2025) 296 (1987) 1970 302 402 596 615 962 1690 1780 3340 11100
2026-04-06 04:00 6.04 1810 22700 (2025) 296 (1987) 1970 302 402 596 615 962 1690 1780 3340 11100
2026-04-06 03:30 6.07 1840 22700 (2025) 296 (1987) 1970 302 402 596 615 962 1690 1780 3340 11100
2026-04-06 03:00 6.10 1870 22700 (2025) 296 (1987) 1970 302 402 596 615 962 1690 1780 3340 11100
2026-04-06 02:30 6.13 1890 22700 (2025) 296 (1987) 1970 302 402 596 615 962 1690 1780 3340 11100
2026-04-06 02:00 6.16 1920 22700 (2025) 296 (1987) 1970 302 402 596 615 962 1690 1780 3340 11100
2026-04-06 01:30 6.19 1940 22700 (2025) 296 (1987) 1970 302 402 596 615 962 1690 1780 3340 11100
2026-04-06 01:00 6.22 1970 22700 (2025) 296 (1987) 1970 302 402 596 615 962 1690 1780 3340 11100
2026-04-06 00:30 6.26 2010 22700 (2025) 296 (1987) 1970 302 402 596 615 962 1690 1780 3340 11100
2026-04-06 00:00 6.29 2030 22700 (2025) 296 (1987) 1970 302 402 596 615 962 1690 1780 3340 11100
2026-04-05 23:30 6.32 2060 22700 (2025) 296 (1987) 1970 302 402 596 615 962 1690 1780 3340 11100
2026-04-05 23:00 6.36 2100 22700 (2025) 296 (1987) 1970 302 402 596 615 962 1690 1780 3340 11100
2026-04-05 22:30 6.39 2130 57400 (2025) 318 (1987) 3280 320 446 644 674 1030 1800 2720 4920 22200
2026-04-05 22:00 6.42 2150 57400 (2025) 318 (1987) 3280 320 446 644 674 1030 1800 2720 4920 22200
2026-04-05 21:30 6.46 2190 57400 (2025) 318 (1987) 3280 320 446 644 674 1030 1800 2720 4920 22200
2026-04-05 21:00 6.50 2230 57400 (2025) 318 (1987) 3280 320 446 644 674 1030 1800 2720 4920 22200
2026-04-05 20:30 6.54 2270 57400 (2025) 318 (1987) 3280 320 446 644 674 1030 1800 2720 4920 22200
2026-04-05 20:00 6.58 2310 57400 (2025) 318 (1987) 3280 320 446 644 674 1030 1800 2720 4920 22200
2026-04-05 19:30 6.61 2340 57400 (2025) 318 (1987) 3280 320 446 644 674 1030 1800 2720 4920 22200
2026-04-05 19:00 6.65 2380 57400 (2025) 318 (1987) 3280 320 446 644 674 1030 1800 2720 4920 22200
2026-04-05 18:30 6.70 2420 57400 (2025) 318 (1987) 3280 320 446 644 674 1030 1800 2720 4920 22200
2026-04-05 18:00 6.71 2430 57400 (2025) 318 (1987) 3280 320 446 644 674 1030 1800 2720 4920 22200
2026-04-05 17:30 6.79 2520 57400 (2025) 318 (1987) 3280 320 446 644 674 1030 1800 2720 4920 22200
2026-04-05 17:00 6.79 2520 57400 (2025) 318 (1987) 3280 320 446 644 674 1030 1800 2720 4920 22200
2026-04-05 16:30 6.87 2600 57400 (2025) 318 (1987) 3280 320 446 644 674 1030 1800 2720 4920 22200
2026-04-05 16:00 6.89 2620 57400 (2025) 318 (1987) 3280 320 446 644 674 1030 1800 2720 4920 22200
2026-04-05 15:30 6.99 2720 57400 (2025) 318 (1987) 3280 320 446 644 674 1030 1800 2720 4920 22200
2026-04-05 15:00 7.02 2760 57400 (2025) 318 (1987) 3280 320 446 644 674 1030 1800 2720 4920 22200
2026-04-05 14:30 7.05 2790 57400 (2025) 318 (1987) 3280 320 446 644 674 1030 1800 2720 4920 22200
2026-04-05 14:00 7.14 2890 57400 (2025) 318 (1987) 3280 320 446 644 674 1030 1800 2720 4920 22200
2026-04-05 13:30 7.19 2940 57400 (2025) 318 (1987) 3280 320 446 644 674 1030 1800 2720 4920 22200
2026-04-05 13:00 7.25 3010 57400 (2025) 318 (1987) 3280 320 446 644 674 1030 1800 2720 4920 22200
2026-04-05 12:30 7.28 3040 57400 (2025) 318 (1987) 3280 320 446 644 674 1030 1800 2720 4920 22200
2026-04-05 12:00 7.34 3110 57400 (2025) 318 (1987) 3280 320 446 644 674 1030 1800 2720 4920 22200
2026-04-05 11:30 7.40 3180 57400 (2025) 318 (1987) 3280 320 446 644 674 1030 1800 2720 4920 22200
2026-04-05 11:00 7.44 3220 57400 (2025) 318 (1987) 3280 320 446 644 674 1030 1800 2720 4920 22200
2026-04-05 10:30 7.54 3340 57400 (2025) 318 (1987) 3280 320 446 644 674 1030 1800 2720 4920 22200
2026-04-05 10:00 7.59 3400 57400 (2025) 318 (1987) 3280 320 446 644 674 1030 1800 2720 4920 22200
2026-04-05 09:30 7.66 3490 57400 (2025) 318 (1987) 3280 320 446 644 674 1030 1800 2720 4920 22200
2026-04-05 09:00 7.72 3560 57400 (2025) 318 (1987) 3280 320 446 644 674 1030 1800 2720 4920 22200
2026-04-05 08:30 7.77 3620 57400 (2025) 318 (1987) 3280 320 446 644 674 1030 1800 2720 4920 22200
2026-04-05 08:00 7.83 3690 57400 (2025) 318 (1987) 3280 320 446 644 674 1030 1800 2720 4920 22200
2026-04-05 07:30 7.88 3760 57400 (2025) 318 (1987) 3280 320 446 644 674 1030 1800 2720 4920 22200
2026-04-05 07:00 7.93 3820 57400 (2025) 318 (1987) 3280 320 446 644 674 1030 1800 2720 4920 22200
2026-04-05 06:30 7.98 3880 57400 (2025) 318 (1987) 3280 320 446 644 674 1030 1800 2720 4920 22200
2026-04-05 06:00 8.04 57400 (2025) 318 (1987) 3280 320 446 644 674 1030 1800 2720 4920 22200
2026-04-05 05:30 4010 57400 (2025) 318 (1987) 3280 320 446 644 674 1030 1800 2720 4920 22200
2026-04-05 05:00 4070 57400 (2025) 318 (1987) 3280 320 446 644 674 1030 1800 2720 4920 22200
2026-04-05 04:30 8.15 57400 (2025) 318 (1987) 3280 320 446 644 674 1030 1800 2720 4920 22200
2026-04-05 03:30 8.21 4190 57400 (2025) 318 (1987) 3280 320 446 644 674 1030 1800 2720 4920 22200
2026-04-05 03:00 8.26 4250 57400 (2025) 318 (1987) 3280 320 446 644 674 1030 1800 2720 4920 22200
2026-04-05 02:30 8.29 4290 57400 (2025) 318 (1987) 3280 320 446 644 674 1030 1800 2720 4920 22200
2026-04-05 02:00 8.32 57400 (2025) 318 (1987) 3280 320 446 644 674 1030 1800 2720 4920 22200
2026-04-05 01:30 4380 57400 (2025) 318 (1987) 3280 320 446 644 674 1030 1800 2720 4920 22200
2026-04-05 01:00 8.38 4420 57400 (2025) 318 (1987) 3280 320 446 644 674 1030 1800 2720 4920 22200
2026-04-05 00:30 8.41 4460 57400 (2025) 318 (1987) 3280 320 446 644 674 1030 1800 2720 4920 22200
2026-04-05 00:00 8.42 4470 57400 (2025) 318 (1987) 3280 320 446 644 674 1030 1800 2720 4920 22200
2026-04-04 23:30 8.44 4500 57400 (2025) 318 (1987) 3280 320 446 644 674 1030 1800 2720 4920 22200
2026-04-04 23:00 8.46 4530 57400 (2025) 318 (1987) 3280 320 446 644 674 1030 1800 2720 4920 22200
2026-04-04 22:30 8.49 4570 11500 (2025) 271 (1986) 1910 322 397 590 634 977 1870 2630 5220 10100
2026-04-04 22:00 8.54 4640 11500 (2025) 271 (1986) 1910 322 397 590 634 977 1870 2630 5220 10100
2026-04-04 21:30 8.60 4730 11500 (2025) 271 (1986) 1910 322 397 590 634 977 1870 2630 5220 10100
2026-04-04 21:00 8.66 4810 11500 (2025) 271 (1986) 1910 322 397 590 634 977 1870 2630 5220 10100
2026-04-04 20:30 8.71 4880 11500 (2025) 271 (1986) 1910 322 397 590 634 977 1870 2630 5220 10100
2026-04-04 20:00 8.73 4910 11500 (2025) 271 (1986) 1910 322 397 590 634 977 1870 2630 5220 10100
2026-04-04 19:30 8.73 4910 11500 (2025) 271 (1986) 1910 322 397 590 634 977 1870 2630 5220 10100
2026-04-04 19:00 8.65 4800 11500 (2025) 271 (1986) 1910 322 397 590 634 977 1870 2630 5220 10100
2026-04-04 18:30 8.51 4600 11500 (2025) 271 (1986) 1910 322 397 590 634 977 1870 2630 5220 10100
2026-04-04 18:00 8.21 4190 11500 (2025) 271 (1986) 1910 322 397 590 634 977 1870 2630 5220 10100
2026-04-04 17:30 7.94 3830 11500 (2025) 271 (1986) 1910 322 397 590 634 977 1870 2630 5220 10100
2026-04-04 17:00 7.62 3440 11500 (2025) 271 (1986) 1910 322 397 590 634 977 1870 2630 5220 10100
2026-04-04 16:30 7.45 3240 11500 (2025) 271 (1986) 1910 322 397 590 634 977 1870 2630 5220 10100
2026-04-04 16:00 7.35 3120 11500 (2025) 271 (1986) 1910 322 397 590 634 977 1870 2630 5220 10100
2026-04-04 15:30 7.31 3070 11500 (2025) 271 (1986) 1910 322 397 590 634 977 1870 2630 5220 10100
2026-04-04 15:00 7.26 3020 11500 (2025) 271 (1986) 1910 322 397 590 634 977 1870 2630 5220 10100
2026-04-04 14:30 7.25 3010 11500 (2025) 271 (1986) 1910 322 397 590 634 977 1870 2630 5220 10100
2026-04-04 14:00 7.28 3040 11500 (2025) 271 (1986) 1910 322 397 590 634 977 1870 2630 5220 10100
2026-04-04 13:30 7.23 2980 11500 (2025) 271 (1986) 1910 322 397 590 634 977 1870 2630 5220 10100
2026-04-04 13:00 7.11 2850 11500 (2025) 271 (1986) 1910 322 397 590 634 977 1870 2630 5220 10100
2026-04-04 12:30 6.85 2580 11500 (2025) 271 (1986) 1910 322 397 590 634 977 1870 2630 5220 10100
2026-04-04 12:00 6.86 2590 11500 (2025) 271 (1986) 1910 322 397 590 634 977 1870 2630 5220 10100
2026-04-04 11:30 6.82 2550 11500 (2025) 271 (1986) 1910 322 397 590 634 977 1870 2630 5220 10100
2026-04-04 11:00 6.53 2260 11500 (2025) 271 (1986) 1910 322 397 590 634 977 1870 2630 5220 10100
2026-04-04 10:30 5.61 1470 11500 (2025) 271 (1986) 1910 322 397 590 634 977 1870 2630 5220 10100
2026-04-04 10:00 4.27 633 11500 (2025) 271 (1986) 1910 322 397 590 634 977 1870 2630 5220 10100
2026-04-04 09:30 3.85 447 11500 (2025) 271 (1986) 1910 322 397 590 634 977 1870 2630 5220 10100
2026-04-04 09:00 3.71 393 11500 (2025) 271 (1986) 1910 322 397 590 634 977 1870 2630 5220 10100
2026-04-04 08:30 3.59 349 11500 (2025) 271 (1986) 1910 322 397 590 634 977 1870 2630 5220 10100
2026-04-04 08:00 3.49 315 11500 (2025) 271 (1986) 1910 322 397 590 634 977 1870 2630 5220 10100
2026-04-04 07:30 3.42 292 11500 (2025) 271 (1986) 1910 322 397 590 634 977 1870 2630 5220 10100
2026-04-04 07:00 3.32 261 11500 (2025) 271 (1986) 1910 322 397 590 634 977 1870 2630 5220 10100
2026-04-04 06:30 3.15 212 11500 (2025) 271 (1986) 1910 322 397 590 634 977 1870 2630 5220 10100
2026-04-04 06:00 3.15 212 11500 (2025) 271 (1986) 1910 322 397 590 634 977 1870 2630 5220 10100
2026-04-04 05:30 3.07 191 11500 (2025) 271 (1986) 1910 322 397 590 634 977 1870 2630 5220 10100
2026-04-04 05:00 3.07 191 11500 (2025) 271 (1986) 1910 322 397 590 634 977 1870 2630 5220 10100
2026-04-04 04:30 3.07 191 11500 (2025) 271 (1986) 1910 322 397 590 634 977 1870 2630 5220 10100
2026-04-04 04:00 3.03 182 11500 (2025) 271 (1986) 1910 322 397 590 634 977 1870 2630 5220 10100
2026-04-04 03:30 3.04 184 11500 (2025) 271 (1986) 1910 322 397 590 634 977 1870 2630 5220 10100
2026-04-04 03:00 3.03 182 11500 (2025) 271 (1986) 1910 322 397 590 634 977 1870 2630 5220 10100
2026-04-04 02:30 3.02 180 11500 (2025) 271 (1986) 1910 322 397 590 634 977 1870 2630 5220 10100
2026-04-04 02:00 3.01 177 11500 (2025) 271 (1986) 1910 322 397 590 634 977 1870 2630 5220 10100
2026-04-04 01:30 3.01 177 11500 (2025) 271 (1986) 1910 322 397 590 634 977 1870 2630 5220 10100
2026-04-04 01:00 3.01 177 11500 (2025) 271 (1986) 1910 322 397 590 634 977 1870 2630 5220 10100
2026-04-04 00:30 3.01 177 11500 (2025) 271 (1986) 1910 322 397 590 634 977 1870 2630 5220 10100
2026-04-04 00:00 3.01 177 11500 (2025) 271 (1986) 1910 322 397 590 634 977 1870 2630 5220 10100
2026-04-03 23:30 3.01 177 11500 (2025) 271 (1986) 1910 322 397 590 634 977 1870 2630 5220 10100
2026-04-03 23:00 3.01 177 11500 (2025) 271 (1986) 1910 322 397 590 634 977 1870 2630 5220 10100

A total of 1500 rows are displayed for years 1984 through 2025.